Darstellungsparameter: Aktuell verwendete Einstellungen:
Skalierung der Graphiken ... ?
xyx+y,   Skalierungsfaktor:      Skalierung: Modus: x, Faktor: 1
Darstellungszeitraum ... ?
Vom - - bis: - -   Zeitraum: 30.11.2019 - 28.12.2019
Min/Max/Avg-Anzeige ... ?
Zeige MMA aktuell
Zeige MMA Monat
Zeige MMA alles
Zeige --A aktuell
Zeige --A Monat
Zeige --A alles
Keine MMA-Anzeige
MMA:
Minimum Maximum Average (ber die Originaldaten)
MMA-Basis: 30.11.2019 - 28.12.2019
Quicknavigation für Darstellung... ?
Tage:      1T, 2T, 3T, 5T -1T -2T -3T -5T +1T +2T +3T +5T
Wochen: 1W, 2W, 3W -1W -2W -3W +1W +2W +3W
Monate: 1M, 3M, 6M -1M -3M -6M +1M +3M +6M
Jahre:    1J, 3J, 5J, 10J -1J -3J -5J -10J +1J +3J +5J +10J
Nutze für die Darstellung ... ?
Originaldaten oder Mittelwerte auf ...
Stundenbasis Tagesbasis Wochenbasis
Monatsbasis Jahresbasis      Datenbasis: Original-Daten
Darstellen als:
Statistik (Auto) Statistik J:M      Darstellung:
Zur Graphik,    zurück zur Übersicht aller Sensoren.
 
Tabellarische Datenbersicht: ?
 
Sensor: Nr:Datum:Temp:Feuchte:
Aussen-T/F 1 30-11-2019 00:00:17 1.9 C 40 %
2 30-11-2019 00:10:17 1.8 C 40 %
3 30-11-2019 00:20:17 1.8 C 40 %
4 30-11-2019 00:30:17 2 C 37 %
5 30-11-2019 00:40:17 1.7 C 37 %
6 30-11-2019 00:50:17 1.6 C 40 %
7 30-11-2019 01:00:17 1.3 C 40 %
8 30-11-2019 01:10:17 1 C 40 %
9 30-11-2019 01:20:17 0.7 C 41 %
10 30-11-2019 01:30:17 0.5 C 42 %
11 30-11-2019 01:40:17 0.7 C 44 %
12 30-11-2019 01:50:17 0.5 C 43 %
13 30-11-2019 02:00:17 0.4 C 44 %
14 30-11-2019 02:10:17 0.9 C 45 %
15 30-11-2019 02:20:17 1.1 C 44 %
16 30-11-2019 02:30:17 1.2 C 44 %
17 30-11-2019 02:40:17 0.8 C 43 %
18 30-11-2019 02:50:17 0.8 C 43 %
19 30-11-2019 03:00:17 0.9 C 43 %
20 30-11-2019 03:10:17 0.7 C 43 %
21 30-11-2019 03:20:17 0.3 C 41 %
22 30-11-2019 03:30:17 0.5 C 44 %
23 30-11-2019 03:40:17 0.2 C 43 %
24 30-11-2019 03:50:17 0.6 C 44 %
25 30-11-2019 04:00:17 1 C 44 %
Sensor: Nr:Datum:Temp:Feuchte:
Aussen-T/F 26 30-11-2019 04:10:17 1.3 C 43 %
27 30-11-2019 04:20:17 1.3 C 41 %
28 30-11-2019 04:30:17 1.4 C 40 %
29 30-11-2019 04:40:17 1.3 C 40 %
30 30-11-2019 04:50:17 1 C 38 %
31 30-11-2019 05:00:17 0.6 C 40 %
32 30-11-2019 05:10:17 1.1 C 41 %
33 30-11-2019 05:20:17 0.8 C 40 %
34 30-11-2019 05:30:17 0.3 C 40 %
35 30-11-2019 05:40:17 -0.5 C 40 %
36 30-11-2019 05:50:17 -0.7 C 41 %
37 30-11-2019 06:00:17 -0.7 C 43 %
38 30-11-2019 06:10:17 -0.9 C 43 %
39 30-11-2019 06:20:17 -1 C 43 %
40 30-11-2019 06:30:17 -1.2 C 43 %
41 30-11-2019 06:40:17 -1.3 C 43 %
42 30-11-2019 06:50:17 -1.2 C 44 %
43 30-11-2019 07:00:17 -1.4 C 44 %
44 30-11-2019 07:10:17 -1.4 C 43 %
45 30-11-2019 07:20:17 -1.4 C 43 %
46 30-11-2019 07:30:17 -1.5 C 43 %
47 30-11-2019 07:40:17 -1.2 C 44 %
48 30-11-2019 07:50:17 -1.1 C 44 %
49 30-11-2019 08:00:17 -1 C 44 %
50 30-11-2019 08:10:17 -0.7 C 44 %
Sensor: Nr:Datum:Temp:Feuchte:
Aussen-T/F 51 30-11-2019 08:20:17 -0.6 C 44 %
52 30-11-2019 08:30:17 -0.7 C 44 %
53 30-11-2019 08:40:17 -0.6 C 44 %
54 30-11-2019 08:50:17 -0.7 C 44 %
55 30-11-2019 09:00:17 -0.7 C 44 %
56 30-11-2019 09:10:17 -0.6 C 44 %
57 30-11-2019 09:20:17 -0.7 C 44 %
58 30-11-2019 09:30:17 -0.7 C 44 %
59 30-11-2019 09:40:17 -0.6 C 44 %
60 30-11-2019 09:50:17 -0.3 C 44 %
61 30-11-2019 10:00:17 -0.3 C 44 %
62 30-11-2019 10:10:17 0 C 44 %
63 30-11-2019 10:20:17 0.1 C 43 %
64 30-11-2019 10:30:17 0.4 C 43 %
65 30-11-2019 10:40:17 0.5 C 43 %
66 30-11-2019 10:50:17 0.4 C 43 %
67 30-11-2019 11:00:18 0.5 C 42 %
68 30-11-2019 11:10:18 0.6 C 42 %
69 30-11-2019 11:20:17 0.6 C 42 %
70 30-11-2019 11:30:17 0.4 C 41 %
71 30-11-2019 11:40:17 0.6 C 41 %
72 30-11-2019 11:50:17 0.9 C 41 %
73 30-11-2019 12:00:17 1.1 C 40 %
74 30-11-2019 12:10:17 0.9 C 38 %
75 30-11-2019 12:20:17 1.3 C 39 %
Sensor: Nr:Datum:Temp:Feuchte:
Aussen-T/F 76 30-11-2019 12:30:17 1.4 C 37 %
77 30-11-2019 12:40:17 1.4 C 36 %
78 30-11-2019 12:50:17 2.3 C 36 %
79 30-11-2019 13:00:17 2.4 C 36 %
80 30-11-2019 13:10:17 1.8 C 36 %
81 30-11-2019 13:20:17 2.2 C 36 %
82 30-11-2019 13:30:17 2.1 C 36 %
83 30-11-2019 13:40:17 2.3 C 36 %
84 30-11-2019 13:50:17 2.3 C 36 %
85 30-11-2019 14:00:17 2 C 36 %
86 30-11-2019 14:10:17 2.1 C 38 %
87 30-11-2019 14:20:17 2.2 C 38 %
88 30-11-2019 14:30:17 2.2 C 38 %
89 30-11-2019 14:40:17 2.4 C 38 %
90 30-11-2019 14:50:17 2.2 C 37 %
91 30-11-2019 15:00:17 1.9 C 39 %
92 30-11-2019 15:10:17 1.8 C 40 %
93 30-11-2019 15:20:18 1.9 C 41 %
94 30-11-2019 15:30:17 1.8 C 41 %
95 30-11-2019 15:40:17 1.6 C 41 %
96 30-11-2019 15:50:17 1.7 C 42 %
97 30-11-2019 16:00:17 1.5 C 42 %
98 30-11-2019 16:10:17 1.5 C 42 %
99 30-11-2019 16:20:17 1.4 C 43 %
100 30-11-2019 16:30:17 1.3 C 43 %
Sensor: Nr:Datum:Temp:Feuchte:
Aussen-T/F 101 30-11-2019 16:40:17 1.3 C 43 %
102 30-11-2019 16:50:17 1.1 C 43 %
103 30-11-2019 17:00:17 0.9 C 44 %
104 30-11-2019 17:10:17 0.9 C 44 %
105 30-11-2019 17:20:17 0.6 C 44 %
106 30-11-2019 17:30:17 0.6 C 44 %
107 30-11-2019 17:40:17 0.6 C 44 %
108 30-11-2019 17:50:17 0.5 C 44 %
109 30-11-2019 18:00:17 0.4 C 44 %
110 30-11-2019 18:10:17 0.3 C 44 %
111 30-11-2019 18:20:17 0.3 C 44 %
112 30-11-2019 18:30:17 0.4 C 44 %
113 30-11-2019 18:40:17 0.4 C 44 %
114 30-11-2019 18:50:17 0.4 C 44 %
115 30-11-2019 19:00:17 0.2 C 44 %
116 30-11-2019 19:10:17 0 C 44 %
117 30-11-2019 19:20:17 0 C 44 %
118 30-11-2019 19:30:17 0 C 44 %
119 30-11-2019 19:40:17 -0.1 C 44 %
120 30-11-2019 19:50:17 -0.1 C 44 %
121 30-11-2019 20:00:17 -0.2 C 44 %
122 30-11-2019 20:10:18 -0.2 C 44 %
123 30-11-2019 20:20:18 -0.2 C 44 %
124 30-11-2019 20:30:17 -0.2 C 44 %
125 30-11-2019 20:40:17 -0.4 C 44 %
Sensor: Nr:Datum:Temp:Feuchte:
Aussen-T/F 126 30-11-2019 20:50:17 -0.3 C 44 %
127 30-11-2019 21:00:17 -0.2 C 44 %
128 30-11-2019 21:10:17 -0.3 C 44 %
129 30-11-2019 21:20:17 -0.3 C 44 %
130 30-11-2019 21:30:17 -0.4 C 44 %
131 30-11-2019 21:40:17 -0.2 C 44 %
132 30-11-2019 21:50:17 -0.3 C 44 %
133 30-11-2019 22:00:17 -0.3 C 44 %
134 30-11-2019 22:10:17 -0.3 C 44 %
135 30-11-2019 22:20:17 -0.3 C 44 %
136 30-11-2019 22:30:17 -0.1 C 44 %
137 30-11-2019 22:40:17 0 C 44 %
138 30-11-2019 22:50:17 0 C 44 %
139 30-11-2019 23:00:17 0 C 44 %
140 30-11-2019 23:10:17 0 C 44 %
141 30-11-2019 23:20:17 -0.1 C 44 %
142 30-11-2019 23:30:17 -0.4 C 43 %
143 30-11-2019 23:40:17 -0.5 C 43 %
144 30-11-2019 23:50:17 -0.4 C 43 %
145 01-12-2019 00:00:17 -0.2 C 43 %
146 01-12-2019 00:10:17 -0.3 C 43 %
147 01-12-2019 00:20:17 -0.3 C 43 %
148 01-12-2019 00:30:17 -0.3 C 43 %
149 01-12-2019 00:40:17 -0.3 C 43 %
150 01-12-2019 00:50:18 -0.2 C 43 %
Sensor: Nr:Datum:Temp:Feuchte:
Aussen-T/F 151 01-12-2019 01:00:17 0 C 44 %
152 01-12-2019 01:10:17 -0.1 C 43 %
153 01-12-2019 01:20:17 -0.1 C 43 %
154 01-12-2019 01:30:17 -0.1 C 43 %
155 01-12-2019 01:40:17 -0.1 C 43 %
156 01-12-2019 01:50:17 -0.2 C 43 %
157 01-12-2019 02:00:17 -0.1 C 43 %
158 01-12-2019 02:10:17 -0.2 C 43 %
159 01-12-2019 02:20:17 -0.2 C 43 %
160 01-12-2019 02:30:17 -0.2 C 43 %
161 01-12-2019 02:40:17 -0.3 C 43 %
162 01-12-2019 02:50:17 -0.2 C 43 %
163 01-12-2019 03:00:17 -0.3 C 43 %
164 01-12-2019 03:10:17 -0.3 C 43 %
165 01-12-2019 03:20:17 -0.4 C 43 %
166 01-12-2019 03:30:17 -0.4 C 43 %
167 01-12-2019 03:40:17 -0.4 C 43 %
168 01-12-2019 03:50:17 -0.4 C 43 %
169 01-12-2019 04:00:17 -0.4 C 43 %
170 01-12-2019 04:10:17 -0.8 C 42 %
171 01-12-2019 04:20:17 -1.1 C 42 %
172 01-12-2019 04:30:17 -1.3 C 42 %
173 01-12-2019 04:40:17 -0.9 C 43 %
174 01-12-2019 04:50:17 -0.9 C 43 %
175 01-12-2019 05:00:17 -0.7 C 43 %
Sensor: Nr:Datum:Temp:Feuchte:
Aussen-T/F 176 01-12-2019 05:10:17 -0.8 C 43 %
177 01-12-2019 05:20:17 -0.9 C 43 %
178 01-12-2019 05:30:17 -1.1 C 43 %
179 01-12-2019 05:40:17 -1 C 43 %
180 01-12-2019 05:50:17 -0.9 C 43 %
181 01-12-2019 06:00:17 -1 C 43 %
182 01-12-2019 06:10:17 -1.1 C 43 %
183 01-12-2019 06:20:17 -1.3 C 43 %
184 01-12-2019 06:30:17 -1 C 43 %
185 01-12-2019 06:40:17 -0.9 C 43 %
186 01-12-2019 06:50:17 -0.9 C 43 %
187 01-12-2019 07:00:17 -0.8 C 43 %
188 01-12-2019 07:10:17 -0.7 C 43 %
189 01-12-2019 07:20:17 -0.5 C 43 %
190 01-12-2019 07:30:17 -0.5 C 43 %
191 01-12-2019 07:40:17 -0.3 C 43 %
192 01-12-2019 07:50:17 -0.2 C 43 %
193 01-12-2019 08:00:17 -0.1 C 43 %
194 01-12-2019 08:10:17 -0.1 C 43 %
195 01-12-2019 08:20:17 -0.2 C 43 %
196 01-12-2019 08:30:17 -0.2 C 43 %
197 01-12-2019 08:40:17 -0.2 C 43 %
198 01-12-2019 08:50:17 0 C 43 %
199 01-12-2019 09:00:17 0 C 42 %
200 01-12-2019 09:10:17 0.2 C 42 %
Sensor: Nr:Datum:Temp:Feuchte:
Aussen-T/F 201 01-12-2019 09:20:17 0.1 C 42 %
202 01-12-2019 09:30:17 0.1 C 42 %
203 01-12-2019 09:40:17 0.2 C 41 %
204 01-12-2019 09:50:17 0.3 C 41 %
205 01-12-2019 10:00:17 0.5 C 41 %
206 01-12-2019 10:10:17 0.6 C 41 %
207 01-12-2019 10:20:17 0.7 C 40 %
208 01-12-2019 10:30:17 0.8 C 39 %
209 01-12-2019 10:40:17 1 C 38 %
210 01-12-2019 10:50:17 1.1 C 37 %
211 01-12-2019 11:00:17 1.4 C 36 %
212 01-12-2019 11:10:17 1.9 C 34 %
213 01-12-2019 11:20:17 2.1 C 32 %
214 01-12-2019 11:30:17 2.7 C 30 %
215 01-12-2019 11:40:17 3 C 27 %
216 01-12-2019 11:50:17 2.9 C 20 %
217 01-12-2019 12:00:17 3 C 21 %
218 01-12-2019 12:10:17 3.1 C 20 %
219 01-12-2019 12:20:17 3.3 C 20 %
220 01-12-2019 12:30:18 3.3 C 20 %
221 01-12-2019 12:40:18 3.3 C 20 %
222 01-12-2019 12:50:18 3.4 C 20 %
223 01-12-2019 13:00:17 3.3 C 20 %
224 01-12-2019 13:10:17 3.4 C 20 %
225 01-12-2019 13:20:18 3.5 C 20 %
Sensor: Nr:Datum:Temp:Feuchte:
Aussen-T/F 226 01-12-2019 13:30:18 3.5 C 20 %
227 01-12-2019 13:40:18 3.6 C 20 %
228 01-12-2019 13:50:17 3.8 C 20 %
229 01-12-2019 14:00:17 3.9 C 20 %
230 01-12-2019 14:10:18 3.9 C 20 %
231 01-12-2019 14:20:18 3.7 C 20 %
232 01-12-2019 14:30:17 3.7 C 20 %
233 01-12-2019 14:40:17 3.6 C 20 %
234 01-12-2019 14:50:17 3.6 C 20 %
235 01-12-2019 15:00:17 3.5 C 20 %
236 01-12-2019 15:10:17 3.3 C 20 %
237 01-12-2019 15:20:17 3.2 C 21 %
238 01-12-2019 15:30:17 3 C 20 %
239 01-12-2019 15:40:17 3 C 21 %
240 01-12-2019 15:50:17 2.7 C 25 %
241 01-12-2019 16:00:17 2.6 C 25 %
242 01-12-2019 16:10:17 2.5 C 25 %
243 01-12-2019 16:20:17 2.4 C 25 %
244 01-12-2019 16:30:18 2.4 C 25 %
245 01-12-2019 16:40:18 2.2 C 25 %
246 01-12-2019 16:50:18 2.2 C 25 %
247 01-12-2019 17:00:18 2.2 C 25 %
248 01-12-2019 17:10:18 2.2 C 25 %
249 01-12-2019 17:20:17 2.3 C 25 %
250 01-12-2019 17:30:17 2.3 C 25 %
Sensor: Nr:Datum:Temp:Feuchte:
Aussen-T/F 251 01-12-2019 17:40:17 2.3 C 25 %
252 01-12-2019 17:50:17 2.3 C 25 %
253 01-12-2019 18:00:17 2.3 C 25 %
254 01-12-2019 18:10:17 2.3 C 25 %
255 01-12-2019 18:20:17 2.3 C 25 %
256 01-12-2019 18:30:17 2.3 C 25 %
257 01-12-2019 18:40:17 2.3 C 25 %
258 01-12-2019 18:50:17 2.3 C 23 %
259 01-12-2019 19:00:17 2.3 C 23 %
260 01-12-2019 19:10:18 2.4 C 25 %
261 01-12-2019 19:20:17 2.3 C 25 %
262 01-12-2019 19:30:17 2.3 C 25 %
263 01-12-2019 19:40:17 2.3 C 25 %
264 01-12-2019 19:50:17 2.2 C 26 %
265 01-12-2019 20:00:17 2.5 C 25 %
266 01-12-2019 20:10:17 2.2 C 25 %
267 01-12-2019 20:20:17 2.1 C 25 %
268 01-12-2019 20:30:18 2.1 C 25 %
269 01-12-2019 20:40:18 2.1 C 25 %
270 01-12-2019 20:50:17 2 C 27 %
271 01-12-2019 21:00:17 1.9 C 27 %
272 01-12-2019 21:10:17 1.8 C 28 %
273 01-12-2019 21:20:17 1.6 C 30 %
274 01-12-2019 21:30:18 1.5 C 29 %
275 01-12-2019 21:40:18 1.6 C 28 %
Sensor: Nr:Datum:Temp:Feuchte:
Aussen-T/F 276 01-12-2019 21:50:17 1.6 C 28 %
277 01-12-2019 22:00:17 1.5 C 29 %
278 01-12-2019 22:10:17 1.4 C 29 %
279 01-12-2019 22:20:17 1.4 C 30 %
280 01-12-2019 22:30:18 1.3 C 28 %
281 01-12-2019 22:40:18 1.2 C 29 %
282 01-12-2019 22:50:17 1.1 C 29 %
283 01-12-2019 23:00:17 0.8 C 30 %
284 01-12-2019 23:10:17 0.8 C 30 %
285 01-12-2019 23:20:18 0.7 C 30 %
286 01-12-2019 23:30:17 0.5 C 32 %
287 01-12-2019 23:40:17 0.3 C 33 %
288 01-12-2019 23:50:17 0.2 C 33 %
289 02-12-2019 00:00:17 0.1 C 33 %
290 02-12-2019 00:10:17 0.2 C 33 %
291 02-12-2019 00:20:17 0.3 C 32 %
292 02-12-2019 00:30:17 0.3 C 32 %
293 02-12-2019 00:40:17 0.2 C 32 %
294 02-12-2019 00:50:18 0.2 C 35 %
295 02-12-2019 01:00:17 0.1 C 36 %
296 02-12-2019 01:10:17 0 C 38 %
297 02-12-2019 01:20:17 -0.2 C 36 %
298 02-12-2019 01:30:17 0.2 C 34 %
299 02-12-2019 01:40:17 -0.2 C 35 %
300 02-12-2019 01:50:17 -0.9 C 35 %
Sensor: Nr:Datum:Temp:Feuchte:
Aussen-T/F 301 02-12-2019 02:00:18 -0.9 C 37 %
302 02-12-2019 02:10:18 -0.9 C 37 %
303 02-12-2019 02:20:17 -0.5 C 37 %
304 02-12-2019 02:30:17 -1 C 36 %
305 02-12-2019 02:40:17 -1.1 C 37 %
306 02-12-2019 02:50:17 -1.1 C 36 %
307 02-12-2019 03:00:17 -1 C 37 %
308 02-12-2019 03:10:17 -1.2 C 38 %
309 02-12-2019 03:20:17 -1.3 C 37 %
310 02-12-2019 03:30:18 -1.3 C 38 %
311 02-12-2019 03:40:18 -1.4 C 37 %
312 02-12-2019 03:50:17 -1.4 C 37 %
313 02-12-2019 04:00:18 -1.7 C 39 %
314 02-12-2019 04:10:18 -1.4 C 40 %
315 02-12-2019 04:20:17 -1.1 C 40 %
316 02-12-2019 04:30:17 -1 C 40 %
317 02-12-2019 04:40:17 -0.8 C 36 %
318 02-12-2019 04:50:17 -1.1 C 37 %
319 02-12-2019 05:00:17 -1.4 C 40 %
320 02-12-2019 05:10:17 -1.1 C 40 %
321 02-12-2019 05:20:17 -1.2 C 39 %
322 02-12-2019 05:30:17 -1.6 C 40 %
323 02-12-2019 05:40:17 -1.4 C 41 %
324 02-12-2019 05:50:17 -1.3 C 42 %
325 02-12-2019 06:00:17 -1.2 C 41 %
Sensor: Nr:Datum:Temp:Feuchte:
Aussen-T/F 326 02-12-2019 06:10:17 -1.3 C 39 %
327 02-12-2019 06:20:17 -1.2 C 39 %
328 02-12-2019 06:30:17 -1.4 C 38 %
329 02-12-2019 06:40:17 -1.4 C 40 %
330 02-12-2019 06:50:17 -1.8 C 37 %
331 02-12-2019 07:00:17 -2.4 C 38 %
332 02-12-2019 07:10:17 -2.6 C 40 %
333 02-12-2019 07:20:17 -2.9 C 40 %
334 02-12-2019 07:30:17 -2.7 C 42 %
335 02-12-2019 07:40:17 -2.6 C 42 %
336 02-12-2019 07:50:17 -2.4 C 43 %
337 02-12-2019 08:00:17 -1.9 C 45 %
338 02-12-2019 08:10:18 -1.6 C 44 %
339 02-12-2019 08:20:17 -1.3 C 44 %
340 02-12-2019 08:30:17 -1 C 43 %
341 02-12-2019 08:40:17 -0.7 C 43 %
342 02-12-2019 08:50:17 -0.5 C 42 %
343 02-12-2019 09:00:17 -0.5 C 40 %
344 02-12-2019 09:10:17 -0.4 C 38 %
345 02-12-2019 09:20:17 -0.4 C 36 %
346 02-12-2019 09:30:17 -0.4 C 36 %
347 02-12-2019 09:40:17 0 C 36 %
348 02-12-2019 09:50:17 0 C 35 %
349 02-12-2019 10:00:17 0.1 C 35 %
350 02-12-2019 10:10:17 0.1 C 34 %
Sensor: Nr:Datum:Temp:Feuchte:
Aussen-T/F 351 02-12-2019 10:20:17 0.2 C 35 %
352 02-12-2019 10:30:17 0.5 C 36 %
353 02-12-2019 10:40:17 1 C 31 %
354 02-12-2019 10:50:17 0.8 C 31 %
355 02-12-2019 11:00:17 1.2 C 30 %
356 02-12-2019 11:10:17 1.1 C 30 %
357 02-12-2019 11:20:17 1.2 C 30 %
358 02-12-2019 11:30:17 0.9 C 31 %
359 02-12-2019 11:40:18 1 C 31 %
360 02-12-2019 11:50:17 0.8 C 32 %
361 02-12-2019 12:00:18 1.6 C 31 %
362 02-12-2019 12:10:18 2.3 C 27 %
363 02-12-2019 12:20:17 2.8 C 25 %
364 02-12-2019 12:30:17 3.1 C 26 %
365 02-12-2019 12:40:17 3 C 25 %
366 02-12-2019 12:50:18 3.2 C 26 %
367 02-12-2019 13:00:17 3.2 C 26 %
368 02-12-2019 13:10:17 3.5 C 25 %
369 02-12-2019 13:20:17 3.9 C 25 %
370 02-12-2019 13:30:17 3.9 C 25 %
371 02-12-2019 13:40:17 3.8 C 25 %
372 02-12-2019 13:50:17 3.6 C 25 %
373 02-12-2019 14:00:17 4 C 26 %
374 02-12-2019 14:10:17 3.7 C 28 %
375 02-12-2019 14:20:17 3.7 C 30 %
Sensor: Nr:Datum:Temp:Feuchte:
Aussen-T/F 376 02-12-2019 14:30:17 4.1 C 27 %
377 02-12-2019 14:40:17 4.3 C 27 %
378 02-12-2019 14:50:17 4.5 C 27 %
379 02-12-2019 15:00:18 4.3 C 28 %
380 02-12-2019 15:10:18 4.3 C 29 %
381 02-12-2019 15:20:17 4.7 C 27 %
382 02-12-2019 15:30:17 4.4 C 27 %
383 02-12-2019 15:40:17 4.1 C 31 %
384 02-12-2019 15:50:17 3.9 C 36 %
385 02-12-2019 16:00:18 3.7 C 37 %
386 02-12-2019 16:10:18 3.6 C 37 %
387 02-12-2019 16:20:17 3.5 C 40 %
388 02-12-2019 16:30:17 3.5 C 38 %
389 02-12-2019 16:40:17 3.5 C 35 %
390 02-12-2019 16:50:17 3.5 C 35 %
391 02-12-2019 17:00:17 3.3 C 36 %
392 02-12-2019 17:10:17 3.2 C 39 %
393 02-12-2019 17:20:17 3.2 C 36 %
394 02-12-2019 17:30:18 3.3 C 36 %
395 02-12-2019 17:40:18 3.4 C 35 %
396 02-12-2019 17:50:17 3.3 C 35 %
397 02-12-2019 18:01:17 3.1 C 36 %
398 02-12-2019 18:11:17 3.2 C 37 %
399 02-12-2019 18:21:17 3.2 C 36 %
400 02-12-2019 18:30:17 3 C 36 %
Sensor: Nr:Datum:Temp:Feuchte:
Aussen-T/F 401 02-12-2019 18:40:17 2.5 C 40 %
402 02-12-2019 18:50:17 2.2 C 40 %
403 02-12-2019 19:00:17 2.1 C 42 %
404 02-12-2019 19:10:17 2.7 C 43 %
405 02-12-2019 19:21:17 2.7 C 42 %
406 02-12-2019 19:30:17 2.7 C 41 %
407 02-12-2019 19:40:17 2.9 C 42 %
408 02-12-2019 19:51:17 2.9 C 42 %
409 02-12-2019 20:01:17 2.9 C 39 %
410 02-12-2019 20:11:17 2.8 C 38 %
411 02-12-2019 20:21:17 2.9 C 37 %
412 02-12-2019 20:31:17 2.9 C 38 %
413 02-12-2019 20:40:17 2.8 C 40 %
414 02-12-2019 20:51:17 2.7 C 42 %
415 02-12-2019 21:00:17 2.7 C 42 %
416 02-12-2019 21:10:17 2.7 C 42 %
417 02-12-2019 21:21:17 2.7 C 42 %
418 02-12-2019 21:30:18 2.7 C 42 %
419 02-12-2019 21:40:18 2.6 C 41 %
420 02-12-2019 21:51:17 2.6 C 42 %
421 02-12-2019 22:01:17 2.6 C 41 %
422 02-12-2019 22:11:17 2.6 C 41 %
423 02-12-2019 22:21:17 2.6 C 41 %
424 02-12-2019 22:30:18 2.5 C 40 %
425 02-12-2019 22:40:18 2.5 C 41 %
Sensor: Nr:Datum:Temp:Feuchte:
Aussen-T/F 426 02-12-2019 22:51:17 2.4 C 41 %
427 02-12-2019 23:01:17 2.5 C 41 %
428 02-12-2019 23:11:17 2.4 C 42 %
429 02-12-2019 23:21:17 2.5 C 42 %
430 02-12-2019 23:31:17 2.5 C 42 %
431 02-12-2019 23:41:17 2.5 C 42 %
432 02-12-2019 23:50:18 2.5 C 42 %
433 03-12-2019 00:01:17 2.5 C 42 %
434 03-12-2019 00:11:17 2.5 C 42 %
435 03-12-2019 00:21:17 2.5 C 41 %
436 03-12-2019 00:30:18 2.5 C 41 %
437 03-12-2019 00:40:18 2.6 C 41 %
438 03-12-2019 00:51:17 2.6 C 41 %
439 03-12-2019 01:01:18 2.6 C 41 %
440 03-12-2019 01:11:18 2.6 C 41 %
441 03-12-2019 01:21:17 2.7 C 41 %
442 03-12-2019 01:31:17 2.7 C 41 %
443 03-12-2019 01:41:17 2.7 C 42 %
444 03-12-2019 01:51:17 2.7 C 42 %
445 03-12-2019 02:01:17 2.7 C 42 %
446 03-12-2019 02:11:17 2.8 C 42 %
447 03-12-2019 02:21:17 2.8 C 42 %
448 03-12-2019 02:31:17 2.8 C 42 %
449 03-12-2019 02:41:17 2.9 C 42 %
450 03-12-2019 02:51:17 2.8 C 42 %
Sensor: Nr:Datum:Temp:Feuchte:
Aussen-T/F 451 03-12-2019 03:01:17 2.8 C 42 %
452 03-12-2019 03:11:17 2.8 C 42 %
453 03-12-2019 03:21:17 2.8 C 42 %
454 03-12-2019 03:31:17 2.9 C 42 %
455 03-12-2019 03:41:17 3 C 42 %
456 03-12-2019 03:51:17 3 C 42 %
457 03-12-2019 04:01:17 3 C 42 %
458 03-12-2019 04:11:17 3 C 42 %
459 03-12-2019 04:21:17 3 C 42 %
460 03-12-2019 04:31:17 3.1 C 42 %
461 03-12-2019 04:41:17 3.1 C 42 %
462 03-12-2019 04:51:17 3.1 C 42 %
463 03-12-2019 05:01:17 3.1 C 42 %
464 03-12-2019 05:11:17 3.1 C 42 %
465 03-12-2019 05:21:17 3.1 C 42 %
466 03-12-2019 05:31:17 3.2 C 42 %
467 03-12-2019 05:41:17 3.2 C 41 %
468 03-12-2019 05:51:17 3.2 C 41 %
469 03-12-2019 06:01:18 3.2 C 41 %
470 03-12-2019 06:11:18 3.2 C 41 %
471 03-12-2019 06:21:17 3.2 C 41 %
472 03-12-2019 06:31:17 3.3 C 41 %
473 03-12-2019 06:41:17 3.3 C 41 %
474 03-12-2019 06:51:18 3.3 C 41 %
475 03-12-2019 07:01:17 3.3 C 41 %
Sensor: Nr:Datum:Temp:Feuchte:
Aussen-T/F 476 03-12-2019 07:11:17 3.3 C 41 %
477 03-12-2019 07:21:17 3.3 C 41 %
478 03-12-2019 07:31:17 3.2 C 41 %
479 03-12-2019 07:41:17 3.3 C 41 %
480 03-12-2019 07:51:17 3.3 C 42 %
481 03-12-2019 08:01:17 3.3 C 42 %
482 03-12-2019 08:11:17 3.4 C 42 %
483 03-12-2019 08:21:17 3.3 C 42 %
484 03-12-2019 08:31:17 3.4 C 42 %
485 03-12-2019 08:41:17 3.4 C 41 %
486 03-12-2019 08:51:17 3.4 C 41 %
487 03-12-2019 09:01:17 3.5 C 42 %
488 03-12-2019 09:11:17 3.5 C 42 %
489 03-12-2019 09:21:17 3.5 C 41 %
490 03-12-2019 09:31:17 3.6 C 41 %
491 03-12-2019 09:41:17 3.6 C 41 %
492 03-12-2019 09:51:17 3.7 C 41 %
493 03-12-2019 10:01:17 3.7 C 41 %
494 03-12-2019 10:11:17 3.8 C 41 %
495 03-12-2019 10:21:17 3.8 C 41 %
496 03-12-2019 10:31:17 3.8 C 41 %
497 03-12-2019 10:41:17 4.1 C 40 %
498 03-12-2019 10:51:17 4.1 C 40 %
499 03-12-2019 11:01:18 4.3 C 39 %
500 03-12-2019 11:11:18 4.3 C 37 %
Sensor: Nr:Datum:Temp:Feuchte:
Aussen-T/F 501 03-12-2019 11:21:17 4.4 C 37 %
502 03-12-2019 11:31:17 4.6 C 37 %
503 03-12-2019 11:41:17 4.6 C 37 %
504 03-12-2019 11:51:17 4.7 C 37 %
505 03-12-2019 12:01:17 4.7 C 37 %
506 03-12-2019 12:11:17 4.9 C 35 %
507 03-12-2019 12:21:17 5 C 34 %
508 03-12-2019 12:31:17 5 C 35 %
509 03-12-2019 12:41:17 5.2 C 35 %
510 03-12-2019 12:51:18 5.3 C 34 %
511 03-12-2019 13:01:17 5.6 C 34 %
512 03-12-2019 13:11:17 5.8 C 33 %
513 03-12-2019 13:21:17 5.8 C 32 %
514 03-12-2019 13:31:17 5.7 C 32 %
515 03-12-2019 13:41:17 5.9 C 32 %
516 03-12-2019 13:51:18 6.1 C 31 %
517 03-12-2019 14:01:17 6.1 C 31 %
518 03-12-2019 14:11:17 6.2 C 31 %
519 03-12-2019 14:21:17 6.1 C 31 %
520 03-12-2019 14:31:17 6.3 C 31 %
521 03-12-2019 14:41:17 6.2 C 30 %
522 03-12-2019 14:51:18 6.4 C 31 %
523 03-12-2019 15:01:17 6.2 C 30 %
524 03-12-2019 15:11:17 6.3 C 31 %
525 03-12-2019 15:21:17 6.3 C 31 %
Sensor: Nr:Datum:Temp:Feuchte:
Aussen-T/F 526 03-12-2019 15:31:17 6.2 C 31 %
527 03-12-2019 15:41:17 6.1 C 32 %
528 03-12-2019 15:51:17 6 C 33 %
529 03-12-2019 16:01:17 5.7 C 36 %
530 03-12-2019 16:11:17 5.6 C 39 %
531 03-12-2019 16:21:17 5.4 C 40 %
532 03-12-2019 16:31:18 5.3 C 41 %
533 03-12-2019 16:41:18 5.2 C 41 %
534 03-12-2019 16:51:17 5.2 C 41 %
535 03-12-2019 17:01:18 5.1 C 41 %
536 03-12-2019 17:11:18 5.1 C 41 %
537 03-12-2019 17:21:17 5.1 C 41 %
538 03-12-2019 17:31:17 5 C 41 %
539 03-12-2019 17:41:17 5 C 41 %
540 03-12-2019 17:51:17 5 C 41 %
541 03-12-2019 18:01:18 4.8 C 41 %
542 03-12-2019 18:11:18 4.7 C 40 %
543 03-12-2019 18:21:17 4.7 C 40 %
544 03-12-2019 18:31:18 4.7 C 40 %
545 03-12-2019 18:41:18 4.7 C 40 %
546 03-12-2019 18:51:17 4.7 C 40 %
547 03-12-2019 19:01:17 4.7 C 40 %
548 03-12-2019 19:11:17 4.6 C 39 %
549 03-12-2019 19:21:17 4.6 C 38 %
550 03-12-2019 19:31:17 4.6 C 38 %
Sensor: Nr:Datum:Temp:Feuchte:
Aussen-T/F 551 03-12-2019 19:41:17 4.4 C 37 %
552 03-12-2019 19:51:17 4.3 C 38 %
553 03-12-2019 20:01:17 4.3 C 39 %
554 03-12-2019 20:11:17 4.3 C 38 %
555 03-12-2019 20:21:18 4.2 C 37 %
556 03-12-2019 20:31:17 4.2 C 38 %
557 03-12-2019 20:41:18 4.1 C 39 %
558 03-12-2019 20:51:17 3.9 C 40 %
559 03-12-2019 21:01:17 3.9 C 41 %
560 03-12-2019 21:11:17 4 C 40 %
561 03-12-2019 21:21:17 4 C 40 %
562 03-12-2019 21:31:17 3.8 C 40 %
563 03-12-2019 21:41:17 3.5 C 40 %
564 03-12-2019 21:51:17 3.3 C 40 %
565 03-12-2019 22:01:17 2.9 C 41 %
566 03-12-2019 22:11:17 2.8 C 42 %
567 03-12-2019 22:21:18 2.8 C 42 %
568 03-12-2019 22:31:18 3.3 C 42 %
569 03-12-2019 22:41:18 3.5 C 40 %
570 03-12-2019 22:51:17 3.2 C 38 %
571 03-12-2019 23:01:18 2.6 C 39 %
572 03-12-2019 23:11:18 2.5 C 41 %
573 03-12-2019 23:21:17 2.5 C 41 %
574 03-12-2019 23:31:17 2.2 C 40 %
575 03-12-2019 23:41:17 2.8 C 40 %
Sensor: Nr:Datum:Temp:Feuchte:
Aussen-T/F 576 03-12-2019 23:51:17 2.6 C 38 %
577 04-12-2019 00:01:18 2.3 C 39 %
578 04-12-2019 00:11:18 1.7 C 41 %
579 04-12-2019 00:21:17 1.3 C 42 %
580 04-12-2019 00:31:17 0.9 C 43 %
581 04-12-2019 00:41:17 0.4 C 43 %
582 04-12-2019 00:51:17 0.6 C 45 %
583 04-12-2019 01:01:18 0.2 C 44 %
584 04-12-2019 01:11:18 0.2 C 45 %
585 04-12-2019 01:21:17 0 C 44 %
586 04-12-2019 01:31:17 -0.1 C 45 %
587 04-12-2019 01:41:17 0.1 C 45 %
588 04-12-2019 01:51:18 -0.3 C 45 %
589 04-12-2019 02:01:17 -0.3 C 45 %
590 04-12-2019 02:11:17 -0.2 C 45 %
591 04-12-2019 02:21:17 -0.5 C 45 %
592 04-12-2019 02:31:18 -0.4 C 45 %
593 04-12-2019 02:41:18 0.1 C 45 %
594 04-12-2019 02:51:17 0.3 C 45 %
595 04-12-2019 03:01:18 0.6 C 45 %
596 04-12-2019 03:11:18 0.9 C 45 %
597 04-12-2019 03:21:17 0.9 C 45 %
598 04-12-2019 03:31:17 1 C 44 %
599 04-12-2019 03:41:17 1 C 44 %
600 04-12-2019 03:51:17 1 C 44 %
Sensor: Nr:Datum:Temp:Feuchte:
Aussen-T/F 601 04-12-2019 04:01:18 0.8 C 45 %
602 04-12-2019 04:11:18 0.9 C 45 %
603 04-12-2019 04:21:17 0.8 C 45 %
604 04-12-2019 04:31:17 0.8 C 45 %
605 04-12-2019 04:41:17 0.8 C 45 %
606 04-12-2019 04:51:17 0.8 C 45 %
607 04-12-2019 05:01:17 0.8 C 45 %
608 04-12-2019 05:11:17 0.8 C 44 %
609 04-12-2019 05:21:17 0.8 C 44 %
610 04-12-2019 05:31:17 1 C 43 %
611 04-12-2019 05:41:17 1 C 43 %
612 04-12-2019 05:51:18 1 C 43 %
613 04-12-2019 06:01:17 1 C 43 %
614 04-12-2019 06:11:17 1.1 C 43 %
615 04-12-2019 06:21:17 1.2 C 43 %
616 04-12-2019 06:31:17 1.2 C 43 %
617 04-12-2019 06:41:18 1.2 C 43 %
618 04-12-2019 06:51:17 1.2 C 43 %
619 04-12-2019 07:01:17 1.1 C 43 %
620 04-12-2019 07:11:17 1.1 C 43 %
621 04-12-2019 07:21:18 1.1 C 43 %
622 04-12-2019 07:31:17 1 C 43 %
623 04-12-2019 07:41:17 0.9 C 44 %
624 04-12-2019 07:51:17 1 C 43 %
625 04-12-2019 08:01:17 0.9 C 44 %
Sensor: Nr:Datum:Temp:Feuchte:
Aussen-T/F 626 04-12-2019 08:11:17 0.9 C 44 %
627 04-12-2019 08:21:17 0.9 C 44 %
628 04-12-2019 08:31:17 0.9 C 44 %
629 04-12-2019 08:41:17 1 C 42 %
630 04-12-2019 08:51:17 1 C 42 %
631 04-12-2019 09:01:18 1 C 42 %
632 04-12-2019 09:11:18 1.2 C 42 %
633 04-12-2019 09:21:18 1.2 C 42 %
634 04-12-2019 09:31:17 1.2 C 41 %
635 04-12-2019 09:41:17 1.2 C 41 %
636 04-12-2019 09:51:17 1.4 C 41 %
637 04-12-2019 10:01:17 1.5 C 41 %
638 04-12-2019 10:11:18 1.4 C 39 %
639 04-12-2019 10:21:17 1.3 C 38 %
640 04-12-2019 10:31:17 1.1 C 37 %
641 04-12-2019 10:41:17 1.1 C 37 %
642 04-12-2019 10:51:18 1 C 38 %
643 04-12-2019 11:01:17 1 C 38 %
644 04-12-2019 11:11:17 1.1 C 39 %
645 04-12-2019 11:21:17 1.1 C 39 %
646 04-12-2019 11:31:18 1.1 C 40 %
647 04-12-2019 11:41:18 1 C 40 %
648 04-12-2019 11:51:17 1.1 C 41 %
649 04-12-2019 12:01:17 1.2 C 41 %
650 04-12-2019 12:11:17 1.3 C 41 %
Sensor: Nr:Datum:Temp:Feuchte:
Aussen-T/F 651 04-12-2019 12:21:18 1.3 C 41 %
652 04-12-2019 12:31:17 1.5 C 41 %
653 04-12-2019 12:41:17 1.5 C 41 %
654 04-12-2019 12:51:17 1.6 C 41 %
655 04-12-2019 13:01:17 1.6 C 41 %
656 04-12-2019 13:11:17 1.7 C 41 %
657 04-12-2019 13:21:17 1.8 C 40 %
658 04-12-2019 13:31:18 1.8 C 40 %
659 04-12-2019 13:41:18 2.1 C 38 %
660 04-12-2019 13:51:17 2.1 C 37 %
661 04-12-2019 14:01:17 2.1 C 37 %
662 04-12-2019 14:11:17 2.1 C 36 %
663 04-12-2019 14:21:17 2.1 C 36 %
664 04-12-2019 14:31:18 2 C 36 %
665 04-12-2019 14:41:18 2.2 C 35 %
666 04-12-2019 14:51:17 2.1 C 36 %
667 04-12-2019 15:01:18 2 C 37 %
668 04-12-2019 15:11:18 1.7 C 38 %
669 04-12-2019 15:21:17 1.7 C 40 %
670 04-12-2019 15:31:17 1.7 C 40 %
671 04-12-2019 15:41:17 1.8 C 39 %
672 04-12-2019 15:51:18 1.8 C 39 %
673 04-12-2019 16:01:17 1.6 C 37 %
674 04-12-2019 16:11:17 1.5 C 37 %
675 04-12-2019 16:21:17 1.4 C 37 %
Sensor: Nr:Datum:Temp:Feuchte:
Aussen-T/F 676 04-12-2019 16:31:17 1.4 C 37 %
677 04-12-2019 16:41:17 1.2 C 37 %
678 04-12-2019 16:51:17 1.1 C 36 %
679 04-12-2019 17:01:17 1 C 37 %
680 04-12-2019 17:11:17 1 C 37 %
681 04-12-2019 17:21:18 1 C 36 %
682 04-12-2019 17:31:17 0.9 C 38 %
683 04-12-2019 17:41:17 0.6 C 38 %
684 04-12-2019 17:51:18 0.7 C 39 %
685 04-12-2019 18:01:17 0.8 C 38 %
686 04-12-2019 18:11:17 0.3 C 39 %
687 04-12-2019 18:21:17 0.4 C 40 %
688 04-12-2019 18:31:17 0.6 C 40 %
689 04-12-2019 18:41:17 -0.2 C 40 %
690 04-12-2019 18:51:17 -0.5 C 41 %
691 04-12-2019 19:01:17 -0.3 C 44 %
692 04-12-2019 19:11:17 -0.7 C 42 %
693 04-12-2019 19:21:17 -1.1 C 42 %
694 04-12-2019 19:31:17 -1 C 44 %
695 04-12-2019 19:41:17 -1.2 C 44 %
696 04-12-2019 19:51:17 -1.4 C 43 %
697 04-12-2019 20:01:17 -1.3 C 44 %
698 04-12-2019 20:11:17 -1.1 C 45 %
699 04-12-2019 20:21:17 -1.5 C 44 %
700 04-12-2019 20:31:17 -1.5 C 44 %
Sensor: Nr:Datum:Temp:Feuchte:
Aussen-T/F 701 04-12-2019 20:41:17 -1.8 C 43 %
702 04-12-2019 20:51:18 -1.9 C 44 %
703 04-12-2019 21:01:18 -1.9 C 44 %
704 04-12-2019 21:11:18 -1.7 C 44 %
705 04-12-2019 21:21:17 -2 C 43 %
706 04-12-2019 21:31:17 -2 C 43 %
707 04-12-2019 21:41:17 -2.4 C 43 %
708 04-12-2019 21:51:17 -2.4 C 43 %
709 04-12-2019 22:01:17 -2.5 C 43 %
710 04-12-2019 22:11:17 -2.6 C 43 %
711 04-12-2019 22:21:17 -2.7 C 44 %
712 04-12-2019 22:31:18 -2.8 C 43 %
713 04-12-2019 22:41:18 -2.7 C 43 %
714 04-12-2019 22:51:17 -2.5 C 43 %
715 04-12-2019 23:01:17 -2.6 C 42 %
716 04-12-2019 23:11:17 -2.9 C 42 %
717 04-12-2019 23:21:17 -2.7 C 42 %
718 04-12-2019 23:31:17 -2.7 C 42 %
719 04-12-2019 23:41:17 -2.9 C 41 %
720 04-12-2019 23:51:18 -2.9 C 42 %
721 05-12-2019 00:01:17 -3 C 41 %
722 05-12-2019 00:11:17 -3 C 41 %
723 05-12-2019 00:21:17 -3.1 C 41 %
724 05-12-2019 00:31:18 -2.8 C 41 %
725 05-12-2019 00:41:18 -2.8 C 41 %
Sensor: Nr:Datum:Temp:Feuchte:
Aussen-T/F 726 05-12-2019 00:51:17 -2.9 C 41 %
727 05-12-2019 01:01:17 -2.9 C 41 %
728 05-12-2019 01:11:17 -3.2 C 41 %
729 05-12-2019 01:21:17 -2.5 C 43 %
730 05-12-2019 01:31:18 -2.6 C 43 %
731 05-12-2019 01:41:18 -2.7 C 43 %
732 05-12-2019 01:51:17 -2.6 C 43 %
733 05-12-2019 02:01:17 -2.6 C 42 %
734 05-12-2019 02:11:18 -2.8 C 41 %
735 05-12-2019 02:21:17 -3 C 41 %
736 05-12-2019 02:31:17 -3.2 C 41 %
737 05-12-2019 02:41:17 -3.2 C 41 %
738 05-12-2019 02:51:17 -3.2 C 41 %
739 05-12-2019 03:01:17 -3.4 C 40 %
740 05-12-2019 03:11:17 -3.5 C 40 %
741 05-12-2019 03:21:17 -3.3 C 41 %
742 05-12-2019 03:31:17 -3.2 C 41 %
743 05-12-2019 03:41:17 -3.6 C 40 %
744 05-12-2019 03:51:17 -3 C 43 %
745 05-12-2019 04:01:17 -2.7 C 43 %
746 05-12-2019 04:11:17 -2.7 C 43 %
747 05-12-2019 04:21:17 -2.7 C 43 %
748 05-12-2019 04:31:18 -2.9 C 42 %
749 05-12-2019 04:41:18 -3.3 C 40 %
750 05-12-2019 04:51:17 -2.9 C 42 %
Sensor: Nr:Datum:Temp:Feuchte:
Aussen-T/F 751 05-12-2019 05:01:17 -2.8 C 43 %
752 05-12-2019 05:11:17 -2.8 C 42 %
753 05-12-2019 05:21:17 -2.7 C 43 %
754 05-12-2019 05:31:17 -2.7 C 43 %
755 05-12-2019 05:41:18 -2.5 C 43 %
756 05-12-2019 05:51:17 -2.5 C 43 %
757 05-12-2019 06:01:17 -2.6 C 43 %
758 05-12-2019 06:11:17 -2.7 C 43 %
759 05-12-2019 06:21:17 -2.9 C 43 %
760 05-12-2019 06:31:17 -2.9 C 43 %
761 05-12-2019 06:41:17 -3 C 42 %
762 05-12-2019 06:51:17 -2.9 C 43 %
763 05-12-2019 07:01:17 -2.9 C 42 %
764 05-12-2019 07:11:17 -2.9 C 42 %
765 05-12-2019 07:21:17 -3.2 C 42 %
766 05-12-2019 07:31:17 -3.1 C 42 %
767 05-12-2019 07:41:18 -2.9 C 42 %
768 05-12-2019 07:51:17 -2.9 C 42 %
769 05-12-2019 08:01:17 -3 C 42 %
770 05-12-2019 08:11:17 -2.8 C 43 %
771 05-12-2019 08:21:18 -2.9 C 42 %
772 05-12-2019 08:31:17 -2.8 C 42 %
773 05-12-2019 08:41:17 -3 C 42 %
774 05-12-2019 08:51:17 -3 C 42 %
775 05-12-2019 09:01:18 -2.7 C 43 %
Sensor: Nr:Datum:Temp:Feuchte:
Aussen-T/F 776 05-12-2019 09:11:18 -2.6 C 43 %
777 05-12-2019 09:21:17 -2.6 C 42 %
778 05-12-2019 09:31:17 -2.6 C 42 %
779 05-12-2019 09:41:17 -2.5 C 43 %
780 05-12-2019 09:51:17 -2.4 C 42 %
781 05-12-2019 10:01:18 -2.3 C 42 %
782 05-12-2019 10:11:18 -2.4 C 42 %
783 05-12-2019 10:21:17 -2.1 C 43 %
784 05-12-2019 10:31:17 -1.7 C 43 %
785 05-12-2019 10:41:17 -2 C 42 %
786 05-12-2019 10:51:18 -1.7 C 42 %
787 05-12-2019 11:01:17 -1.7 C 43 %
788 05-12-2019 11:11:17 -1.4 C 42 %
789 05-12-2019 11:21:17 -1.2 C 41 %
790 05-12-2019 11:31:18 -1.2 C 41 %
791 05-12-2019 11:41:18 -0.7 C 42 %
792 05-12-2019 11:51:17 -0.9 C 42 %
793 05-12-2019 12:01:18 -1 C 41 %
794 05-12-2019 12:11:18 -0.8 C 41 %
795 05-12-2019 12:21:17 -0.6 C 41 %
796 05-12-2019 12:31:17 -0.8 C 40 %
797 05-12-2019 12:41:17 -0.9 C 40 %
798 05-12-2019 12:51:18 -0.6 C 41 %
799 05-12-2019 13:01:17 -0.5 C 40 %
800 05-12-2019 13:11:17 -0.6 C 40 %
Sensor: Nr:Datum:Temp:Feuchte:
Aussen-T/F 801 05-12-2019 13:21:17 -0.4 C 41 %
802 05-12-2019 13:31:17 -0.4 C 41 %
803 05-12-2019 13:41:17 -0.2 C 41 %
804 05-12-2019 13:51:17 0.1 C 40 %
805 05-12-2019 14:01:18 0.1 C 40 %
806 05-12-2019 14:11:18 0.2 C 40 %
807 05-12-2019 14:21:17 0.2 C 40 %
808 05-12-2019 14:31:17 0.2 C 40 %
809 05-12-2019 14:41:17 0.2 C 40 %
810 05-12-2019 14:51:17 0.2 C 41 %
811 05-12-2019 15:01:17 0.1 C 41 %
812 05-12-2019 15:11:17 0 C 41 %
813 05-12-2019 15:21:17 -0.1 C 42 %
814 05-12-2019 15:31:17 -0.1 C 43 %
815 05-12-2019 15:41:17 -0.1 C 44 %
816 05-12-2019 15:51:18 -0.1 C 44 %
817 05-12-2019 16:01:17 -0.4 C 44 %
818 05-12-2019 16:11:17 -0.5 C 44 %
819 05-12-2019 16:21:17 -0.7 C 45 %
820 05-12-2019 16:31:18 -0.8 C 44 %
821 05-12-2019 16:41:18 -1 C 44 %
822 05-12-2019 16:51:17 -1 C 44 %
823 05-12-2019 17:01:17 -1.2 C 44 %
824 05-12-2019 17:11:17 -1.1 C 45 %
825 05-12-2019 17:21:18 -1.2 C 45 %
Sensor: Nr:Datum:Temp:Feuchte:
Aussen-T/F 826 05-12-2019 17:31:17 -1.3 C 44 %
827 05-12-2019 17:41:17 -1.7 C 44 %
828 05-12-2019 17:51:17 -1.6 C 44 %
829 05-12-2019 18:01:18 -1.8 C 43 %
830 05-12-2019 18:11:18 -2 C 43 %
831 05-12-2019 18:21:17 -2 C 43 %
832 05-12-2019 18:31:17 -2 C 43 %
833 05-12-2019 18:41:17 -2.2 C 43 %
834 05-12-2019 18:51:18 -2.5 C 42 %
835 05-12-2019 19:01:17 -2.1 C 43 %
836 05-12-2019 19:11:17 -2.1 C 44 %
837 05-12-2019 19:21:17 -2.6 C 42 %
838 05-12-2019 19:31:17 -2.9 C 41 %
839 05-12-2019 19:41:17 -2.6 C 42 %
840 05-12-2019 19:51:18 -1.9 C 43 %
841 05-12-2019 20:01:17 -1.5 C 44 %
842 05-12-2019 20:11:17 -1.6 C 43 %
843 05-12-2019 20:21:17 -1.5 C 43 %
844 05-12-2019 20:31:17 -1.9 C 42 %
845 05-12-2019 20:41:17 -2 C 42 %
846 05-12-2019 20:51:18 -2.1 C 42 %
847 05-12-2019 21:01:17 -2.3 C 42 %
848 05-12-2019 21:11:17 -2.6 C 42 %
849 05-12-2019 21:21:17 -2.1 C 43 %
850 05-12-2019 21:31:17 -2 C 43 %
Sensor: Nr:Datum:Temp:Feuchte:
Aussen-T/F 851 05-12-2019 21:41:17 -2 C 43 %
852 05-12-2019 21:51:17 -2 C 43 %
853 05-12-2019 22:01:17 -2.3 C 42 %
854 05-12-2019 22:11:17 -2.3 C 42 %
855 05-12-2019 22:21:18 -2.2 C 42 %
856 05-12-2019 22:31:17 -2.4 C 42 %
857 05-12-2019 22:41:17 -2.4 C 42 %
858 05-12-2019 22:51:17 -2.3 C 42 %
859 05-12-2019 23:01:17 -2.6 C 41 %
860 05-12-2019 23:11:17 -2.7 C 41 %
861 05-12-2019 23:21:18 -2.7 C 42 %
862 05-12-2019 23:31:17 -3.1 C 41 %
863 05-12-2019 23:41:17 -3.3 C 41 %
864 05-12-2019 23:51:17 -3.2 C 42 %
865 06-12-2019 00:01:18 -2.9 C 42 %
866 06-12-2019 00:11:18 -3.4 C 40 %
867 06-12-2019 00:21:17 -3.8 C 40 %
868 06-12-2019 00:31:17 -3.4 C 42 %
869 06-12-2019 00:41:17 -3.2 C 42 %
870 06-12-2019 00:51:17 -2.7 C 43 %
871 06-12-2019 01:01:17 -2.4 C 43 %
872 06-12-2019 01:11:17 -2.1 C 43 %
873 06-12-2019 01:21:17 -2 C 41 %
874 06-12-2019 01:31:18 -1.8 C 42 %
875 06-12-2019 01:41:18 -1.6 C 43 %
Sensor: Nr:Datum:Temp:Feuchte:
Aussen-T/F 876 06-12-2019 01:51:17 -1.6 C 43 %
877 06-12-2019 02:01:17 -1.4 C 42 %
878 06-12-2019 02:11:17 -1.4 C 40 %
879 06-12-2019 02:21:17 -1.6 C 40 %
880 06-12-2019 02:31:17 -1.5 C 40 %
881 06-12-2019 02:41:17 -1.7 C 39 %
882 06-12-2019 02:51:17 -1.6 C 40 %
883 06-12-2019 03:01:18 -1.4 C 39 %
884 06-12-2019 03:11:18 -1.2 C 39 %
885 06-12-2019 03:21:17 -1 C 38 %
886 06-12-2019 03:31:17 -1 C 37 %
887 06-12-2019 03:41:17 -1 C 38 %
888 06-12-2019 03:51:17 -1.1 C 37 %
889 06-12-2019 04:01:17 -1.2 C 38 %
890 06-12-2019 04:11:17 -1.3 C 37 %
891 06-12-2019 04:21:17 -1.3 C 38 %
892 06-12-2019 04:31:17 -1.1 C 38 %
893 06-12-2019 04:41:17 -1.1 C 38 %
894 06-12-2019 04:51:17 -0.8 C 38 %
895 06-12-2019 05:01:17 -1 C 38 %
896 06-12-2019 05:11:17 -0.8 C 37 %
897 06-12-2019 05:21:17 -0.9 C 36 %
898 06-12-2019 05:31:18 -1 C 37 %
899 06-12-2019 05:41:18 -0.8 C 38 %
900 06-12-2019 05:51:17 -0.6 C 36 %
Sensor: Nr:Datum:Temp:Feuchte:
Aussen-T/F 901 06-12-2019 06:01:17 -0.6 C 35 %
902 06-12-2019 06:11:17 -0.6 C 36 %
903 06-12-2019 06:21:17 -0.5 C 36 %
904 06-12-2019 06:31:17 -0.5 C 35 %
905 06-12-2019 06:41:17 -0.4 C 36 %
906 06-12-2019 06:51:18 -0.4 C 37 %
907 06-12-2019 07:01:17 -0.4 C 38 %
908 06-12-2019 07:11:17 -0.4 C 38 %
909 06-12-2019 07:21:17 -0.1 C 37 %
910 06-12-2019 07:31:17 0 C 36 %
911 06-12-2019 07:41:17 0.2 C 34 %
912 06-12-2019 07:51:18 0.4 C 32 %
913 06-12-2019 08:01:17 0.4 C 32 %
914 06-12-2019 08:11:17 0.4 C 32 %
915 06-12-2019 08:21:17 0.4 C 35 %
916 06-12-2019 08:31:17 0.6 C 32 %
917 06-12-2019 08:41:17 0.5 C 35 %
918 06-12-2019 08:51:18 0.5 C 35 %
919 06-12-2019 09:01:17 0.6 C 36 %
920 06-12-2019 09:11:17 0.8 C 36 %
921 06-12-2019 09:21:17 1.2 C 33 %
922 06-12-2019 09:31:17 1.4 C 33 %
923 06-12-2019 09:41:17 1.5 C 33 %
924 06-12-2019 09:51:17 1.7 C 34 %
925 06-12-2019 10:01:17 1.8 C 33 %
Sensor: Nr:Datum:Temp:Feuchte:
Aussen-T/F 926 06-12-2019 10:11:17 1.8 C 35 %
927 06-12-2019 10:21:18 1.9 C 36 %
928 06-12-2019 10:31:17 1.9 C 36 %
929 06-12-2019 10:41:17 2.4 C 35 %
930 06-12-2019 10:51:17 2.5 C 35 %
931 06-12-2019 11:01:18 2.7 C 35 %
932 06-12-2019 11:11:18 3.2 C 32 %
933 06-12-2019 11:21:17 3.3 C 32 %
934 06-12-2019 11:31:17 3.5 C 32 %
935 06-12-2019 11:41:17 3.5 C 32 %
936 06-12-2019 11:51:17 3.5 C 33 %
937 06-12-2019 12:01:17 3.6 C 33 %
938 06-12-2019 12:11:17 3.6 C 33 %
939 06-12-2019 12:21:17 3.6 C 35 %
940 06-12-2019 12:31:18 3.7 C 37 %
941 06-12-2019 12:41:18 3.7 C 39 %
942 06-12-2019 12:51:17 3.7 C 40 %
943 06-12-2019 13:01:17 3.8 C 39 %
944 06-12-2019 13:11:17 3.9 C 38 %
945 06-12-2019 13:21:17 4 C 36 %
946 06-12-2019 13:31:18 4.2 C 35 %
947 06-12-2019 13:41:18 4.2 C 35 %
948 06-12-2019 13:51:17 4.1 C 36 %
949 06-12-2019 14:01:17 4.1 C 39 %
950 06-12-2019 14:11:17 4.2 C 40 %
Sensor: Nr:Datum:Temp:Feuchte:
Aussen-T/F 951 06-12-2019 14:21:17 4.2 C 38 %
952 06-12-2019 14:31:18 4.2 C 38 %
953 06-12-2019 14:41:18 4.4 C 38 %
954 06-12-2019 14:51:17 4.4 C 39 %
955 06-12-2019 15:01:17 4.3 C 38 %
956 06-12-2019 15:11:17 4.4 C 38 %
957 06-12-2019 15:21:17 4.7 C 36 %
958 06-12-2019 15:31:17 4.5 C 37 %
959 06-12-2019 15:41:17 4.5 C 37 %
960 06-12-2019 15:51:18 4.6 C 37 %
961 06-12-2019 16:01:18 4.8 C 38 %
962 06-12-2019 16:11:18 5 C 34 %
963 06-12-2019 16:21:17 5.2 C 32 %
964 06-12-2019 16:31:17 5.1 C 32 %
965 06-12-2019 16:41:17 5.3 C 32 %
966 06-12-2019 16:51:17 5.2 C 31 %
967 06-12-2019 17:01:17 5.2 C 31 %
968 06-12-2019 17:11:17 5.3 C 31 %
969 06-12-2019 17:21:17 5.3 C 30 %
970 06-12-2019 17:31:18 5.5 C 30 %
971 06-12-2019 17:41:18 5.6 C 29 %
972 06-12-2019 17:51:17 5.5 C 30 %
973 06-12-2019 18:01:17 5.9 C 29 %
974 06-12-2019 18:11:17 6 C 28 %
975 06-12-2019 18:21:18 6.2 C 29 %
Sensor: Nr:Datum:Temp:Feuchte:
Aussen-T/F 976 06-12-2019 18:31:17 6.1 C 28 %
977 06-12-2019 18:41:17 6.1 C 29 %
978 06-12-2019 18:51:17 5.9 C 30 %
979 06-12-2019 19:01:17 5.6 C 31 %
980 06-12-2019 19:11:17 5.8 C 32 %
981 06-12-2019 19:21:17 5.9 C 31 %
982 06-12-2019 19:31:17 6.2 C 30 %
983 06-12-2019 19:41:17 6.5 C 28 %
984 06-12-2019 19:51:17 6.5 C 28 %
985 06-12-2019 20:01:17 6.8 C 28 %
986 06-12-2019 20:11:17 6.7 C 28 %
987 06-12-2019 20:21:17 6.8 C 28 %
988 06-12-2019 20:31:17 6.7 C 28 %
989 06-12-2019 20:41:17 6.7 C 28 %
990 06-12-2019 20:51:18 6.7 C 28 %
991 06-12-2019 21:01:17 6.8 C 27 %
992 06-12-2019 21:11:17 6.7 C 28 %
993 06-12-2019 21:21:17 6.7 C 28 %
994 06-12-2019 21:31:17 6.6 C 28 %
995 06-12-2019 21:41:17 6.5 C 28 %
996 06-12-2019 21:51:17 6.5 C 29 %
997 06-12-2019 22:01:17 6.6 C 29 %
998 06-12-2019 22:11:17 6.7 C 28 %
999 06-12-2019 22:21:17 6.7 C 28 %
1000 06-12-2019 22:31:17 6.7 C 28 %
Sensor: Nr:Datum:Temp:Feuchte:
Aussen-T/F 1001 06-12-2019 22:41:17 6.9 C 28 %
1002 06-12-2019 22:51:17 6.9 C 27 %
1003 06-12-2019 23:01:18 7 C 27 %
1004 06-12-2019 23:11:18 6.9 C 28 %
1005 06-12-2019 23:21:17 6.8 C 29 %
1006 06-12-2019 23:31:17 6.8 C 29 %
1007 06-12-2019 23:41:17 6.9 C 29 %
1008 06-12-2019 23:51:18 6.8 C 30 %
1009 07-12-2019 00:01:17 6.9 C 30 %
1010 07-12-2019 00:11:17 7 C 28 %
1011 07-12-2019 00:21:17 7.2 C 28 %
1012 07-12-2019 00:31:17 7.2 C 28 %
1013 07-12-2019 00:41:17 7.2 C 28 %
1014 07-12-2019 00:51:17 7.4 C 28 %
1015 07-12-2019 01:01:17 7.4 C 28 %
1016 07-12-2019 01:11:17 7.6 C 28 %
1017 07-12-2019 01:21:17 7.7 C 28 %
1018 07-12-2019 01:31:18 7.8 C 28 %
1019 07-12-2019 01:41:18 7.6 C 29 %
1020 07-12-2019 01:51:17 7.6 C 29 %
1021 07-12-2019 02:01:17 7.5 C 30 %
1022 07-12-2019 02:11:17 7.7 C 31 %
1023 07-12-2019 02:21:17 7.5 C 31 %
1024 07-12-2019 02:31:17 7.1 C 35 %
1025 07-12-2019 02:41:17 7.2 C 38 %
Sensor: Nr:Datum:Temp:Feuchte:
Aussen-T/F 1026 07-12-2019 02:51:17 7.3 C 35 %
1027 07-12-2019 03:01:17 7.4 C 35 %
1028 07-12-2019 03:11:17 7.6 C 33 %
1029 07-12-2019 03:21:17 8.4 C 30 %
1030 07-12-2019 03:31:17 8.5 C 29 %
1031 07-12-2019 03:41:17 8.7 C 28 %
1032 07-12-2019 03:51:17 9 C 27 %
1033 07-12-2019 04:01:18 8.4 C 29 %
1034 07-12-2019 04:11:18 8.5 C 29 %
1035 07-12-2019 04:21:17 8 C 30 %
1036 07-12-2019 04:31:17 7.9 C 30 %
1037 07-12-2019 04:41:17 8 C 30 %
1038 07-12-2019 04:51:17 8 C 30 %
1039 07-12-2019 05:01:17 7.7 C 30 %
1040 07-12-2019 05:11:17 8 C 30 %
1041 07-12-2019 05:21:17 8 C 30 %
1042 07-12-2019 05:31:17 7.8 C 31 %
1043 07-12-2019 05:41:17 8.2 C 30 %
1044 07-12-2019 05:51:18 7.2 C 31 %
1045 07-12-2019 06:01:18 7.6 C 30 %
1046 07-12-2019 06:11:18 8.7 C 26 %
1047 07-12-2019 06:21:17 8.6 C 26 %
1048 07-12-2019 06:31:18 8.2 C 26 %
1049 07-12-2019 06:41:18 8.1 C 26 %
1050 07-12-2019 06:51:17 7.5 C 27 %
Sensor: Nr:Datum:Temp:Feuchte:
Aussen-T/F 1051 07-12-2019 07:01:17 6.8 C 30 %
1052 07-12-2019 07:11:17 7.1 C 28 %
1053 07-12-2019 07:21:17 7.3 C 27 %
1054 07-12-2019 07:31:17 6.8 C 30 %
1055 07-12-2019 07:41:17 6.3 C 31 %
1056 07-12-2019 07:51:18 7.8 C 28 %
1057 07-12-2019 08:01:18 8 C 27 %
1058 07-12-2019 08:11:18 7.9 C 28 %
1059 07-12-2019 08:21:17 8.1 C 28 %
1060 07-12-2019 08:31:17 8.1 C 27 %
1061 07-12-2019 08:41:17 8.3 C 28 %
1062 07-12-2019 08:51:17 8.4 C 27 %
1063 07-12-2019 09:01:17 8.4 C 27 %
1064 07-12-2019 09:11:17 8.3 C 28 %
1065 07-12-2019 09:21:17 8.2 C 28 %
1066 07-12-2019 09:31:17 8.1 C 29 %
1067 07-12-2019 09:41:17 8.3 C 28 %
1068 07-12-2019 09:51:18 8.6 C 27 %
1069 07-12-2019 10:01:17 8.6 C 27 %
1070 07-12-2019 10:11:17 8.8 C 27 %
1071 07-12-2019 10:21:17 9 C 26 %
1072 07-12-2019 10:31:17 9.1 C 25 %
1073 07-12-2019 10:41:17 9.1 C 26 %
1074 07-12-2019 10:51:18 9.2 C 25 %
1075 07-12-2019 11:01:18 9 C 26 %
Sensor: Nr:Datum:Temp:Feuchte:
Aussen-T/F 1076 07-12-2019 11:11:18 8.4 C 29 %
1077 07-12-2019 11:21:17 8.3 C 30 %
1078 07-12-2019 11:31:17 8.4 C 30 %
1079 07-12-2019 11:41:17 8.5 C 30 %
1080 07-12-2019 11:51:17 8.6 C 28 %
1081 07-12-2019 12:01:17 8.8 C 27 %
1082 07-12-2019 12:11:17 8.9 C 27 %
1083 07-12-2019 12:21:17 9.2 C 25 %
1084 07-12-2019 12:31:18 9.4 C 25 %
1085 07-12-2019 12:41:18 9.5 C 25 %
1086 07-12-2019 12:51:17 9.5 C 25 %
1087 07-12-2019 13:01:17 9.7 C 23 %
1088 07-12-2019 13:11:17 10 C 20 %
1089 07-12-2019 13:21:17 9.8 C 20 %
1090 07-12-2019 13:31:17 9.8 C 20 %
1091 07-12-2019 13:41:17 9.9 C 20 %
1092 07-12-2019 13:51:17 9.9 C 20 %
1093 07-12-2019 14:01:17 9.8 C 20 %
1094 07-12-2019 14:11:17 9.7 C 20 %
1095 07-12-2019 14:21:17 9.9 C 20 %
1096 07-12-2019 14:31:18 9.9 C 20 %
1097 07-12-2019 14:41:18 9.9 C 20 %
1098 07-12-2019 14:51:17 9.9 C 20 %
1099 07-12-2019 15:01:17 9.9 C 20 %
1100 07-12-2019 15:11:17 9.7 C 21 %
Sensor: Nr:Datum:Temp:Feuchte:
Aussen-T/F 1101 07-12-2019 15:21:17 9.6 C 21 %
1102 07-12-2019 15:31:17 9.7 C 21 %
1103 07-12-2019 15:41:17 9.6 C 20 %
1104 07-12-2019 15:51:17 9.4 C 23 %
1105 07-12-2019 16:01:17 9 C 25 %
1106 07-12-2019 16:11:17 8.9 C 25 %
1107 07-12-2019 16:21:18 8.8 C 25 %
1108 07-12-2019 16:31:17 8.6 C 26 %
1109 07-12-2019 16:41:18 8.5 C 26 %
1110 07-12-2019 16:51:17 8.2 C 27 %
1111 07-12-2019 17:01:17 8.1 C 29 %
1112 07-12-2019 17:11:17 8.2 C 28 %
1113 07-12-2019 17:21:17 8.1 C 28 %
1114 07-12-2019 17:31:18 8.2 C 28 %
1115 07-12-2019 17:41:18 8.3 C 27 %
1116 07-12-2019 17:51:17 8.1 C 27 %
1117 07-12-2019 18:01:18 8 C 28 %
1118 07-12-2019 18:11:18 8 C 27 %
1119 07-12-2019 18:21:17 7.8 C 28 %
1120 07-12-2019 18:31:17 7.7 C 29 %
1121 07-12-2019 18:41:17 7.6 C 30 %
1122 07-12-2019 18:51:17 7.6 C 30 %
1123 07-12-2019 19:01:17 7.5 C 31 %
1124 07-12-2019 19:11:17 7.5 C 31 %
1125 07-12-2019 19:21:17 7.5 C 32 %
Sensor: Nr:Datum:Temp:Feuchte:
Aussen-T/F 1126 07-12-2019 19:31:17 7.7 C 31 %
1127 07-12-2019 19:41:17 7.6 C 30 %
1128 07-12-2019 19:51:17 7.7 C 30 %
1129 07-12-2019 20:01:18 7.4 C 30 %
1130 07-12-2019 20:11:18 7.3 C 31 %
1131 07-12-2019 20:21:17 7.3 C 31 %
1132 07-12-2019 20:31:17 7.4 C 30 %
1133 07-12-2019 20:41:17 7.6 C 30 %
1134 07-12-2019 20:51:17 7.6 C 30 %
1135 07-12-2019 21:01:17 7.5 C 30 %
1136 07-12-2019 21:11:17 7.6 C 30 %
1137 07-12-2019 21:21:17 8 C 28 %
1138 07-12-2019 21:31:17 8.1 C 28 %
1139 07-12-2019 21:41:17 8.2 C 28 %
1140 07-12-2019 21:51:17 7.9 C 28 %
1141 07-12-2019 22:01:17 8.2 C 28 %
1142 07-12-2019 22:11:17 8.1 C 27 %
1143 07-12-2019 22:21:17 7.8 C 28 %
1144 07-12-2019 22:31:18 7.7 C 30 %
1145 07-12-2019 22:41:18 7.6 C 30 %
1146 07-12-2019 22:51:17 7.5 C 31 %
1147 07-12-2019 23:01:17 7.4 C 32 %
1148 07-12-2019 23:11:17 7.6 C 31 %
1149 07-12-2019 23:21:17 7.6 C 32 %
1150 07-12-2019 23:31:17 7.5 C 32 %
Sensor: Nr:Datum:Temp:Feuchte:
Aussen-T/F 1151 07-12-2019 23:41:17 7.7 C 31 %
1152 07-12-2019 23:51:18 7.9 C 28 %
1153 08-12-2019 00:01:17 8.1 C 27 %
1154 08-12-2019 00:11:17 8.9 C 23 %
1155 08-12-2019 00:21:17 8.9 C 21 %
1156 08-12-2019 00:31:18 9 C 21 %
1157 08-12-2019 00:41:18 8.9 C 23 %
1158 08-12-2019 00:51:17 8.5 C 25 %
1159 08-12-2019 01:01:18 8.3 C 25 %
1160 08-12-2019 01:11:18 8.5 C 25 %
1161 08-12-2019 01:21:17 8.4 C 26 %
1162 08-12-2019 01:31:17 8.9 C 25 %
1163 08-12-2019 01:41:17 8.8 C 25 %
1164 08-12-2019 01:51:18 9.2 C 20 %
1165 08-12-2019 02:01:17 9.2 C 20 %
1166 08-12-2019 02:11:17 8.9 C 20 %
1167 08-12-2019 02:21:17 9 C 20 %
1168 08-12-2019 02:31:17 9.1 C 20 %
1169 08-12-2019 02:41:18 9 C 20 %
1170 08-12-2019 02:51:17 9.1 C 20 %
1171 08-12-2019 03:01:17 9 C 20 %
1172 08-12-2019 03:11:17 9.1 C 20 %
1173 08-12-2019 03:21:17 9.1 C 20 %
1174 08-12-2019 03:31:17 9.3 C 20 %
1175 08-12-2019 03:41:17 9.3 C 20 %
Sensor: Nr:Datum:Temp:Feuchte:
Aussen-T/F 1176 08-12-2019 03:51:17 9.4 C 20 %
1177 08-12-2019 04:01:17 9.7 C 20 %
1178 08-12-2019 04:11:18 9.6 C 20 %
1179 08-12-2019 04:21:17 9.5 C 20 %
1180 08-12-2019 04:31:17 9.6 C 20 %
1181 08-12-2019 04:41:17 9.6 C 20 %
1182 08-12-2019 04:51:17 9.5 C 20 %
1183 08-12-2019 05:01:17 9.6 C 20 %
1184 08-12-2019 05:11:17 9.5 C 21 %
1185 08-12-2019 05:21:17 9.5 C 21 %
1186 08-12-2019 05:31:17 9.4 C 23 %
1187 08-12-2019 05:41:17 9.5 C 23 %
1188 08-12-2019 05:51:17 9.2 C 25 %
1189 08-12-2019 06:01:17 9.3 C 25 %
1190 08-12-2019 06:11:18 9.5 C 25 %
1191 08-12-2019 06:21:17 9.9 C 21 %
1192 08-12-2019 06:31:17 9.8 C 23 %
1193 08-12-2019 06:41:17 9.7 C 25 %
1194 08-12-2019 06:51:17 9.9 C 23 %
1195 08-12-2019 07:01:18 10 C 21 %
1196 08-12-2019 07:11:18 10.1 C 20 %
1197 08-12-2019 07:21:17 9.9 C 21 %
1198 08-12-2019 07:31:17 10 C 21 %
1199 08-12-2019 07:41:17 10.1 C 20 %
1200 08-12-2019 07:51:17 10 C 20 %
Sensor: Nr:Datum:Temp:Feuchte:
Aussen-T/F 1201 08-12-2019 08:01:17 10 C 20 %
1202 08-12-2019 08:11:17 10.2 C 20 %
1203 08-12-2019 08:21:17 10.1 C 20 %
1204 08-12-2019 08:31:17 10.3 C 21 %
1205 08-12-2019 08:41:17 10.1 C 21 %
1206 08-12-2019 08:51:17 10.3 C 21 %
1207 08-12-2019 09:01:17 10.3 C 21 %
1208 08-12-2019 09:11:17 10.1 C 21 %
1209 08-12-2019 09:21:17 10.2 C 21 %
1210 08-12-2019 09:31:17 10.3 C 21 %
1211 08-12-2019 09:41:17 10.4 C 21 %
1212 08-12-2019 09:51:17 10.4 C 21 %
1213 08-12-2019 10:01:17 10.4 C 21 %
1214 08-12-2019 10:11:17 10.5 C 21 %
1215 08-12-2019 10:21:17 10.5 C 22 %
1216 08-12-2019 10:31:17 10.5 C 22 %
1217 08-12-2019 10:41:17 10.1 C 25 %
1218 08-12-2019 10:51:17 10.2 C 25 %
1219 08-12-2019 11:01:17 10.5 C 25 %
1220 08-12-2019 11:11:17 10.6 C 23 %
1221 08-12-2019 11:21:17 10.8 C 23 %
1222 08-12-2019 11:31:17 10.8 C 23 %
1223 08-12-2019 11:41:17 10.8 C 22 %
1224 08-12-2019 11:51:17 11 C 22 %
1225 08-12-2019 12:01:18 11.1 C 22 %
Sensor: Nr:Datum:Temp:Feuchte:
Aussen-T/F 1226 08-12-2019 12:11:18 11.3 C 22 %
1227 08-12-2019 12:21:17 11.4 C 22 %
1228 08-12-2019 12:31:17 11.4 C 22 %
1229 08-12-2019 12:41:17 11.4 C 23 %
1230 08-12-2019 12:51:17 11.3 C 24 %
1231 08-12-2019 13:01:18 11.5 C 24 %
1232 08-12-2019 13:11:18 11.5 C 22 %
1233 08-12-2019 13:21:17 11.3 C 25 %
1234 08-12-2019 13:31:17 11.1 C 25 %
1235 08-12-2019 13:41:17 11.4 C 25 %
1236 08-12-2019 13:51:17 11.4 C 25 %
1237 08-12-2019 14:01:17 11.5 C 25 %
1238 08-12-2019 14:11:17 11.5 C 25 %
1239 08-12-2019 14:21:17 11.5 C 25 %
1240 08-12-2019 14:31:18 11.7 C 25 %
1241 08-12-2019 14:41:18 11.7 C 25 %
1242 08-12-2019 14:51:17 11.7 C 25 %
1243 08-12-2019 15:01:18 11.8 C 25 %
1244 08-12-2019 15:11:18 11.8 C 25 %
1245 08-12-2019 15:21:18 11.7 C 25 %
1246 08-12-2019 15:31:18 11.7 C 25 %
1247 08-12-2019 15:41:18 11.8 C 25 %
1248 08-12-2019 15:51:17 11.8 C 25 %
1249 08-12-2019 16:01:17 11.7 C 25 %
1250 08-12-2019 16:11:17 11.8 C 25 %
Sensor: Nr:Datum:Temp:Feuchte:
Aussen-T/F 1251 08-12-2019 16:21:18 11.7 C 25 %
1252 08-12-2019 16:31:18 11.6 C 26 %
1253 08-12-2019 16:41:18 11.4 C 27 %
1254 08-12-2019 16:51:17 9.4 C 31 %
1255 08-12-2019 17:01:17 8.9 C 33 %
1256 08-12-2019 17:11:17 8.8 C 33 %
1257 08-12-2019 17:21:17 8.7 C 34 %
1258 08-12-2019 17:31:17 9.2 C 27 %
1259 08-12-2019 17:41:17 8.5 C 33 %
1260 08-12-2019 17:51:17 8.5 C 33 %
1261 08-12-2019 18:01:17 8.5 C 32 %
1262 08-12-2019 18:11:17 8.6 C 31 %
1263 08-12-2019 18:21:17 8.2 C 33 %
1264 08-12-2019 18:31:18 8.5 C 29 %
1265 08-12-2019 18:41:18 8.5 C 29 %
1266 08-12-2019 18:51:17 8.6 C 28 %
1267 08-12-2019 19:01:17 8.9 C 27 %
1268 08-12-2019 19:11:17 8.5 C 28 %
1269 08-12-2019 19:21:17 8.5 C 28 %
1270 08-12-2019 19:31:17 8.6 C 27 %
1271 08-12-2019 19:41:17 8 C 31 %
1272 08-12-2019 19:51:18 7.8 C 33 %
1273 08-12-2019 20:01:17 7.5 C 36 %
1274 08-12-2019 20:11:17 8.1 C 33 %
1275 08-12-2019 20:21:17 8.2 C 30 %
Sensor: Nr:Datum:Temp:Feuchte:
Aussen-T/F 1276 08-12-2019 20:31:17 8.3 C 29 %
1277 08-12-2019 20:41:17 8.5 C 28 %
1278 08-12-2019 20:51:17 8.6 C 26 %
1279 08-12-2019 21:01:18 8.8 C 26 %
1280 08-12-2019 21:11:18 8.9 C 25 %
1281 08-12-2019 21:21:17 8.4 C 26 %
1282 08-12-2019 21:31:17 8.7 C 26 %
1283 08-12-2019 21:41:17 8.4 C 26 %
1284 08-12-2019 21:51:18 8.4 C 26 %
1285 08-12-2019 22:01:17 8.5 C 26 %
1286 08-12-2019 22:11:17 7.9 C 27 %
1287 08-12-2019 22:21:17 8.1 C 26 %
1288 08-12-2019 22:31:17 8.6 C 26 %
1289 08-12-2019 22:41:17 8.8 C 26 %
1290 08-12-2019 22:51:17 8.7 C 25 %
1291 08-12-2019 23:01:17 8.8 C 25 %
1292 08-12-2019 23:11:17 8.7 C 26 %
1293 08-12-2019 23:21:17 8.8 C 25 %
1294 08-12-2019 23:31:18 8.7 C 25 %
1295 08-12-2019 23:41:18 8.5 C 25 %
1296 08-12-2019 23:51:17 8.4 C 21 %
1297 09-12-2019 00:01:18 8.7 C 20 %
1298 09-12-2019 00:11:18 8.1 C 21 %
1299 09-12-2019 00:21:17 8.4 C 21 %
1300 09-12-2019 00:31:17 8.4 C 21 %
Sensor: Nr:Datum:Temp:Feuchte:
Aussen-T/F 1301 09-12-2019 00:41:17 8.5 C 20 %
1302 09-12-2019 00:51:17 8.4 C 20 %
1303 09-12-2019 01:01:17 8.4 C 20 %
1304 09-12-2019 01:11:17 8.5 C 20 %
1305 09-12-2019 01:21:18 8.1 C 20 %
1306 09-12-2019 01:31:17 8 C 20 %
1307 09-12-2019 01:41:17 8.3 C 20 %
1308 09-12-2019 01:51:17 8.2 C 20 %
1309 09-12-2019 02:01:17 7.8 C 20 %
1310 09-12-2019 02:11:17 7.6 C 20 %
1311 09-12-2019 02:21:17 7.4 C 21 %
1312 09-12-2019 02:31:18 7.4 C 21 %
1313 09-12-2019 02:41:18 7.1 C 23 %
1314 09-12-2019 02:51:18 7.5 C 20 %
1315 09-12-2019 03:01:17 7.5 C 20 %
1316 09-12-2019 03:11:17 7.5 C 20 %
1317 09-12-2019 03:21:17 7.5 C 20 %
1318 09-12-2019 03:31:17 7.3 C 20 %
1319 09-12-2019 03:41:17 6.8 C 23 %
1320 09-12-2019 03:51:17 7.3 C 21 %
1321 09-12-2019 04:01:17 7.3 C 20 %
1322 09-12-2019 04:11:17 7.9 C 20 %
1323 09-12-2019 04:21:18 8 C 20 %
1324 09-12-2019 04:31:18 7.6 C 20 %
1325 09-12-2019 04:41:18 7.4 C 21 %
Sensor: Nr:Datum:Temp:Feuchte:
Aussen-T/F 1326 09-12-2019 04:51:17 6.9 C 25 %
1327 09-12-2019 05:01:17 6.9 C 25 %
1328 09-12-2019 05:11:17 7.4 C 20 %
1329 09-12-2019 05:21:17 7.5 C 20 %
1330 09-12-2019 05:31:17 7.4 C 20 %
1331 09-12-2019 05:41:18 7.1 C 20 %
1332 09-12-2019 05:51:17 7.2 C 20 %
1333 09-12-2019 06:01:17 7.4 C 20 %
1334 09-12-2019 06:11:17 7.4 C 20 %
1335 09-12-2019 06:21:17 7.4 C 20 %
1336 09-12-2019 06:31:17 7.6 C 20 %
1337 09-12-2019 06:41:17 7.8 C 20 %
1338 09-12-2019 06:51:18 7.7 C 20 %
1339 09-12-2019 07:01:17 7.6 C 20 %
1340 09-12-2019 07:11:18 7.5 C 20 %
1341 09-12-2019 07:21:17 7.2 C 20 %
1342 09-12-2019 07:31:17 7.2 C 20 %
1343 09-12-2019 07:41:17 7.6 C 20 %
1344 09-12-2019 07:51:18 7.5 C 20 %
1345 09-12-2019 08:01:17 7.9 C 20 %
1346 09-12-2019 08:11:17 7.8 C 20 %
1347 09-12-2019 08:21:17 7.9 C 20 %
1348 09-12-2019 08:31:17 8 C 20 %
1349 09-12-2019 08:41:17 7.9 C 20 %
1350 09-12-2019 08:51:17 7.9 C 20 %
Sensor: Nr:Datum:Temp:Feuchte:
Aussen-T/F 1351 09-12-2019 09:01:17 7.8 C 20 %
1352 09-12-2019 09:11:17 7.9 C 20 %
1353 09-12-2019 09:21:17 7.5 C 20 %
1354 09-12-2019 09:31:17 7.4 C 23 %
1355 09-12-2019 09:41:17 7.5 C 21 %
1356 09-12-2019 09:51:17 7.7 C 21 %
1357 09-12-2019 10:01:17 7.9 C 21 %
1358 09-12-2019 10:11:17 7.9 C 21 %
1359 09-12-2019 10:21:17 7.9 C 20 %
1360 09-12-2019 10:31:18 7.9 C 21 %
1361 09-12-2019 10:41:18 7.9 C 21 %
1362 09-12-2019 10:51:17 8.1 C 20 %
1363 09-12-2019 11:01:17 8 C 20 %
1364 09-12-2019 11:11:17 8.2 C 20 %
1365 09-12-2019 11:21:17 8.4 C 20 %
1366 09-12-2019 11:31:18 8.4 C 20 %
1367 09-12-2019 11:41:18 8.3 C 20 %
1368 09-12-2019 11:51:17 8.1 C 20 %
1369 09-12-2019 12:01:17 8.2 C 20 %
1370 09-12-2019 12:11:17 8 C 20 %
1371 09-12-2019 12:21:18 8.1 C 20 %
1372 09-12-2019 12:31:17 8.3 C 20 %
1373 09-12-2019 12:41:17 8.2 C 20 %
1374 09-12-2019 12:51:17 8.3 C 20 %
1375 09-12-2019 13:01:18 8.3 C 20 %
Sensor: Nr:Datum:Temp:Feuchte:
Aussen-T/F 1376 09-12-2019 13:11:18 8.3 C 20 %
1377 09-12-2019 13:21:17 8.2 C 20 %
1378 09-12-2019 13:31:17 8.1 C 20 %
1379 09-12-2019 13:41:17 8.5 C 20 %
1380 09-12-2019 13:51:17 8.8 C 20 %
1381 09-12-2019 14:01:17 8.6 C 20 %
1382 09-12-2019 14:11:17 8.5 C 20 %
1383 09-12-2019 14:21:17 8.6 C 20 %
1384 09-12-2019 14:31:17 8.4 C 20 %
1385 09-12-2019 14:41:17 7.9 C 20 %
1386 09-12-2019 14:51:18 8.4 C 20 %
1387 09-12-2019 15:01:17 7.9 C 20 %
1388 09-12-2019 15:11:17 7.3 C 25 %
1389 09-12-2019 15:21:17 7 C 27 %
1390 09-12-2019 15:31:18 7.1 C 26 %
1391 09-12-2019 15:41:18 7.1 C 25 %
1392 09-12-2019 15:51:17 7.4 C 23 %
1393 09-12-2019 16:01:18 7.5 C 20 %
1394 09-12-2019 16:11:18 7.5 C 20 %
1395 09-12-2019 16:21:17 7.6 C 20 %
1396 09-12-2019 16:31:18 7.3 C 20 %
1397 09-12-2019 16:41:18 7.4 C 20 %
1398 09-12-2019 16:51:17 7.3 C 20 %
1399 09-12-2019 17:01:18 7.1 C 20 %
1400 09-12-2019 17:11:18 7.2 C 20 %
Sensor: Nr:Datum:Temp:Feuchte:
Aussen-T/F 1401 09-12-2019 17:21:17 6.7 C 25 %
1402 09-12-2019 17:31:17 6.1 C 32 %
1403 09-12-2019 17:41:17 5.9 C 36 %
1404 09-12-2019 17:51:17 6 C 34 %
1405 09-12-2019 18:01:18 6 C 30 %
1406 09-12-2019 18:11:18 6.1 C 31 %
1407 09-12-2019 18:21:17 6 C 33 %
1408 09-12-2019 18:31:17 5.8 C 35 %
1409 09-12-2019 18:41:17 5.7 C 37 %
1410 09-12-2019 18:51:18 5.7 C 38 %
1411 09-12-2019 19:01:17 5.6 C 35 %
1412 09-12-2019 19:11:17 5.5 C 38 %
1413 09-12-2019 19:21:17 5.6 C 39 %
1414 09-12-2019 19:31:17 5.6 C 38 %
1415 09-12-2019 19:41:17 5.6 C 38 %
1416 09-12-2019 19:51:17 5.6 C 37 %
1417 09-12-2019 20:01:17 5.6 C 35 %
1418 09-12-2019 20:11:17 5.6 C 34 %
1419 09-12-2019 20:21:17 5.6 C 35 %
1420 09-12-2019 20:31:17 5.6 C 32 %
1421 09-12-2019 20:41:17 5.4 C 33 %
1422 09-12-2019 20:51:17 5.3 C 34 %
1423 09-12-2019 21:01:17 5.2 C 33 %
1424 09-12-2019 21:11:18 5.1 C 34 %
1425 09-12-2019 21:21:17 5.2 C 35 %
Sensor: Nr:Datum:Temp:Feuchte:
Aussen-T/F 1426 09-12-2019 21:31:17 5.3 C 32 %
1427 09-12-2019 21:41:17 5.1 C 31 %
1428 09-12-2019 21:51:17 5 C 31 %
1429 09-12-2019 22:01:17 4.8 C 32 %
1430 09-12-2019 22:11:17 4.7 C 31 %
1431 09-12-2019 22:21:17 4.9 C 30 %
1432 09-12-2019 22:31:17 4.9 C 30 %
1433 09-12-2019 22:41:17 4.9 C 30 %
1434 09-12-2019 22:51:18 4.7 C 30 %
1435 09-12-2019 23:01:17 4.6 C 29 %
1436 09-12-2019 23:11:17 4.5 C 29 %
1437 09-12-2019 23:21:17 4.1 C 30 %
1438 09-12-2019 23:31:18 4 C 30 %
1439 09-12-2019 23:41:18 4.1 C 29 %
1440 09-12-2019 23:51:17 4.1 C 29 %
1441 10-12-2019 00:01:17 3.7 C 30 %
1442 10-12-2019 00:11:17 4.1 C 28 %
1443 10-12-2019 00:21:17 3.4 C 30 %
1444 10-12-2019 00:31:17 3.6 C 30 %
1445 10-12-2019 00:41:17 3.1 C 31 %
1446 10-12-2019 00:51:17 3 C 31 %
1447 10-12-2019 01:01:17 2.4 C 33 %
1448 10-12-2019 01:11:17 2.4 C 36 %
1449 10-12-2019 01:21:17 2.5 C 36 %
1450 10-12-2019 01:31:18 2.8 C 34 %
Sensor: Nr:Datum:Temp:Feuchte:
Aussen-T/F 1451 10-12-2019 01:41:18 2.4 C 34 %
1452 10-12-2019 01:51:17 2.4 C 33 %
1453 10-12-2019 02:01:18 2.7 C 33 %
1454 10-12-2019 02:11:18 2.9 C 32 %
1455 10-12-2019 02:21:17 2.3 C 33 %
1456 10-12-2019 02:31:17 2.1 C 35 %
1457 10-12-2019 02:41:17 1.7 C 37 %
1458 10-12-2019 02:51:17 1.6 C 39 %
1459 10-12-2019 03:01:17 1.8 C 40 %
1460 10-12-2019 03:11:17 1.8 C 40 %
1461 10-12-2019 03:21:17 1.8 C 40 %
1462 10-12-2019 03:31:17 2 C 40 %
1463 10-12-2019 03:41:17 1.4 C 41 %
1464 10-12-2019 03:51:17 1.4 C 43 %
1465 10-12-2019 04:01:17 1.1 C 43 %
1466 10-12-2019 04:11:17 1.3 C 41 %
1467 10-12-2019 04:21:17 0.6 C 41 %
1468 10-12-2019 04:31:18 0.6 C 44 %
1469 10-12-2019 04:41:18 0.7 C 45 %
1470 10-12-2019 04:51:17 0.9 C 46 %
1471 10-12-2019 05:01:17 1.1 C 44 %
1472 10-12-2019 05:11:17 1.8 C 41 %
1473 10-12-2019 05:21:18 2.2 C 35 %
1474 10-12-2019 05:31:18 2 C 35 %
1475 10-12-2019 05:41:18 2 C 35 %
Sensor: Nr:Datum:Temp:Feuchte:
Aussen-T/F 1476 10-12-2019 05:51:17 1.8 C 36 %
1477 10-12-2019 06:01:17 1.5 C 36 %
1478 10-12-2019 06:11:17 1.6 C 37 %
1479 10-12-2019 06:21:18 1.4 C 36 %
1480 10-12-2019 06:31:17 1.1 C 38 %
1481 10-12-2019 06:41:17 0.9 C 42 %
1482 10-12-2019 06:51:17 1.2 C 42 %
1483 10-12-2019 07:01:18 1.3 C 40 %
1484 10-12-2019 07:11:18 1.5 C 40 %
1485 10-12-2019 07:21:17 1.7 C 36 %
1486 10-12-2019 07:31:17 1.2 C 37 %
1487 10-12-2019 07:41:17 0.8 C 41 %
1488 10-12-2019 07:51:17 0.8 C 41 %
1489 10-12-2019 08:01:17 0.7 C 41 %
1490 10-12-2019 08:11:17 0.8 C 41 %
1491 10-12-2019 08:21:17 0.4 C 42 %
1492 10-12-2019 08:31:18 0.6 C 42 %
1493 10-12-2019 08:41:18 0.4 C 42 %
1494 10-12-2019 08:51:17 0.4 C 43 %
1495 10-12-2019 09:01:17 0.1 C 42 %
1496 10-12-2019 09:11:17 0.5 C 44 %
1497 10-12-2019 09:21:17 0.8 C 44 %
1498 10-12-2019 09:31:17 1.4 C 42 %
1499 10-12-2019 09:41:17 1.7 C 39 %
1500 10-12-2019 09:51:17 1.8 C 39 %
Sensor: Nr:Datum:Temp:Feuchte:
Aussen-T/F 1501 10-12-2019 10:01:17 2.2 C 36 %
1502 10-12-2019 10:11:17 2.5 C 35 %
1503 10-12-2019 10:21:17 2.7 C 33 %
1504 10-12-2019 10:31:17 2.7 C 33 %
1505 10-12-2019 10:41:17 2.5 C 33 %
1506 10-12-2019 10:51:17 2.4 C 35 %
1507 10-12-2019 11:01:17 2.4 C 34 %
1508 10-12-2019 11:11:17 2.5 C 34 %
1509 10-12-2019 11:21:17 2.3 C 35 %
1510 10-12-2019 11:31:18 2.2 C 36 %
1511 10-12-2019 11:41:18 2.9 C 34 %
1512 10-12-2019 11:51:17 3.5 C 30 %
1513 10-12-2019 12:01:17 3.7 C 30 %
1514 10-12-2019 12:11:17 3.8 C 30 %
1515 10-12-2019 12:21:17 3.9 C 30 %
1516 10-12-2019 12:31:17 3.9 C 30 %
1517 10-12-2019 12:41:17 4.3 C 27 %
1518 10-12-2019 12:51:17 4.5 C 27 %
1519 10-12-2019 13:01:17 4.6 C 27 %
1520 10-12-2019 13:11:17 4.7 C 27 %
1521 10-12-2019 13:21:17 4.7 C 27 %
1522 10-12-2019 13:31:17 4.9 C 27 %
1523 10-12-2019 13:41:17 5.1 C 25 %
1524 10-12-2019 13:51:17 5 C 25 %
1525 10-12-2019 14:01:17 4.6 C 27 %
Sensor: Nr:Datum:Temp:Feuchte:
Aussen-T/F 1526 10-12-2019 14:11:17 4.2 C 28 %
1527 10-12-2019 14:21:17 3.8 C 30 %
1528 10-12-2019 14:31:18 3.9 C 30 %
1529 10-12-2019 14:41:18 3.8 C 30 %
1530 10-12-2019 14:51:17 3.5 C 30 %
1531 10-12-2019 15:01:17 3.5 C 30 %
1532 10-12-2019 15:11:17 3.3 C 31 %
1533 10-12-2019 15:21:17 3.2 C 31 %
1534 10-12-2019 15:31:17 3.1 C 31 %
1535 10-12-2019 15:41:18 3.2 C 31 %
1536 10-12-2019 15:51:17 2.9 C 31 %
1537 10-12-2019 16:01:17 2.4 C 32 %
1538 10-12-2019 16:11:17 3.1 C 31 %
1539 10-12-2019 16:21:17 3.4 C 30 %
1540 10-12-2019 16:31:17 3.5 C 28 %
1541 10-12-2019 16:41:17 3.3 C 28 %
1542 10-12-2019 16:51:17 3.3 C 26 %
1543 10-12-2019 17:01:17 2.8 C 27 %
1544 10-12-2019 17:11:17 2.7 C 27 %
1545 10-12-2019 17:21:18 2.7 C 27 %
1546 10-12-2019 17:31:17 2.7 C 27 %
1547 10-12-2019 17:41:17 2.6 C 27 %
1548 10-12-2019 17:51:17 2.4 C 28 %
1549 10-12-2019 18:01:17 2.3 C 27 %
1550 10-12-2019 18:11:17 1.7 C 31 %
Sensor: Nr:Datum:Temp:Feuchte:
Aussen-T/F 1551 10-12-2019 18:21:17 1.9 C 32 %
1552 10-12-2019 18:31:17 1.8 C 33 %
1553 10-12-2019 18:41:17 1.7 C 34 %
1554 10-12-2019 18:51:17 1.6 C 35 %
1555 10-12-2019 19:01:17 1.5 C 36 %
1556 10-12-2019 19:11:17 1.5 C 36 %
1557 10-12-2019 19:21:17 1.6 C 36 %
1558 10-12-2019 19:31:17 1.5 C 36 %
1559 10-12-2019 19:41:18 1.7 C 36 %
1560 10-12-2019 19:51:17 1.7 C 35 %
1561 10-12-2019 20:01:17 2.2 C 32 %
1562 10-12-2019 20:11:17 2.1 C 32 %
1563 10-12-2019 20:21:17 2.7 C 29 %
1564 10-12-2019 20:31:18 2.9 C 28 %
1565 10-12-2019 20:41:18 2.6 C 30 %
1566 10-12-2019 20:51:17 2.3 C 30 %
1567 10-12-2019 21:01:17 2.5 C 31 %
1568 10-12-2019 21:11:17 2.3 C 31 %
1569 10-12-2019 21:21:17 2.1 C 32 %
1570 10-12-2019 21:31:17 2 C 33 %
1571 10-12-2019 21:41:18 1.8 C 35 %
1572 10-12-2019 21:51:17 1.8 C 36 %
1573 10-12-2019 22:01:17 1.8 C 36 %
1574 10-12-2019 22:11:17 2.1 C 35 %
1575 10-12-2019 22:21:17 2.2 C 34 %
Sensor: Nr:Datum:Temp:Feuchte:
Aussen-T/F 1576 10-12-2019 22:31:17 2.4 C 32 %
1577 10-12-2019 22:41:17 2.5 C 33 %
1578 10-12-2019 22:51:18 2.8 C 31 %
1579 10-12-2019 23:01:17 2.9 C 30 %
1580 10-12-2019 23:11:17 3 C 30 %
1581 10-12-2019 23:21:17 3 C 30 %
1582 10-12-2019 23:31:17 2.9 C 31 %
1583 10-12-2019 23:41:17 3.3 C 28 %
1584 10-12-2019 23:51:17 3.3 C 30 %
1585 11-12-2019 00:01:18 3.2 C 30 %
1586 11-12-2019 00:11:18 3.3 C 29 %
1587 11-12-2019 00:21:17 3.4 C 28 %
1588 11-12-2019 00:31:17 3.4 C 29 %
1589 11-12-2019 00:41:17 3.5 C 27 %
1590 11-12-2019 00:51:17 3.4 C 27 %
1591 11-12-2019 01:01:17 3.5 C 25 %
1592 11-12-2019 01:11:17 3.4 C 27 %
1593 11-12-2019 01:21:18 3.4 C 28 %
1594 11-12-2019 01:31:17 3.4 C 29 %
1595 11-12-2019 01:41:17 3.2 C 30 %
1596 11-12-2019 01:51:17 3.1 C 32 %
1597 11-12-2019 02:01:17 3 C 33 %
1598 11-12-2019 02:11:17 2.9 C 33 %
1599 11-12-2019 02:21:17 2.9 C 32 %
1600 11-12-2019 02:31:18 2.8 C 34 %
Sensor: Nr:Datum:Temp:Feuchte:
Aussen-T/F 1601 11-12-2019 02:41:18 2.9 C 31 %
1602 11-12-2019 02:51:17 3 C 30 %
1603 11-12-2019 03:01:18 3.1 C 30 %
1604 11-12-2019 03:11:18 3 C 32 %
1605 11-12-2019 03:21:17 2.9 C 30 %
1606 11-12-2019 03:31:17 3 C 30 %
1607 11-12-2019 03:41:17 3 C 35 %
1608 11-12-2019 03:51:17 2.8 C 36 %
1609 11-12-2019 04:01:17 2.7 C 35 %
1610 11-12-2019 04:11:17 2.8 C 35 %
1611 11-12-2019 04:21:17 2.8 C 35 %
1612 11-12-2019 04:31:18 2.8 C 38 %
1613 11-12-2019 04:41:18 2.7 C 38 %
1614 11-12-2019 04:51:17 2.7 C 39 %
1615 11-12-2019 05:01:17 2.7 C 39 %
1616 11-12-2019 05:11:17 2.7 C 39 %
1617 11-12-2019 05:21:18 2.7 C 40 %
1618 11-12-2019 05:31:17 2.6 C 42 %
1619 11-12-2019 05:41:17 2.6 C 43 %
1620 11-12-2019 05:51:17 2.5 C 44 %
1621 11-12-2019 06:01:18 2.5 C 44 %
1622 11-12-2019 06:11:18 2.5 C 44 %
1623 11-12-2019 06:21:17 2.5 C 44 %
1624 11-12-2019 06:31:17 2.5 C 44 %
1625 11-12-2019 06:41:17 2.5 C 44 %
Sensor: Nr:Datum:Temp:Feuchte:
Aussen-T/F 1626 11-12-2019 06:51:17 2.5 C 44 %
1627 11-12-2019 07:01:17 2.4 C 44 %
1628 11-12-2019 07:11:17 2.5 C 44 %
1629 11-12-2019 07:21:17 2.4 C 44 %
1630 11-12-2019 07:31:17 2.4 C 44 %
1631 11-12-2019 07:41:18 2.4 C 43 %
1632 11-12-2019 07:51:17 2.4 C 43 %
1633 11-12-2019 08:01:17 2.4 C 43 %
1634 11-12-2019 08:11:17 2.4 C 43 %
1635 11-12-2019 08:21:17 2.4 C 43 %
1636 11-12-2019 08:31:18 2.3 C 43 %
1637 11-12-2019 08:41:18 2.3 C 43 %
1638 11-12-2019 08:51:17 2.3 C 43 %
1639 11-12-2019 09:01:18 2.3 C 43 %
1640 11-12-2019 09:11:18 2.4 C 43 %
1641 11-12-2019 09:21:17 2.5 C 43 %
1642 11-12-2019 09:31:17 2.5 C 43 %
1643 11-12-2019 09:41:17 2.5 C 43 %
1644 11-12-2019 09:51:17 2.5 C 43 %
1645 11-12-2019 10:01:17 2.6 C 43 %
1646 11-12-2019 10:11:17 2.7 C 43 %
1647 11-12-2019 10:21:17 2.7 C 42 %
1648 11-12-2019 10:31:17 2.7 C 42 %
1649 11-12-2019 10:41:17 2.8 C 41 %
1650 11-12-2019 10:51:17 3.1 C 40 %
Sensor: Nr:Datum:Temp:Feuchte:
Aussen-T/F 1651 11-12-2019 11:01:17 3 C 39 %
1652 11-12-2019 11:11:17 3.1 C 39 %
1653 11-12-2019 11:21:17 3.2 C 39 %
1654 11-12-2019 11:31:17 3.1 C 38 %
1655 11-12-2019 11:41:17 3.1 C 38 %
1656 11-12-2019 11:51:17 3.2 C 39 %
1657 11-12-2019 12:01:18 3.2 C 39 %
1658 11-12-2019 12:11:18 3.1 C 39 %
1659 11-12-2019 12:21:17 3.1 C 39 %
1660 11-12-2019 12:31:17 3.1 C 40 %
1661 11-12-2019 12:41:17 3.1 C 40 %
1662 11-12-2019 12:51:17 3.1 C 40 %
1663 11-12-2019 13:01:18 3.2 C 40 %
1664 11-12-2019 13:11:18 3.2 C 40 %
1665 11-12-2019 13:21:17 3.2 C 40 %
1666 11-12-2019 13:31:17 3.2 C 40 %
1667 11-12-2019 13:41:17 3.2 C 40 %
1668 11-12-2019 13:51:17 3.2 C 40 %
1669 11-12-2019 14:01:17 3.2 C 41 %
1670 11-12-2019 14:11:18 3.2 C 41 %
1671 11-12-2019 14:21:17 3.2 C 41 %
1672 11-12-2019 14:31:17 3.3 C 41 %
1673 11-12-2019 14:41:17 3.3 C 42 %
1674 11-12-2019 14:51:17 3.3 C 42 %
1675 11-12-2019 15:01:17 3.3 C 42 %
Sensor: Nr:Datum:Temp:Feuchte:
Aussen-T/F 1676 11-12-2019 15:11:17 3.4 C 42 %
1677 11-12-2019 15:21:17 3.3 C 42 %
1678 11-12-2019 15:31:18 3.3 C 42 %
1679 11-12-2019 15:41:18 3.3 C 42 %
1680 11-12-2019 15:51:17 3.3 C 42 %
1681 11-12-2019 16:01:17 3.2 C 42 %
1682 11-12-2019 16:11:17 3.2 C 42 %
1683 11-12-2019 16:21:17 3.2 C 42 %
1684 11-12-2019 16:31:17 3.2 C 42 %
1685 11-12-2019 16:41:17 3.1 C 42 %
1686 11-12-2019 16:51:17 3.1 C 42 %
1687 11-12-2019 17:01:17 3.1 C 43 %
1688 11-12-2019 17:11:17 3.1 C 42 %
1689 11-12-2019 17:21:17 3.1 C 42 %
1690 11-12-2019 17:31:17 3.1 C 42 %
1691 11-12-2019 17:41:17 3.1 C 42 %
1692 11-12-2019 17:51:18 3.2 C 43 %
1693 11-12-2019 18:01:17 3.2 C 43 %
1694 11-12-2019 18:11:17 3.3 C 43 %
1695 11-12-2019 18:21:17 3.3 C 43 %
1696 11-12-2019 18:31:18 3.4 C 43 %
1697 11-12-2019 18:41:18 3.4 C 43 %
1698 11-12-2019 18:51:17 3.5 C 43 %
1699 11-12-2019 19:01:17 3.5 C 42 %
1700 11-12-2019 19:11:17 3.5 C 42 %
Sensor: Nr:Datum:Temp:Feuchte:
Aussen-T/F 1701 11-12-2019 19:21:18 3.5 C 42 %
1702 11-12-2019 19:31:17 3.5 C 42 %
1703 11-12-2019 19:41:17 3.6 C 42 %
1704 11-12-2019 19:51:18 3.6 C 42 %
1705 11-12-2019 20:01:17 3.6 C 42 %
1706 11-12-2019 20:11:17 3.7 C 42 %
1707 11-12-2019 20:21:17 3.8 C 42 %
1708 11-12-2019 20:31:18 3.8 C 42 %
1709 11-12-2019 20:41:18 3.9 C 42 %
1710 11-12-2019 20:51:17 4.1 C 41 %
1711 11-12-2019 21:01:17 4.1 C 40 %
1712 11-12-2019 21:11:17 4.3 C 39 %
1713 11-12-2019 21:21:17 4.4 C 37 %
1714 11-12-2019 21:31:17 4.1 C 37 %
1715 11-12-2019 21:41:17 4.3 C 37 %
1716 11-12-2019 21:51:17 4.3 C 36 %
1717 11-12-2019 22:01:17 4.5 C 35 %
1718 11-12-2019 22:11:17 4.1 C 35 %
1719 11-12-2019 22:21:17 3.9 C 37 %
1720 11-12-2019 22:31:17 3.6 C 39 %
1721 11-12-2019 22:41:17 3.8 C 39 %
1722 11-12-2019 22:51:18 3.5 C 40 %
1723 11-12-2019 23:01:17 3.8 C 40 %
1724 11-12-2019 23:11:17 3.8 C 40 %
1725 11-12-2019 23:21:17 3.4 C 40 %
Sensor: Nr:Datum:Temp:Feuchte:
Aussen-T/F 1726 11-12-2019 23:31:17 3 C 41 %
1727 11-12-2019 23:41:17 3.4 C 43 %
1728 11-12-2019 23:51:18 3.2 C 42 %
1729 12-12-2019 00:01:17 3 C 42 %
1730 12-12-2019 00:11:17 2.9 C 43 %
1731 12-12-2019 00:21:17 2.8 C 43 %
1732 12-12-2019 00:31:17 2.5 C 43 %
1733 12-12-2019 00:41:17 2.4 C 43 %
1734 12-12-2019 00:51:17 2.3 C 43 %
1735 12-12-2019 01:01:17 2.7 C 44 %
1736 12-12-2019 01:11:17 2.8 C 44 %
1737 12-12-2019 01:21:18 2.6 C 43 %
1738 12-12-2019 01:31:17 2.2 C 43 %
1739 12-12-2019 01:41:17 2.5 C 43 %
1740 12-12-2019 01:51:18 2.1 C 43 %
1741 12-12-2019 02:01:17 1.8 C 44 %
1742 12-12-2019 02:11:17 1.6 C 44 %
1743 12-12-2019 02:21:17 1.7 C 44 %
1744 12-12-2019 02:31:18 1.6 C 44 %
1745 12-12-2019 02:41:18 2 C 43 %
1746 12-12-2019 02:51:17 2 C 43 %
1747 12-12-2019 03:01:17 2.3 C 43 %
1748 12-12-2019 03:11:17 2.4 C 43 %
1749 12-12-2019 03:21:17 2.5 C 43 %
1750 12-12-2019 03:31:17 2.4 C 43 %
Sensor: Nr:Datum:Temp:Feuchte:
Aussen-T/F 1751 12-12-2019 03:41:17 2.5 C 43 %
1752 12-12-2019 03:51:17 2.7 C 43 %
1753 12-12-2019 04:01:17 2.6 C 43 %
1754 12-12-2019 04:11:17 2.7 C 43 %
1755 12-12-2019 04:21:17 2.8 C 43 %
1756 12-12-2019 04:31:17 2.8 C 43 %
1757 12-12-2019 04:41:17 2.9 C 43 %
1758 12-12-2019 04:51:17 2.4 C 42 %
1759 12-12-2019 05:01:17 2 C 42 %
1760 12-12-2019 05:11:17 2.1 C 42 %
1761 12-12-2019 05:21:17 2.2 C 42 %
1762 12-12-2019 05:31:18 2.1 C 42 %
1763 12-12-2019 05:41:18 2.1 C 42 %
1764 12-12-2019 05:51:17 2.1 C 42 %
1765 12-12-2019 06:01:17 1.9 C 43 %
1766 12-12-2019 06:11:17 2 C 42 %
1767 12-12-2019 06:21:17 2.1 C 42 %
1768 12-12-2019 06:31:17 2.1 C 42 %
1769 12-12-2019 06:41:17 2.3 C 42 %
1770 12-12-2019 06:51:17 2.7 C 43 %
1771 12-12-2019 07:01:17 3 C 42 %
1772 12-12-2019 07:11:17 3 C 42 %
1773 12-12-2019 07:21:17 3 C 42 %
1774 12-12-2019 07:31:17 3 C 42 %
1775 12-12-2019 07:41:17 2.8 C 42 %
Sensor: Nr:Datum:Temp:Feuchte:
Aussen-T/F 1776 12-12-2019 07:51:17 2.9 C 42 %
1777 12-12-2019 08:01:17 2.9 C 42 %
1778 12-12-2019 08:11:17 3.1 C 42 %
1779 12-12-2019 08:21:17 3.2 C 42 %
1780 12-12-2019 08:31:18 3.3 C 42 %
1781 12-12-2019 08:41:18 3.5 C 42 %
1782 12-12-2019 08:51:17 3.5 C 42 %
1783 12-12-2019 09:01:18 3.5 C 42 %
1784 12-12-2019 09:11:18 3.6 C 42 %
1785 12-12-2019 09:21:17 3.9 C 42 %
1786 12-12-2019 09:31:17 3.9 C 42 %
1787 12-12-2019 09:41:17 3.7 C 41 %
1788 12-12-2019 09:51:17 3.5 C 41 %
1789 12-12-2019 10:01:17 3.9 C 41 %
1790 12-12-2019 10:11:17 4 C 40 %
1791 12-12-2019 10:21:18 4.4 C 37 %
1792 12-12-2019 10:31:17 4.6 C 35 %
1793 12-12-2019 10:41:17 4.7 C 32 %
1794 12-12-2019 10:51:17 4.8 C 31 %
1795 12-12-2019 11:01:18 4.7 C 32 %
1796 12-12-2019 11:11:18 4.6 C 31 %
1797 12-12-2019 11:21:17 4.4 C 31 %
1798 12-12-2019 11:31:17 4.4 C 32 %
1799 12-12-2019 11:41:17 4.7 C 31 %
1800 12-12-2019 11:51:18 4.9 C 29 %
Sensor: Nr:Datum:Temp:Feuchte:
Aussen-T/F 1801 12-12-2019 12:01:17 5.1 C 29 %
1802 12-12-2019 12:11:17 5.1 C 27 %
1803 12-12-2019 12:21:17 5 C 26 %
1804 12-12-2019 12:31:18 4.7 C 27 %
1805 12-12-2019 12:41:18 4.7 C 28 %
1806 12-12-2019 12:51:17 4.7 C 27 %
1807 12-12-2019 13:01:17 4.6 C 28 %
1808 12-12-2019 13:11:18 5 C 26 %
1809 12-12-2019 13:21:17 4.8 C 27 %
1810 12-12-2019 13:31:17 4.6 C 26 %
1811 12-12-2019 13:41:17 4.2 C 26 %
1812 12-12-2019 13:51:17 4.6 C 25 %
1813 12-12-2019 14:01:17 4.6 C 25 %
1814 12-12-2019 14:11:17 4.3 C 25 %
1815 12-12-2019 14:21:17 4 C 27 %
1816 12-12-2019 14:31:18 4.5 C 25 %
1817 12-12-2019 14:41:18 4.8 C 25 %
1818 12-12-2019 14:51:17 4.7 C 25 %
1819 12-12-2019 15:01:18 4 C 26 %
1820 12-12-2019 15:11:18 4.2 C 26 %
1821 12-12-2019 15:21:17 3.6 C 29 %
1822 12-12-2019 15:31:17 3.5 C 29 %
1823 12-12-2019 15:41:17 3.8 C 28 %
1824 12-12-2019 15:51:17 3.7 C 28 %
1825 12-12-2019 16:01:17 3.6 C 28 %
Sensor: Nr:Datum:Temp:Feuchte:
Aussen-T/F 1826 12-12-2019 16:11:17 3.7 C 26 %
1827 12-12-2019 16:21:18 3.5 C 27 %
1828 12-12-2019 16:31:17 3.4 C 26 %
1829 12-12-2019 16:41:17 3.3 C 28 %
1830 12-12-2019 16:51:17 3.1 C 30 %
1831 12-12-2019 17:01:17 2.6 C 30 %
1832 12-12-2019 17:11:17 1.7 C 35 %
1833 12-12-2019 17:21:17 1.2 C 36 %
1834 12-12-2019 17:31:17 1.1 C 38 %
1835 12-12-2019 17:41:17 0.9 C 41 %
1836 12-12-2019 17:51:17 1 C 40 %
1837 12-12-2019 18:01:17 1.1 C 40 %
1838 12-12-2019 18:11:17 1.1 C 40 %
1839 12-12-2019 18:21:17 1.1 C 40 %
1840 12-12-2019 18:31:17 1 C 40 %
1841 12-12-2019 18:41:17 0.9 C 41 %
1842 12-12-2019 18:51:17 0.7 C 41 %
1843 12-12-2019 19:01:17 0.7 C 41 %
1844 12-12-2019 19:11:17 0.6 C 41 %
1845 12-12-2019 19:21:17 0.6 C 42 %
1846 12-12-2019 19:31:17 0.6 C 42 %
1847 12-12-2019 19:41:17 0.7 C 42 %
1848 12-12-2019 19:51:17 0.7 C 41 %
1849 12-12-2019 20:01:17 0.6 C 41 %
1850 12-12-2019 20:11:17 0.6 C 41 %
Sensor: Nr:Datum:Temp:Feuchte:
Aussen-T/F 1851 12-12-2019 20:21:17 0.6 C 41 %
1852 12-12-2019 20:31:17 0.6 C 41 %
1853 12-12-2019 20:41:17 0.6 C 41 %
1854 12-12-2019 20:51:17 1.3 C 42 %
1855 12-12-2019 21:01:17 1.6 C 38 %
1856 12-12-2019 21:11:17 1.6 C 36 %
1857 12-12-2019 21:21:17 1.3 C 36 %
1858 12-12-2019 21:31:17 1.3 C 35 %
1859 12-12-2019 21:41:17 1 C 35 %
1860 12-12-2019 21:51:17 0.7 C 37 %
1861 12-12-2019 22:01:17 1.2 C 37 %
1862 12-12-2019 22:11:17 0.9 C 37 %
1863 12-12-2019 22:21:18 0.4 C 38 %
1864 12-12-2019 22:31:17 0.3 C 39 %
1865 12-12-2019 22:41:17 0.2 C 40 %
1866 12-12-2019 22:51:17 0.4 C 39 %
1867 12-12-2019 23:01:18 1.1 C 37 %
1868 12-12-2019 23:11:18 1.5 C 35 %
1869 12-12-2019 23:21:17 1.9 C 32 %
1870 12-12-2019 23:31:17 1.6 C 31 %
1871 12-12-2019 23:41:17 1.4 C 32 %
1872 12-12-2019 23:51:17 1.5 C 31 %
1873 13-12-2019 00:01:17 0.9 C 33 %
1874 13-12-2019 00:11:17 0.6 C 35 %
1875 13-12-2019 00:21:17 1 C 33 %
Sensor: Nr:Datum:Temp:Feuchte:
Aussen-T/F 1876 13-12-2019 00:31:18 0.7 C 34 %
1877 13-12-2019 00:41:18 0.9 C 35 %
1878 13-12-2019 00:51:17 1.3 C 32 %
1879 13-12-2019 01:01:18 1.7 C 30 %
1880 13-12-2019 01:11:18 1.8 C 29 %
1881 13-12-2019 01:21:17 2 C 27 %
1882 13-12-2019 01:31:17 1.9 C 28 %
1883 13-12-2019 01:41:17 2 C 27 %
1884 13-12-2019 01:51:17 2 C 27 %
1885 13-12-2019 02:01:18 1.9 C 29 %
1886 13-12-2019 02:11:18 2 C 27 %
1887 13-12-2019 02:21:17 2 C 27 %
1888 13-12-2019 02:31:17 2 C 27 %
1889 13-12-2019 02:41:17 2 C 27 %
1890 13-12-2019 02:51:17 2 C 27 %
1891 13-12-2019 03:01:17 1.8 C 29 %
1892 13-12-2019 03:11:17 1.8 C 30 %
1893 13-12-2019 03:21:17 1.7 C 30 %
1894 13-12-2019 03:31:17 1.6 C 30 %
1895 13-12-2019 03:41:17 1.7 C 30 %
1896 13-12-2019 03:51:17 1.6 C 31 %
1897 13-12-2019 04:01:17 1.4 C 32 %
1898 13-12-2019 04:11:17 1.5 C 32 %
1899 13-12-2019 04:21:17 1.6 C 32 %
1900 13-12-2019 04:31:17 1.6 C 32 %
Sensor: Nr:Datum:Temp:Feuchte:
Aussen-T/F 1901 13-12-2019 04:41:17 1.6 C 32 %
1902 13-12-2019 04:51:17 1.4 C 34 %
1903 13-12-2019 05:01:17 1.4 C 35 %
1904 13-12-2019 05:11:17 1.5 C 34 %
1905 13-12-2019 05:21:17 1.5 C 34 %
1906 13-12-2019 05:31:18 1.7 C 33 %
1907 13-12-2019 05:41:18 1.7 C 32 %
1908 13-12-2019 05:51:17 1.8 C 33 %
1909 13-12-2019 06:01:17 1.9 C 32 %
1910 13-12-2019 06:11:17 2 C 31 %
1911 13-12-2019 06:21:17 2 C 31 %
1912 13-12-2019 06:31:17 2 C 32 %
1913 13-12-2019 06:41:17 1.7 C 35 %
1914 13-12-2019 06:51:17 1.8 C 37 %
1915 13-12-2019 07:01:17 1.8 C 37 %
1916 13-12-2019 07:11:18 1.7 C 39 %
1917 13-12-2019 07:21:17 1.8 C 38 %
1918 13-12-2019 07:31:17 1.8 C 40 %
1919 13-12-2019 07:41:17 1.8 C 39 %
1920 13-12-2019 07:51:17 1.9 C 38 %
1921 13-12-2019 08:01:17 1.8 C 38 %
1922 13-12-2019 08:11:17 1.8 C 39 %
1923 13-12-2019 08:21:17 1.7 C 40 %
1924 13-12-2019 08:31:17 1.7 C 41 %
1925 13-12-2019 08:41:17 1.6 C 41 %
Sensor: Nr:Datum:Temp:Feuchte:
Aussen-T/F 1926 13-12-2019 08:51:17 1.7 C 41 %
1927 13-12-2019 09:01:17 1.9 C 40 %
1928 13-12-2019 09:11:17 1.9 C 40 %
1929 13-12-2019 09:21:17 1.9 C 40 %
1930 13-12-2019 09:31:17 1.7 C 42 %
1931 13-12-2019 09:41:17 1.7 C 42 %
1932 13-12-2019 09:51:18 1.9 C 43 %
1933 13-12-2019 10:01:17 1.8 C 43 %
1934 13-12-2019 10:11:17 1.9 C 43 %
1935 13-12-2019 10:21:18 2 C 41 %
1936 13-12-2019 10:31:17 2.2 C 41 %
1937 13-12-2019 10:41:17 2.3 C 41 %
1938 13-12-2019 10:51:18 2.3 C 41 %
1939 13-12-2019 11:01:17 2.4 C 41 %
1940 13-12-2019 11:11:17 2.3 C 40 %
1941 13-12-2019 11:21:17 2.3 C 40 %
1942 13-12-2019 11:31:17 2.4 C 41 %
1943 13-12-2019 11:41:17 2.5 C 41 %
1944 13-12-2019 11:51:18 2.8 C 42 %
1945 13-12-2019 12:01:17 3 C 41 %
1946 13-12-2019 12:11:17 3.1 C 39 %
1947 13-12-2019 12:21:17 3.2 C 38 %
1948 13-12-2019 12:31:17 3.5 C 38 %
1949 13-12-2019 12:41:17 3.5 C 38 %
1950 13-12-2019 12:51:18 3.6 C 38 %
Sensor: Nr:Datum:Temp:Feuchte:
Aussen-T/F 1951 13-12-2019 13:01:18 3.8 C 39 %
1952 13-12-2019 13:11:18 4.1 C 37 %
1953 13-12-2019 13:21:17 4.6 C 38 %
1954 13-12-2019 13:31:17 5.2 C 35 %
1955 13-12-2019 13:41:17 5.7 C 35 %
1956 13-12-2019 13:51:17 6.4 C 31 %
1957 13-12-2019 14:01:17 6.7 C 30 %
1958 13-12-2019 14:11:17 7 C 28 %
1959 13-12-2019 14:21:17 6.8 C 29 %
1960 13-12-2019 14:31:17 6.8 C 28 %
1961 13-12-2019 14:41:17 6.7 C 28 %
1962 13-12-2019 14:51:18 6.4 C 29 %
1963 13-12-2019 15:01:18 6.3 C 29 %
1964 13-12-2019 15:11:18 6.3 C 29 %
1965 13-12-2019 15:21:17 6.2 C 30 %
1966 13-12-2019 15:31:17 5.9 C 30 %
1967 13-12-2019 15:41:17 5.8 C 31 %
1968 13-12-2019 15:51:17 5.5 C 31 %
1969 13-12-2019 16:01:18 5.3 C 30 %
1970 13-12-2019 16:11:18 5.4 C 30 %
1971 13-12-2019 16:21:17 5.3 C 30 %
1972 13-12-2019 16:31:17 5.1 C 30 %
1973 13-12-2019 16:41:17 4.8 C 31 %
1974 13-12-2019 16:51:17 4.5 C 31 %
1975 13-12-2019 17:01:17 4.6 C 31 %
Sensor: Nr:Datum:Temp:Feuchte:
Aussen-T/F 1976 13-12-2019 17:11:17 4.5 C 31 %
1977 13-12-2019 17:21:17 4.3 C 34 %
1978 13-12-2019 17:31:18 4.3 C 34 %
1979 13-12-2019 17:41:18 4.2 C 33 %
1980 13-12-2019 17:51:17 4 C 33 %
1981 13-12-2019 18:01:17 3.8 C 36 %
1982 13-12-2019 18:11:17 3.7 C 40 %
1983 13-12-2019 18:21:17 3.8 C 39 %
1984 13-12-2019 18:31:17 3.8 C 40 %
1985 13-12-2019 18:41:18 3.8 C 39 %
1986 13-12-2019 18:51:17 3.9 C 36 %
1987 13-12-2019 19:01:17 3.9 C 36 %
1988 13-12-2019 19:11:17 3.9 C 35 %
1989 13-12-2019 19:21:17 4 C 34 %
1990 13-12-2019 19:31:17 4.1 C 35 %
1991 13-12-2019 19:41:17 4 C 36 %
1992 13-12-2019 19:51:17 4.6 C 32 %
1993 13-12-2019 20:01:17 4.6 C 32 %
1994 13-12-2019 20:11:17 4.8 C 31 %
1995 13-12-2019 20:21:17 4.7 C 31 %
1996 13-12-2019 20:31:17 4.7 C 31 %
1997 13-12-2019 20:41:17 4.7 C 32 %
1998 13-12-2019 20:51:17 4.5 C 32 %
1999 13-12-2019 21:01:17 4.3 C 34 %
2000 13-12-2019 21:11:17 4 C 36 %
Sensor: Nr:Datum:Temp:Feuchte:
Aussen-T/F 2001 13-12-2019 21:21:17 4.5 C 35 %
2002 13-12-2019 21:31:18 4.4 C 33 %
2003 13-12-2019 21:41:18 4.4 C 35 %
2004 13-12-2019 21:51:17 4.6 C 32 %
2005 13-12-2019 22:01:17 4.6 C 31 %
2006 13-12-2019 22:11:17 4.6 C 30 %
2007 13-12-2019 22:21:17 4.7 C 30 %
2008 13-12-2019 22:31:18 4.7 C 30 %
2009 13-12-2019 22:41:18 3.8 C 34 %
2010 13-12-2019 22:51:17 3.8 C 36 %
2011 13-12-2019 23:01:17 4.5 C 32 %
2012 13-12-2019 23:11:17 5.1 C 29 %
2013 13-12-2019 23:21:17 5.2 C 28 %
2014 13-12-2019 23:31:17 5.2 C 28 %
2015 13-12-2019 23:41:17 5 C 30 %
2016 13-12-2019 23:51:17 5 C 30 %
2017 14-12-2019 00:01:17 4.4 C 32 %
2018 14-12-2019 00:11:17 4.5 C 30 %
2019 14-12-2019 00:21:17 4.6 C 30 %
2020 14-12-2019 00:31:18 4.3 C 33 %
2021 14-12-2019 00:41:18 4.7 C 32 %
2022 14-12-2019 00:51:17 5.1 C 28 %
2023 14-12-2019 01:01:17 5.4 C 27 %
2024 14-12-2019 01:11:17 5.3 C 27 %
2025 14-12-2019 01:21:17 5.2 C 26 %
Sensor: Nr:Datum:Temp:Feuchte:
Aussen-T/F 2026 14-12-2019 01:31:17 5.1 C 26 %
2027 14-12-2019 01:41:17 5.3 C 25 %
2028 14-12-2019 01:51:17 5.2 C 25 %
2029 14-12-2019 02:01:17 5 C 26 %
2030 14-12-2019 02:11:17 4.5 C 30 %
2031 14-12-2019 02:21:17 4.6 C 29 %
2032 14-12-2019 02:31:18 4.7 C 29 %
2033 14-12-2019 02:41:18 4.8 C 28 %
2034 14-12-2019 02:51:17 4.5 C 30 %
2035 14-12-2019 03:01:18 4.2 C 33 %
2036 14-12-2019 03:11:18 4.1 C 36 %
2037 14-12-2019 03:21:17 3.9 C 38 %
2038 14-12-2019 03:31:17 3.9 C 39 %
2039 14-12-2019 03:41:17 3.9 C 36 %
2040 14-12-2019 03:51:18 3.8 C 36 %
2041 14-12-2019 04:01:17 3.8 C 40 %
2042 14-12-2019 04:11:17 3.8 C 41 %
2043 14-12-2019 04:21:17 3.7 C 42 %
2044 14-12-2019 04:31:18 3.5 C 42 %
2045 14-12-2019 04:41:18 3.5 C 42 %
2046 14-12-2019 04:51:17 3.4 C 42 %
2047 14-12-2019 05:01:17 3.4 C 41 %
2048 14-12-2019 05:11:17 3.4 C 41 %
2049 14-12-2019 05:21:17 3.4 C 42 %
2050 14-12-2019 05:31:18 3.4 C 42 %
Sensor: Nr:Datum:Temp:Feuchte:
Aussen-T/F 2051 14-12-2019 05:41:18 3.4 C 43 %
2052 14-12-2019 05:51:17 3.4 C 43 %
2053 14-12-2019 06:01:18 3.4 C 42 %
2054 14-12-2019 06:11:18 3.7 C 43 %
2055 14-12-2019 06:21:17 4 C 42 %
2056 14-12-2019 06:31:17 5 C 40 %
2057 14-12-2019 06:41:17 5.2 C 39 %
2058 14-12-2019 06:51:18 5.6 C 36 %
2059 14-12-2019 07:01:17 5.6 C 36 %
2060 14-12-2019 07:11:18 5.7 C 36 %
2061 14-12-2019 07:21:17 5.8 C 36 %
2062 14-12-2019 07:31:17 5.8 C 36 %
2063 14-12-2019 07:41:17 6.3 C 37 %
2064 14-12-2019 07:51:17 6.5 C 36 %
2065 14-12-2019 08:01:17 6.8 C 35 %
2066 14-12-2019 08:11:17 7 C 28 %
2067 14-12-2019 08:21:17 7.2 C 26 %
2068 14-12-2019 08:31:18 7.1 C 25 %
2069 14-12-2019 08:41:18 6.9 C 25 %
2070 14-12-2019 08:51:17 6.7 C 25 %
2071 14-12-2019 09:01:17 6.9 C 23 %
2072 14-12-2019 09:11:17 6.7 C 23 %
2073 14-12-2019 09:21:18 6.5 C 23 %
2074 14-12-2019 09:31:18 6.7 C 20 %
2075 14-12-2019 09:41:18 6.5 C 21 %
Sensor: Nr:Datum:Temp:Feuchte:
Aussen-T/F 2076 14-12-2019 09:51:17 6.7 C 21 %
2077 14-12-2019 10:01:17 6.7 C 21 %
2078 14-12-2019 10:11:17 6.6 C 23 %
2079 14-12-2019 10:21:17 6.6 C 25 %
2080 14-12-2019 10:31:17 6.7 C 25 %
2081 14-12-2019 10:41:17 6.4 C 26 %
2082 14-12-2019 10:51:17 5.9 C 29 %
2083 14-12-2019 11:01:18 5.9 C 29 %
2084 14-12-2019 11:11:18 6.4 C 27 %
2085 14-12-2019 11:21:17 6.7 C 26 %
2086 14-12-2019 11:31:17 6.3 C 26 %
2087 14-12-2019 11:41:17 6.4 C 25 %
2088 14-12-2019 11:51:17 6.9 C 20 %
2089 14-12-2019 12:01:17 7 C 20 %
2090 14-12-2019 12:11:17 7.2 C 20 %
2091 14-12-2019 12:21:18 7 C 20 %
2092 14-12-2019 12:31:17 7.3 C 20 %
2093 14-12-2019 12:41:17 7.6 C 20 %
2094 14-12-2019 12:51:17 7.8 C 20 %
2095 14-12-2019 13:01:17 7.9 C 20 %
2096 14-12-2019 13:11:17 8 C 20 %
2097 14-12-2019 13:21:17 8.4 C 20 %
2098 14-12-2019 13:31:17 8.4 C 20 %
2099 14-12-2019 13:41:17 8.3 C 20 %
2100 14-12-2019 13:51:17 8.4 C 20 %
Sensor: Nr:Datum:Temp:Feuchte:
Aussen-T/F 2101 14-12-2019 14:01:18 8.5 C 20 %
2102 14-12-2019 14:11:18 8.4 C 20 %
2103 14-12-2019 14:21:17 8.4 C 20 %
2104 14-12-2019 14:31:18 8.7 C 20 %
2105 14-12-2019 14:41:18 8.8 C 20 %
2106 14-12-2019 14:51:18 8.6 C 20 %
2107 14-12-2019 15:01:17 7.3 C 23 %
2108 14-12-2019 15:11:17 6.8 C 28 %
2109 14-12-2019 15:21:17 6.6 C 30 %
2110 14-12-2019 15:31:17 6.7 C 28 %
2111 14-12-2019 15:41:18 6.8 C 28 %
2112 14-12-2019 15:51:17 7.1 C 26 %
2113 14-12-2019 16:01:17 7 C 26 %
2114 14-12-2019 16:11:17 6.9 C 26 %
2115 14-12-2019 16:21:17 6.9 C 27 %
2116 14-12-2019 16:31:18 7.2 C 25 %
2117 14-12-2019 16:41:18 7.6 C 25 %
2118 14-12-2019 16:51:17 7.5 C 25 %
2119 14-12-2019 17:01:17 7.6 C 25 %
2120 14-12-2019 17:11:17 7.6 C 25 %
2121 14-12-2019 17:21:17 7.4 C 25 %
2122 14-12-2019 17:31:18 7.2 C 26 %
2123 14-12-2019 17:41:18 6.9 C 27 %
2124 14-12-2019 17:51:17 7.1 C 26 %
2125 14-12-2019 18:01:17 7.1 C 26 %
Sensor: Nr:Datum:Temp:Feuchte:
Aussen-T/F 2126 14-12-2019 18:11:17 7.3 C 26 %
2127 14-12-2019 18:22:17 7.6 C 25 %
2128 14-12-2019 18:31:17 7.8 C 25 %
2129 14-12-2019 18:41:17 7.4 C 25 %
2130 14-12-2019 18:52:17 7 C 26 %
2131 14-12-2019 19:01:18 6.7 C 27 %
2132 14-12-2019 19:11:18 6.2 C 28 %
2133 14-12-2019 19:21:17 6.4 C 26 %
2134 14-12-2019 19:31:17 6.1 C 26 %
2135 14-12-2019 19:41:17 6.4 C 25 %
2136 14-12-2019 19:52:17 6.4 C 25 %
2137 14-12-2019 20:01:18 6.6 C 25 %
2138 14-12-2019 20:11:18 6.7 C 25 %
2139 14-12-2019 20:21:17 6.9 C 25 %
2140 14-12-2019 20:31:17 5.8 C 27 %
2141 14-12-2019 20:41:17 5.9 C 27 %
2142 14-12-2019 20:52:17 7 C 25 %
2143 14-12-2019 21:01:17 7.2 C 25 %
2144 14-12-2019 21:11:17 7 C 25 %
2145 14-12-2019 21:22:17 7.1 C 25 %
2146 14-12-2019 21:31:18 6.7 C 26 %
2147 14-12-2019 21:41:18 6.8 C 26 %
2148 14-12-2019 21:52:17 6.9 C 26 %
2149 14-12-2019 22:02:17 7.1 C 25 %
2150 14-12-2019 22:11:17 6.8 C 26 %
Sensor: Nr:Datum:Temp:Feuchte:
Aussen-T/F 2151 14-12-2019 22:22:17 6.9 C 26 %
2152 14-12-2019 22:31:17 7.3 C 25 %
2153 14-12-2019 22:41:17 7 C 26 %
2154 14-12-2019 22:52:17 7.3 C 25 %
2155 14-12-2019 23:02:17 7.1 C 25 %
2156 14-12-2019 23:12:17 7.3 C 25 %
2157 14-12-2019 23:22:17 7 C 26 %
2158 14-12-2019 23:31:18 7 C 26 %
2159 14-12-2019 23:41:18 7.4 C 25 %
2160 14-12-2019 23:51:18 7 C 25 %
2161 15-12-2019 00:02:17 6.4 C 27 %
2162 15-12-2019 00:11:17 6 C 28 %
2163 15-12-2019 00:22:17 5.6 C 30 %
2164 15-12-2019 00:31:18 5.3 C 31 %
2165 15-12-2019 00:41:18 5.1 C 32 %
2166 15-12-2019 00:52:17 5.2 C 32 %
2167 15-12-2019 01:02:17 5.2 C 32 %
2168 15-12-2019 01:12:17 5.3 C 33 %
2169 15-12-2019 01:22:17 5.5 C 33 %
2170 15-12-2019 01:31:18 5.7 C 31 %
2171 15-12-2019 01:41:18 5.6 C 31 %
2172 15-12-2019 01:52:17 5.6 C 31 %
2173 15-12-2019 02:02:17 5.9 C 31 %
2174 15-12-2019 02:12:17 5.8 C 32 %
2175 15-12-2019 02:22:17 5.9 C 32 %
Sensor: Nr:Datum:Temp:Feuchte:
Aussen-T/F 2176 15-12-2019 02:32:18 5.7 C 35 %
2177 15-12-2019 02:42:18 5.8 C 37 %
2178 15-12-2019 02:52:17 5.9 C 39 %
2179 15-12-2019 03:02:18 5.9 C 40 %
2180 15-12-2019 03:12:18 5.9 C 41 %
2181 15-12-2019 03:22:17 6 C 41 %
2182 15-12-2019 03:32:17 6 C 42 %
2183 15-12-2019 03:42:17 6.3 C 42 %
2184 15-12-2019 03:52:17 6.4 C 42 %
2185 15-12-2019 04:02:17 6.8 C 42 %
2186 15-12-2019 04:12:17 7.3 C 41 %
2187 15-12-2019 04:22:17 7.3 C 41 %
2188 15-12-2019 04:32:17 7.5 C 41 %
2189 15-12-2019 04:42:17 7.9 C 40 %
2190 15-12-2019 04:52:17 8 C 39 %
2191 15-12-2019 05:02:17 8.2 C 38 %
2192 15-12-2019 05:12:17 8.2 C 37 %
2193 15-12-2019 05:22:17 8.4 C 37 %
2194 15-12-2019 05:32:18 9 C 34 %
2195 15-12-2019 05:42:18 10 C 30 %
2196 15-12-2019 05:52:17 10.2 C 30 %
2197 15-12-2019 06:02:17 10.3 C 29 %
2198 15-12-2019 06:12:17 10.3 C 29 %
2199 15-12-2019 06:22:17 10.1 C 29 %
2200 15-12-2019 06:32:17 10.5 C 28 %
Sensor: Nr:Datum:Temp:Feuchte:
Aussen-T/F 2201 15-12-2019 06:42:17 10.8 C 27 %
2202 15-12-2019 06:52:17 10.7 C 27 %
2203 15-12-2019 07:02:17 10.5 C 27 %
2204 15-12-2019 07:12:17 10.9 C 27 %
2205 15-12-2019 07:22:17 10.3 C 27 %
2206 15-12-2019 07:32:17 10.6 C 27 %
2207 15-12-2019 07:42:17 10.5 C 27 %
2208 15-12-2019 07:52:17 10.7 C 27 %
2209 15-12-2019 08:02:17 10.7 C 27 %
2210 15-12-2019 08:12:17 11 C 26 %
2211 15-12-2019 08:22:17 10.9 C 27 %
2212 15-12-2019 08:32:18 10.6 C 27 %
2213 15-12-2019 08:42:18 10.2 C 28 %
2214 15-12-2019 08:52:17 9.5 C 34 %
2215 15-12-2019 09:02:17 9.2 C 34 %
2216 15-12-2019 09:12:17 8.9 C 35 %
2217 15-12-2019 09:22:17 8.7 C 33 %
2218 15-12-2019 09:32:17 8.5 C 34 %
2219 15-12-2019 09:42:17 8.2 C 35 %
2220 15-12-2019 09:52:18 8 C 36 %
2221 15-12-2019 10:02:18 8.1 C 34 %
2222 15-12-2019 10:12:18 8.2 C 32 %
2223 15-12-2019 10:22:18 8.2 C 34 %
2224 15-12-2019 10:32:17 8.1 C 33 %
2225 15-12-2019 10:42:17 8.5 C 31 %
Sensor: Nr:Datum:Temp:Feuchte:
Aussen-T/F 2226 15-12-2019 10:52:17 8.7 C 30 %
2227 15-12-2019 11:02:17 8.4 C 30 %
2228 15-12-2019 11:12:17 8.5 C 30 %
2229 15-12-2019 11:22:17 8.5 C 28 %
2230 15-12-2019 11:32:17 8.6 C 28 %
2231 15-12-2019 11:42:17 8.6 C 28 %
2232 15-12-2019 11:52:17 8.3 C 27 %
2233 15-12-2019 12:02:17 8.3 C 27 %
2234 15-12-2019 12:12:17 8.1 C 27 %
2235 15-12-2019 12:22:17 8.1 C 28 %
2236 15-12-2019 12:32:17 7.9 C 29 %
2237 15-12-2019 12:42:17 8.2 C 28 %
2238 15-12-2019 12:52:18 8.4 C 28 %
2239 15-12-2019 13:02:18 8.7 C 27 %
2240 15-12-2019 13:12:18 9.1 C 25 %
2241 15-12-2019 13:22:17 9.3 C 23 %
2242 15-12-2019 13:32:17 9.2 C 21 %
2243 15-12-2019 13:42:17 9.2 C 20 %
2244 15-12-2019 13:52:18 9.2 C 20 %
2245 15-12-2019 14:02:17 9.2 C 20 %
2246 15-12-2019 14:12:17 9.3 C 20 %
2247 15-12-2019 14:22:17 9.3 C 20 %
2248 15-12-2019 14:32:17 9.1 C 20 %
2249 15-12-2019 14:42:17 9.1 C 20 %
2250 15-12-2019 14:52:17 9 C 20 %
Sensor: Nr:Datum:Temp:Feuchte:
Aussen-T/F 2251 15-12-2019 15:02:17 9 C 20 %
2252 15-12-2019 15:12:17 8.9 C 20 %
2253 15-12-2019 15:22:17 8.9 C 20 %
2254 15-12-2019 15:32:17 8.8 C 20 %
2255 15-12-2019 15:42:17 8.7 C 20 %
2256 15-12-2019 15:52:17 8.7 C 20 %
2257 15-12-2019 16:02:17 8.4 C 20 %
2258 15-12-2019 16:12:17 8.2 C 20 %
2259 15-12-2019 16:22:18 8.4 C 20 %
2260 15-12-2019 16:32:17 7.9 C 20 %
2261 15-12-2019 16:42:17 7.6 C 20 %
2262 15-12-2019 16:52:17 8 C 20 %
2263 15-12-2019 17:02:17 7.4 C 20 %
2264 15-12-2019 17:12:17 7.4 C 20 %
2265 15-12-2019 17:22:17 7.8 C 20 %
2266 15-12-2019 17:32:17 7.2 C 21 %
2267 15-12-2019 17:42:17 7.6 C 20 %
2268 15-12-2019 17:52:17 7.7 C 20 %
2269 15-12-2019 18:02:17 7.5 C 20 %
2270 15-12-2019 18:12:17 8.2 C 20 %
2271 15-12-2019 18:22:17 7.5 C 20 %
2272 15-12-2019 18:32:17 6.9 C 25 %
2273 15-12-2019 18:42:17 6.2 C 27 %
2274 15-12-2019 18:52:18 5.9 C 29 %
2275 15-12-2019 19:02:17 5.4 C 30 %
Sensor: Nr:Datum:Temp:Feuchte:
Aussen-T/F 2276 15-12-2019 19:12:17 5.3 C 31 %
2277 15-12-2019 19:22:17 4.9 C 32 %
2278 15-12-2019 19:32:18 5.3 C 32 %
2279 15-12-2019 19:42:18 5 C 33 %
2280 15-12-2019 19:52:17 5.4 C 33 %
2281 15-12-2019 20:02:17 5.2 C 33 %
2282 15-12-2019 20:12:17 4.7 C 35 %
2283 15-12-2019 20:22:17 4.4 C 36 %
2284 15-12-2019 20:32:17 4.3 C 37 %
2285 15-12-2019 20:42:17 3.9 C 39 %
2286 15-12-2019 20:52:17 3.7 C 40 %
2287 15-12-2019 21:02:17 3.5 C 41 %
2288 15-12-2019 21:12:17 3.3 C 41 %
2289 15-12-2019 21:22:17 3.1 C 41 %
2290 15-12-2019 21:32:18 2.8 C 42 %
2291 15-12-2019 21:42:18 2.9 C 43 %
2292 15-12-2019 21:52:17 3.3 C 43 %
2293 15-12-2019 22:02:17 3.3 C 44 %
2294 15-12-2019 22:12:17 3.3 C 43 %
2295 15-12-2019 22:22:17 3.5 C 43 %
2296 15-12-2019 22:32:17 3.5 C 43 %
2297 15-12-2019 22:42:17 3.4 C 43 %
2298 15-12-2019 22:52:18 3.3 C 43 %
2299 15-12-2019 23:02:17 3.5 C 43 %
2300 15-12-2019 23:12:18 3.6 C 43 %
Sensor: Nr:Datum:Temp:Feuchte:
Aussen-T/F 2301 15-12-2019 23:22:17 3.7 C 43 %
2302 15-12-2019 23:32:18 3.5 C 42 %
2303 15-12-2019 23:42:18 3.3 C 42 %
2304 15-12-2019 23:52:17 3.8 C 43 %
2305 16-12-2019 00:02:17 4 C 42 %
2306 16-12-2019 00:12:17 4.4 C 42 %
2307 16-12-2019 00:22:17 4.4 C 42 %
2308 16-12-2019 00:32:17 4.5 C 42 %
2309 16-12-2019 00:42:17 4.5 C 42 %
2310 16-12-2019 00:52:18 4.7 C 42 %
2311 16-12-2019 01:02:17 5.1 C 41 %
2312 16-12-2019 01:12:17 5 C 41 %
2313 16-12-2019 01:22:17 5.2 C 42 %
2314 16-12-2019 01:32:17 5.2 C 41 %
2315 16-12-2019 01:42:18 5.3 C 42 %
2316 16-12-2019 01:52:17 5.5 C 42 %
2317 16-12-2019 02:02:18 5.4 C 42 %
2318 16-12-2019 02:12:18 5.5 C 42 %
2319 16-12-2019 02:22:17 5.7 C 42 %
2320 16-12-2019 02:32:17 5.7 C 42 %
2321 16-12-2019 02:42:17 5.9 C 42 %
2322 16-12-2019 02:52:18 5.8 C 41 %
2323 16-12-2019 03:02:17 5.8 C 41 %
2324 16-12-2019 03:12:17 5.9 C 41 %
2325 16-12-2019 03:22:17 5.9 C 41 %
Sensor: Nr:Datum:Temp:Feuchte:
Aussen-T/F 2326 16-12-2019 03:32:18 5.9 C 41 %
2327 16-12-2019 03:42:18 5.8 C 41 %
2328 16-12-2019 03:52:17 6 C 41 %
2329 16-12-2019 04:02:17 6 C 41 %
2330 16-12-2019 04:12:17 6 C 41 %
2331 16-12-2019 04:22:17 5.9 C 41 %
2332 16-12-2019 04:32:17 6.1 C 41 %
2333 16-12-2019 04:42:17 6.2 C 41 %
2334 16-12-2019 04:52:17 6.3 C 41 %
2335 16-12-2019 05:02:17 6.4 C 41 %
2336 16-12-2019 05:12:17 6.4 C 41 %
2337 16-12-2019 05:22:17 6.5 C 41 %
2338 16-12-2019 05:32:17 6.6 C 41 %
2339 16-12-2019 05:42:17 6.6 C 41 %
2340 16-12-2019 05:52:17 6.8 C 41 %
2341 16-12-2019 06:02:17 6.9 C 41 %
2342 16-12-2019 06:12:17 6.9 C 41 %
2343 16-12-2019 06:22:17 6.8 C 40 %
2344 16-12-2019 06:32:17 6.7 C 40 %
2345 16-12-2019 06:42:17 6.8 C 40 %
2346 16-12-2019 06:52:17 6.8 C 40 %
2347 16-12-2019 07:02:17 6.8 C 40 %
2348 16-12-2019 07:12:17 6.7 C 40 %
2349 16-12-2019 07:22:17 6.8 C 40 %
2350 16-12-2019 07:32:18 6.9 C 41 %
Sensor: Nr:Datum:Temp:Feuchte:
Aussen-T/F 2351 16-12-2019 07:42:18 6.9 C 41 %
2352 16-12-2019 07:52:17 7 C 40 %
2353 16-12-2019 08:02:17 7.1 C 40 %
2354 16-12-2019 08:12:17 7 C 40 %
2355 16-12-2019 08:22:17 7.1 C 40 %
2356 16-12-2019 08:32:17 7.1 C 40 %
2357 16-12-2019 08:42:17 7.1 C 40 %
2358 16-12-2019 08:52:17 7.2 C 40 %
2359 16-12-2019 09:02:17 7.3 C 40 %
2360 16-12-2019 09:12:17 7.5 C 40 %
2361 16-12-2019 09:22:18 7.4 C 40 %
2362 16-12-2019 09:32:17 7.5 C 40 %
2363 16-12-2019 09:42:17 7.5 C 40 %
2364 16-12-2019 09:52:17 7.6 C 40 %
2365 16-12-2019 10:02:18 7.6 C 40 %
2366 16-12-2019 10:12:18 7.7 C 40 %
2367 16-12-2019 10:22:17 7.8 C 40 %
2368 16-12-2019 10:32:17 7.9 C 40 %
2369 16-12-2019 10:42:17 8.1 C 40 %
2370 16-12-2019 10:52:17 8.2 C 40 %
2371 16-12-2019 11:02:17 8.3 C 40 %
2372 16-12-2019 11:12:17 8.5 C 40 %
2373 16-12-2019 11:22:17 8.9 C 40 %
2374 16-12-2019 11:32:18 8.8 C 39 %
2375 16-12-2019 11:42:18 9.1 C 39 %
Sensor: Nr:Datum:Temp:Feuchte:
Aussen-T/F 2376 16-12-2019 11:52:17 9.4 C 39 %
2377 16-12-2019 12:02:17 9.3 C 38 %
2378 16-12-2019 12:12:17 9.3 C 37 %
2379 16-12-2019 12:22:17 9.3 C 37 %
2380 16-12-2019 12:32:17 9.4 C 37 %
2381 16-12-2019 12:42:17 9.4 C 38 %
2382 16-12-2019 12:52:17 9.8 C 38 %
2383 16-12-2019 13:02:17 9.9 C 36 %
2384 16-12-2019 13:12:17 9.9 C 36 %
2385 16-12-2019 13:22:17 10 C 35 %
2386 16-12-2019 13:32:17 10.2 C 34 %
2387 16-12-2019 13:42:17 10.2 C 35 %
2388 16-12-2019 13:52:18 10.3 C 34 %
2389 16-12-2019 14:02:17 10.1 C 34 %
2390 16-12-2019 14:12:17 10.2 C 34 %
2391 16-12-2019 14:22:17 10.3 C 34 %
2392 16-12-2019 14:32:17 10.2 C 33 %
2393 16-12-2019 14:42:17 10.1 C 34 %
2394 16-12-2019 14:52:18 10.1 C 34 %
2395 16-12-2019 15:02:17 9.9 C 35 %
2396 16-12-2019 15:12:17 9.8 C 35 %
2397 16-12-2019 15:22:17 9.6 C 36 %
2398 16-12-2019 15:32:18 9.3 C 37 %
2399 16-12-2019 15:42:18 9.1 C 39 %
2400 16-12-2019 15:52:17 9 C 40 %
Sensor: Nr:Datum:Temp:Feuchte:
Aussen-T/F 2401 16-12-2019 16:02:17 8.7 C 40 %
2402 16-12-2019 16:12:17 8.5 C 40 %
2403 16-12-2019 16:22:17 8.4 C 40 %
2404 16-12-2019 16:32:18 8.2 C 41 %
2405 16-12-2019 16:42:18 8 C 40 %
2406 16-12-2019 16:52:17 7.7 C 41 %
2407 16-12-2019 17:02:17 7.4 C 41 %
2408 16-12-2019 17:12:17 7.3 C 41 %
2409 16-12-2019 17:22:17 7.5 C 41 %
2410 16-12-2019 17:32:17 7.3 C 41 %
2411 16-12-2019 17:42:17 7.2 C 41 %
2412 16-12-2019 17:52:17 7 C 41 %
2413 16-12-2019 18:02:17 7.1 C 41 %
2414 16-12-2019 18:12:17 7.4 C 41 %
2415 16-12-2019 18:22:17 7.5 C 41 %
2416 16-12-2019 18:32:17 8.2 C 40 %
2417 16-12-2019 18:42:17 8.1 C 38 %
2418 16-12-2019 18:52:17 8.7 C 37 %
2419 16-12-2019 19:02:18 8.5 C 35 %
2420 16-12-2019 19:12:18 7.9 C 36 %
2421 16-12-2019 19:22:17 7.7 C 37 %
2422 16-12-2019 19:32:17 8.5 C 40 %
2423 16-12-2019 19:42:17 7.9 C 37 %
2424 16-12-2019 19:52:18 8 C 37 %
2425 16-12-2019 20:02:17 7.9 C 37 %
Sensor: Nr:Datum:Temp:Feuchte:
Aussen-T/F 2426 16-12-2019 20:12:17 8.1 C 36 %
2427 16-12-2019 20:22:17 7.7 C 37 %
2428 16-12-2019 20:32:17 8 C 39 %
2429 16-12-2019 20:42:17 7.9 C 36 %
2430 16-12-2019 20:52:17 7.8 C 36 %
2431 16-12-2019 21:02:17 7.3 C 37 %
2432 16-12-2019 21:12:17 7.2 C 40 %
2433 16-12-2019 21:22:17 7.5 C 39 %
2434 16-12-2019 21:32:17 7.2 C 38 %
2435 16-12-2019 21:42:17 7 C 40 %
2436 16-12-2019 21:52:17 6.7 C 41 %
2437 16-12-2019 22:02:17 6.9 C 41 %
2438 16-12-2019 22:12:17 7.5 C 40 %
2439 16-12-2019 22:22:17 7.4 C 38 %
2440 16-12-2019 22:32:17 7.9 C 37 %
2441 16-12-2019 22:42:17 7.8 C 36 %
2442 16-12-2019 22:52:18 7.3 C 37 %
2443 16-12-2019 23:02:17 7.3 C 39 %
2444 16-12-2019 23:12:17 7.3 C 39 %
2445 16-12-2019 23:22:17 7.5 C 40 %
2446 16-12-2019 23:32:17 7.6 C 39 %
2447 16-12-2019 23:42:17 7.6 C 39 %
2448 16-12-2019 23:52:18 7.8 C 39 %
2449 17-12-2019 00:02:17 7.6 C 37 %
2450 17-12-2019 00:12:17 7.5 C 38 %
Sensor: Nr:Datum:Temp:Feuchte:
Aussen-T/F 2451 17-12-2019 00:22:17 7.6 C 38 %
2452 17-12-2019 00:32:18 7.3 C 39 %
2453 17-12-2019 00:42:18 7.2 C 40 %
2454 17-12-2019 00:52:17 7.4 C 39 %
2455 17-12-2019 01:02:17 7.2 C 39 %
2456 17-12-2019 01:12:17 7.4 C 40 %
2457 17-12-2019 01:22:17 7.8 C 39 %
2458 17-12-2019 01:32:17 7.3 C 37 %
2459 17-12-2019 01:42:17 7.4 C 38 %
2460 17-12-2019 01:52:17 7.4 C 37 %
2461 17-12-2019 02:02:18 7.4 C 37 %
2462 17-12-2019 02:12:18 7.6 C 37 %
2463 17-12-2019 02:22:17 7.3 C 37 %
2464 17-12-2019 02:32:17 7.1 C 37 %
2465 17-12-2019 02:42:17 7.5 C 36 %
2466 17-12-2019 02:52:18 7.6 C 36 %
2467 17-12-2019 03:02:17 8 C 35 %
2468 17-12-2019 03:12:17 8.1 C 35 %
2469 17-12-2019 03:22:17 8.4 C 35 %
2470 17-12-2019 03:32:17 8.8 C 32 %
2471 17-12-2019 03:42:17 8.9 C 32 %
2472 17-12-2019 03:52:18 8.8 C 32 %
2473 17-12-2019 04:02:17 8.5 C 32 %
2474 17-12-2019 04:12:17 8.5 C 32 %
2475 17-12-2019 04:22:17 8.4 C 32 %
Sensor: Nr:Datum:Temp:Feuchte:
Aussen-T/F 2476 17-12-2019 04:32:17 8.4 C 32 %
2477 17-12-2019 04:42:17 8 C 32 %
2478 17-12-2019 04:52:18 8.3 C 33 %
2479 17-12-2019 05:02:17 8.5 C 33 %
2480 17-12-2019 05:12:17 8.5 C 33 %
2481 17-12-2019 05:22:17 8.2 C 33 %
2482 17-12-2019 05:32:17 8.1 C 34 %
2483 17-12-2019 05:42:17 7.9 C 35 %
2484 17-12-2019 05:52:17 7.9 C 36 %
2485 17-12-2019 06:02:17 7.8 C 36 %
2486 17-12-2019 06:12:17 7.3 C 36 %
2487 17-12-2019 06:22:18 7.3 C 38 %
2488 17-12-2019 06:32:17 7.5 C 38 %
2489 17-12-2019 06:42:17 7.6 C 36 %
2490 17-12-2019 06:52:17 7.6 C 38 %
2491 17-12-2019 07:02:17 7.7 C 36 %
2492 17-12-2019 07:12:17 7.6 C 37 %
2493 17-12-2019 07:22:17 7.5 C 36 %
2494 17-12-2019 07:32:18 7 C 37 %
2495 17-12-2019 07:42:18 7.4 C 38 %
2496 17-12-2019 07:52:17 7.2 C 36 %
2497 17-12-2019 08:02:17 7.2 C 36 %
2498 17-12-2019 08:12:17 6.9 C 37 %
2499 17-12-2019 08:22:17 6.9 C 38 %
2500 17-12-2019 08:32:17 7 C 38 %
Sensor: Nr:Datum:Temp:Feuchte:
Aussen-T/F 2501 17-12-2019 08:42:18 6.9 C 37 %
2502 17-12-2019 08:52:17 6.9 C 37 %
2503 17-12-2019 09:02:17 6.5 C 38 %
2504 17-12-2019 09:12:17 6.4 C 39 %
2505 17-12-2019 09:22:18 6.5 C 40 %
2506 17-12-2019 09:32:17 6.4 C 40 %
2507 17-12-2019 09:42:17 6.6 C 40 %
2508 17-12-2019 09:52:17 6.3 C 39 %
2509 17-12-2019 10:02:18 6.4 C 40 %
2510 17-12-2019 10:12:18 6.4 C 40 %
2511 17-12-2019 10:22:17 6.4 C 39 %
2512 17-12-2019 10:32:17 6.8 C 40 %
2513 17-12-2019 10:42:17 7.2 C 37 %
2514 17-12-2019 10:52:17 8 C 36 %
2515 17-12-2019 11:02:17 8.6 C 34 %
2516 17-12-2019 11:12:17 8.5 C 32 %
2517 17-12-2019 11:22:17 8.7 C 32 %
2518 17-12-2019 11:32:17 9 C 32 %
2519 17-12-2019 11:42:17 9.1 C 32 %
2520 17-12-2019 11:52:17 9 C 32 %
2521 17-12-2019 12:02:17 9 C 34 %
2522 17-12-2019 12:12:17 9.2 C 34 %
2523 17-12-2019 12:22:17 9.5 C 33 %
2524 17-12-2019 12:32:17 9.7 C 32 %
2525 17-12-2019 12:42:17 9.8 C 32 %
Sensor: Nr:Datum:Temp:Feuchte:
Aussen-T/F 2526 17-12-2019 12:52:17 9.6 C 32 %
2527 17-12-2019 13:02:17 10.1 C 31 %
2528 17-12-2019 13:12:17 10.4 C 30 %
2529 17-12-2019 13:22:17 10.6 C 30 %
2530 17-12-2019 13:32:17 11 C 29 %
2531 17-12-2019 13:42:17 11.6 C 28 %
2532 17-12-2019 13:52:18 12.3 C 26 %
2533 17-12-2019 14:02:17 12.5 C 26 %
2534 17-12-2019 14:12:17 12.4 C 26 %
2535 17-12-2019 14:22:17 11.6 C 27 %
2536 17-12-2019 14:32:17 11.4 C 27 %
2537 17-12-2019 14:42:17 11.5 C 27 %
2538 17-12-2019 14:52:17 11.8 C 27 %
2539 17-12-2019 15:02:17 12 C 26 %
2540 17-12-2019 15:12:17 12 C 26 %
2541 17-12-2019 15:22:17 11.8 C 27 %
2542 17-12-2019 15:32:17 11.8 C 27 %
2543 17-12-2019 15:42:17 12.3 C 25 %
2544 17-12-2019 15:52:18 12.2 C 25 %
2545 17-12-2019 16:02:17 12.4 C 25 %
2546 17-12-2019 16:12:17 12.4 C 25 %
2547 17-12-2019 16:22:17 12.5 C 25 %
2548 17-12-2019 16:32:18 12.6 C 25 %
2549 17-12-2019 16:42:18 12.2 C 25 %
2550 17-12-2019 16:52:17 11.8 C 25 %
Sensor: Nr:Datum:Temp:Feuchte:
Aussen-T/F 2551 17-12-2019 17:02:17 11.2 C 26 %
2552 17-12-2019 17:12:18 11.5 C 25 %
2553 17-12-2019 17:22:17 12 C 24 %
2554 17-12-2019 17:32:18 13.1 C 20 %
2555 17-12-2019 17:42:18 13.4 C 20 %
2556 17-12-2019 17:52:17 13.8 C 20 %
2557 17-12-2019 18:02:17 13.4 C 20 %
2558 17-12-2019 18:12:17 13.2 C 20 %
2559 17-12-2019 18:22:17 13.6 C 20 %
2560 17-12-2019 18:32:17 13.7 C 20 %
2561 17-12-2019 18:42:17 13.1 C 21 %
2562 17-12-2019 18:52:17 12.7 C 25 %
2563 17-12-2019 19:02:17 12.8 C 25 %
2564 17-12-2019 19:12:17 13.1 C 22 %
2565 17-12-2019 19:22:17 12.8 C 25 %
2566 17-12-2019 19:32:18 11.7 C 29 %
2567 17-12-2019 19:42:18 11.6 C 29 %
2568 17-12-2019 19:52:17 11.6 C 30 %
2569 17-12-2019 20:02:18 11.6 C 30 %
2570 17-12-2019 20:12:18 11.5 C 31 %
2571 17-12-2019 20:22:17 11.6 C 31 %
2572 17-12-2019 20:32:17 11.3 C 33 %
2573 17-12-2019 20:42:17 11.2 C 35 %
2574 17-12-2019 20:52:17 11 C 36 %
2575 17-12-2019 21:02:17 10.9 C 36 %
Sensor: Nr:Datum:Temp:Feuchte:
Aussen-T/F 2576 17-12-2019 21:12:17 10.5 C 38 %
2577 17-12-2019 21:22:17 10.3 C 39 %
2578 17-12-2019 21:32:17 10.4 C 38 %
2579 17-12-2019 21:42:17 11.5 C 31 %
2580 17-12-2019 21:52:17 11.3 C 31 %
2581 17-12-2019 22:02:17 13 C 25 %
2582 17-12-2019 22:12:17 12.5 C 26 %
2583 17-12-2019 22:22:17 13.1 C 25 %
2584 17-12-2019 22:32:17 13.4 C 25 %
2585 17-12-2019 22:42:17 13.2 C 25 %
2586 17-12-2019 22:52:17 13.1 C 25 %
2587 17-12-2019 23:02:17 12.4 C 26 %
2588 17-12-2019 23:12:17 11.9 C 29 %
2589 17-12-2019 23:22:17 11.3 C 30 %
2590 17-12-2019 23:32:17 11.1 C 31 %
2591 17-12-2019 23:42:17 11 C 30 %
2592 17-12-2019 23:52:17 10.8 C 33 %
2593 18-12-2019 00:02:17 10.4 C 35 %
2594 18-12-2019 00:12:17 10.4 C 34 %
2595 18-12-2019 00:22:17 10.5 C 34 %
2596 18-12-2019 00:32:18 10.9 C 31 %
2597 18-12-2019 00:42:18 11 C 30 %
2598 18-12-2019 00:52:17 11 C 30 %
2599 18-12-2019 01:02:17 10.8 C 30 %
2600 18-12-2019 01:12:17 11 C 29 %
Sensor: Nr:Datum:Temp:Feuchte:
Aussen-T/F 2601 18-12-2019 01:22:17 11.1 C 29 %
2602 18-12-2019 01:32:18 10.9 C 30 %
2603 18-12-2019 01:42:18 10.4 C 30 %
2604 18-12-2019 01:52:17 10.8 C 30 %
2605 18-12-2019 02:02:17 11.1 C 30 %
2606 18-12-2019 02:12:17 11.1 C 29 %
2607 18-12-2019 02:22:17 11.2 C 30 %
2608 18-12-2019 02:32:17 11.3 C 29 %
2609 18-12-2019 02:42:18 10.9 C 30 %
2610 18-12-2019 02:52:17 10.9 C 31 %
2611 18-12-2019 03:02:17 10.6 C 33 %
2612 18-12-2019 03:12:17 10.3 C 35 %
2613 18-12-2019 03:22:18 10.3 C 37 %
2614 18-12-2019 03:32:17 10.1 C 37 %
2615 18-12-2019 03:42:17 10 C 38 %
2616 18-12-2019 03:52:18 10.1 C 38 %
2617 18-12-2019 04:02:18 10 C 38 %
2618 18-12-2019 04:12:18 9.9 C 38 %
2619 18-12-2019 04:22:17 9.8 C 35 %
2620 18-12-2019 04:32:18 9.6 C 34 %
2621 18-12-2019 04:42:18 9.5 C 33 %
2622 18-12-2019 04:52:17 9.3 C 33 %
2623 18-12-2019 05:02:18 9.2 C 33 %
2624 18-12-2019 05:12:18 9.1 C 33 %
2625 18-12-2019 05:22:17 8.8 C 35 %
Sensor: Nr:Datum:Temp:Feuchte:
Aussen-T/F 2626 18-12-2019 05:32:17 8.7 C 36 %
2627 18-12-2019 05:42:17 8.2 C 36 %
2628 18-12-2019 05:52:17 8.2 C 39 %
2629 18-12-2019 06:02:18 8.1 C 39 %
2630 18-12-2019 06:12:18 8 C 37 %
2631 18-12-2019 06:22:17 8 C 37 %
2632 18-12-2019 06:32:18 7.9 C 37 %
2633 18-12-2019 06:42:18 7.5 C 37 %
2634 18-12-2019 06:52:17 7.4 C 39 %
2635 18-12-2019 07:02:17 7.2 C 40 %
2636 18-12-2019 07:12:17 7.3 C 40 %
2637 18-12-2019 07:22:17 7.3 C 40 %
2638 18-12-2019 07:32:17 7.1 C 39 %
2639 18-12-2019 07:42:17 6.8 C 40 %
2640 18-12-2019 07:52:17 6.9 C 41 %
2641 18-12-2019 08:02:17 6.7 C 41 %
2642 18-12-2019 08:12:17 6.5 C 41 %
2643 18-12-2019 08:22:17 6.5 C 41 %
2644 18-12-2019 08:32:17 6.3 C 41 %
2645 18-12-2019 08:42:17 6.4 C 42 %
2646 18-12-2019 08:52:17 6.6 C 42 %
2647 18-12-2019 09:02:17 6.5 C 41 %
2648 18-12-2019 09:12:17 6.1 C 40 %
2649 18-12-2019 09:22:17 6 C 41 %
2650 18-12-2019 09:32:17 6.5 C 42 %
Sensor: Nr:Datum:Temp:Feuchte:
Aussen-T/F 2651 18-12-2019 09:42:17 6.7 C 42 %
2652 18-12-2019 09:52:17 6.9 C 41 %
2653 18-12-2019 10:02:17 7 C 40 %
2654 18-12-2019 10:12:18 7.1 C 40 %
2655 18-12-2019 10:22:17 7.5 C 38 %
2656 18-12-2019 10:32:17 7.5 C 36 %
2657 18-12-2019 10:42:17 7.4 C 36 %
2658 18-12-2019 10:52:17 6.9 C 38 %
2659 18-12-2019 11:02:17 6.8 C 38 %
2660 18-12-2019 11:12:17 6.8 C 38 %
2661 18-12-2019 11:22:17 6.6 C 38 %
2662 18-12-2019 11:32:18 6.7 C 39 %
2663 18-12-2019 11:42:18 6.9 C 38 %
2664 18-12-2019 11:52:17 7.6 C 35 %
2665 18-12-2019 12:02:17 8.1 C 33 %
2666 18-12-2019 12:12:17 8 C 32 %
2667 18-12-2019 12:22:17 8.3 C 31 %
2668 18-12-2019 12:32:17 8.6 C 30 %
2669 18-12-2019 12:42:17 8.8 C 29 %
2670 18-12-2019 12:52:17 8.7 C 29 %
2671 18-12-2019 13:02:17 8.4 C 30 %
2672 18-12-2019 13:12:17 8.2 C 30 %
2673 18-12-2019 13:22:17 7.9 C 31 %
2674 18-12-2019 13:32:18 7.8 C 32 %
2675 18-12-2019 13:42:18 7.7 C 33 %
Sensor: Nr:Datum:Temp:Feuchte:
Aussen-T/F 2676 18-12-2019 13:52:17 7.8 C 32 %
2677 18-12-2019 14:02:18 7.8 C 33 %
2678 18-12-2019 14:12:18 7.7 C 33 %
2679 18-12-2019 14:22:17 7.5 C 34 %
2680 18-12-2019 14:32:17 7.3 C 35 %
2681 18-12-2019 14:42:17 7.2 C 35 %
2682 18-12-2019 14:52:17 7.2 C 35 %
2683 18-12-2019 15:02:17 7.2 C 35 %
2684 18-12-2019 15:12:17 7 C 36 %
2685 18-12-2019 15:22:17 7 C 36 %
2686 18-12-2019 15:32:17 6.7 C 37 %
2687 18-12-2019 15:42:17 6.8 C 37 %
2688 18-12-2019 15:52:17 6.7 C 36 %
2689 18-12-2019 16:02:17 6.6 C 36 %
2690 18-12-2019 16:12:17 6.5 C 36 %
2691 18-12-2019 16:22:17 6.4 C 36 %
2692 18-12-2019 16:32:17 6 C 36 %
2693 18-12-2019 16:42:17 5.8 C 37 %
2694 18-12-2019 16:52:17 5.7 C 39 %
2695 18-12-2019 17:02:17 5.3 C 38 %
2696 18-12-2019 17:12:17 4.9 C 40 %
2697 18-12-2019 17:22:17 5 C 42 %
2698 18-12-2019 17:32:17 4.4 C 41 %
2699 18-12-2019 17:42:17 4.2 C 42 %
2700 18-12-2019 17:52:18 4.1 C 42 %
Sensor: Nr:Datum:Temp:Feuchte:
Aussen-T/F 2701 18-12-2019 18:02:17 4.1 C 43 %
2702 18-12-2019 18:12:17 4.1 C 43 %
2703 18-12-2019 18:22:17 4.4 C 43 %
2704 18-12-2019 18:32:17 4.5 C 43 %
2705 18-12-2019 18:42:17 4.3 C 42 %
2706 18-12-2019 18:52:17 4.6 C 43 %
2707 18-12-2019 19:02:17 5 C 42 %
2708 18-12-2019 19:12:17 4.7 C 42 %
2709 18-12-2019 19:22:17 4.3 C 42 %
2710 18-12-2019 19:32:18 4.9 C 43 %
2711 18-12-2019 19:42:18 4.7 C 42 %
2712 18-12-2019 19:52:17 4.6 C 42 %
2713 18-12-2019 20:02:17 5 C 42 %
2714 18-12-2019 20:12:17 5 C 41 %
2715 18-12-2019 20:22:17 4.5 C 41 %
2716 18-12-2019 20:32:17 4.5 C 41 %
2717 18-12-2019 20:42:18 4.1 C 41 %
2718 18-12-2019 20:52:17 3.9 C 42 %
2719 18-12-2019 21:02:17 3.7 C 43 %
2720 18-12-2019 21:12:17 3.6 C 42 %
2721 18-12-2019 21:22:17 3.6 C 43 %
2722 18-12-2019 21:32:17 3.7 C 43 %
2723 18-12-2019 21:42:17 3.6 C 43 %
2724 18-12-2019 21:52:17 3.4 C 43 %
2725 18-12-2019 22:02:17 3.1 C 43 %
Sensor: Nr:Datum:Temp:Feuchte:
Aussen-T/F 2726 18-12-2019 22:12:17 3.1 C 43 %
2727 18-12-2019 22:22:17 2.7 C 43 %
2728 18-12-2019 22:32:17 2.6 C 43 %
2729 18-12-2019 22:42:17 2.5 C 43 %
2730 18-12-2019 22:52:17 2.4 C 43 %
2731 18-12-2019 23:02:17 2.4 C 43 %
2732 18-12-2019 23:12:17 2.3 C 43 %
2733 18-12-2019 23:22:18 2.3 C 43 %
2734 18-12-2019 23:32:17 2 C 43 %
2735 18-12-2019 23:42:17 2 C 43 %
2736 18-12-2019 23:52:17 2 C 43 %
2737 19-12-2019 00:02:18 2.3 C 44 %
2738 19-12-2019 00:12:18 2 C 43 %
2739 19-12-2019 00:22:17 2 C 43 %
2740 19-12-2019 00:32:17 2.1 C 43 %
2741 19-12-2019 00:42:17 2.4 C 44 %
2742 19-12-2019 00:52:18 2.3 C 43 %
2743 19-12-2019 01:02:17 2.1 C 43 %
2744 19-12-2019 01:12:17 2 C 43 %
2745 19-12-2019 01:22:17 2 C 43 %
2746 19-12-2019 01:32:18 1.6 C 44 %
2747 19-12-2019 01:42:18 1.9 C 44 %
2748 19-12-2019 01:52:17 2.3 C 43 %
2749 19-12-2019 02:02:17 2.2 C 43 %
2750 19-12-2019 02:12:17 2 C 43 %
Sensor: Nr:Datum:Temp:Feuchte:
Aussen-T/F 2751 19-12-2019 02:22:17 2 C 43 %
2752 19-12-2019 02:32:18 2 C 43 %
2753 19-12-2019 02:42:18 1.8 C 44 %
2754 19-12-2019 02:52:17 2.1 C 43 %
2755 19-12-2019 03:02:18 1.5 C 44 %
2756 19-12-2019 03:12:18 1.6 C 44 %
2757 19-12-2019 03:22:17 1.6 C 44 %
2758 19-12-2019 03:32:17 1.8 C 44 %
2759 19-12-2019 03:42:17 1.7 C 44 %
2760 19-12-2019 03:52:17 1.7 C 44 %
2761 19-12-2019 04:02:17 1.6 C 44 %
2762 19-12-2019 04:12:17 1.5 C 44 %
2763 19-12-2019 04:22:18 1.5 C 44 %
2764 19-12-2019 04:32:17 1.5 C 44 %
2765 19-12-2019 04:42:17 1.4 C 44 %
2766 19-12-2019 04:52:18 1.6 C 44 %
2767 19-12-2019 05:02:17 1.4 C 44 %
2768 19-12-2019 05:12:17 1.5 C 44 %
2769 19-12-2019 05:22:17 1.4 C 44 %
2770 19-12-2019 05:32:17 1.3 C 44 %
2771 19-12-2019 05:42:17 1.3 C 44 %
2772 19-12-2019 05:52:17 1.1 C 44 %
2773 19-12-2019 06:02:17 1.1 C 44 %
2774 19-12-2019 06:12:17 1.2 C 44 %
2775 19-12-2019 06:22:17 1 C 44 %
Sensor: Nr:Datum:Temp:Feuchte:
Aussen-T/F 2776 19-12-2019 06:32:17 1.1 C 44 %
2777 19-12-2019 06:42:18 1 C 43 %
2778 19-12-2019 06:52:17 0.7 C 45 %
2779 19-12-2019 07:02:17 1 C 44 %
2780 19-12-2019 07:12:17 0.9 C 45 %
2781 19-12-2019 07:22:17 1.7 C 44 %
2782 19-12-2019 07:32:17 3.5 C 43 %
2783 19-12-2019 07:42:18 3.2 C 42 %
2784 19-12-2019 07:52:17 3.1 C 42 %
2785 19-12-2019 08:02:18 4.6 C 42 %
2786 19-12-2019 08:12:18 3.8 C 42 %
2787 19-12-2019 08:22:17 3.7 C 42 %
2788 19-12-2019 08:32:18 4.6 C 41 %
2789 19-12-2019 08:42:18 4 C 41 %
2790 19-12-2019 08:52:17 3.3 C 41 %
2791 19-12-2019 09:02:17 4 C 41 %
2792 19-12-2019 09:12:17 4.4 C 41 %
2793 19-12-2019 09:22:17 4.1 C 41 %
2794 19-12-2019 09:32:17 4.6 C 41 %
2795 19-12-2019 09:42:17 4.4 C 41 %
2796 19-12-2019 09:52:17 4.5 C 41 %
2797 19-12-2019 10:02:17 4.7 C 41 %
2798 19-12-2019 10:12:17 4.9 C 41 %
2799 19-12-2019 10:22:17 5.2 C 41 %
2800 19-12-2019 10:32:17 7 C 40 %
Sensor: Nr:Datum:Temp:Feuchte:
Aussen-T/F 2801 19-12-2019 10:42:17 7.2 C 40 %
2802 19-12-2019 10:52:18 6.7 C 40 %
2803 19-12-2019 11:02:17 6.4 C 39 %
2804 19-12-2019 11:12:17 6.3 C 39 %
2805 19-12-2019 11:22:17 6.3 C 40 %
2806 19-12-2019 11:32:17 6.4 C 40 %
2807 19-12-2019 11:42:17 6.6 C 40 %
2808 19-12-2019 11:52:18 6.7 C 40 %
2809 19-12-2019 12:02:17 6.6 C 40 %
2810 19-12-2019 12:12:17 6.7 C 40 %
2811 19-12-2019 12:22:17 6.7 C 40 %
2812 19-12-2019 12:32:17 7 C 39 %
2813 19-12-2019 12:42:17 7 C 39 %
2814 19-12-2019 12:52:17 7.1 C 39 %
2815 19-12-2019 13:02:17 7.3 C 39 %
2816 19-12-2019 13:12:17 7.1 C 38 %
2817 19-12-2019 13:22:17 7.2 C 39 %
2818 19-12-2019 13:32:17 7.2 C 39 %
2819 19-12-2019 13:42:17 7.3 C 38 %
2820 19-12-2019 13:52:17 7.3 C 38 %
2821 19-12-2019 14:02:17 7.3 C 38 %
2822 19-12-2019 14:12:17 7.1 C 38 %
2823 19-12-2019 14:22:17 7.1 C 38 %
2824 19-12-2019 14:32:17 7.2 C 38 %
2825 19-12-2019 14:42:17 7.3 C 37 %
Sensor: Nr:Datum:Temp:Feuchte:
Aussen-T/F 2826 19-12-2019 14:52:17 7.9 C 36 %
2827 19-12-2019 15:02:17 8.1 C 34 %
2828 19-12-2019 15:12:17 8.1 C 33 %
2829 19-12-2019 15:22:17 8.4 C 32 %
2830 19-12-2019 15:32:18 8.6 C 32 %
2831 19-12-2019 15:42:18 8.7 C 31 %
2832 19-12-2019 15:52:17 8.8 C 31 %
2833 19-12-2019 16:02:17 8.7 C 30 %
2834 19-12-2019 16:12:17 8.3 C 31 %
2835 19-12-2019 16:22:18 8.1 C 31 %
2836 19-12-2019 16:32:17 7.9 C 32 %
2837 19-12-2019 16:42:17 7.9 C 31 %
2838 19-12-2019 16:52:17 7.6 C 32 %
2839 19-12-2019 17:02:17 7.4 C 32 %
2840 19-12-2019 17:12:17 6 C 35 %
2841 19-12-2019 17:22:17 5.7 C 37 %
2842 19-12-2019 17:32:17 5.5 C 39 %
2843 19-12-2019 17:42:17 5 C 39 %
2844 19-12-2019 17:52:17 4.9 C 41 %
2845 19-12-2019 18:02:17 5.2 C 42 %
2846 19-12-2019 18:12:18 4.9 C 42 %
2847 19-12-2019 18:22:17 5.2 C 42 %
2848 19-12-2019 18:32:17 5 C 41 %
2849 19-12-2019 18:42:17 5 C 41 %
2850 19-12-2019 18:52:18 5.8 C 42 %
Sensor: Nr:Datum:Temp:Feuchte:
Aussen-T/F 2851 19-12-2019 19:02:17 5.7 C 41 %
2852 19-12-2019 19:12:17 5.2 C 39 %
2853 19-12-2019 19:22:18 4.7 C 40 %
2854 19-12-2019 19:32:17 4.9 C 42 %
2855 19-12-2019 19:42:17 4.7 C 42 %
2856 19-12-2019 19:52:17 4.8 C 42 %
2857 19-12-2019 20:02:17 5 C 42 %
2858 19-12-2019 20:12:17 5 C 41 %
2859 19-12-2019 20:22:17 4.8 C 42 %
2860 19-12-2019 20:32:17 5.1 C 42 %
2861 19-12-2019 20:42:17 6 C 41 %
2862 19-12-2019 20:52:17 6 C 38 %
2863 19-12-2019 21:02:17 5.8 C 38 %
2864 19-12-2019 21:12:18 5.8 C 39 %
2865 19-12-2019 21:22:17 5.7 C 39 %
2866 19-12-2019 21:32:17 5.8 C 40 %
2867 19-12-2019 21:42:17 6 C 40 %
2868 19-12-2019 21:52:17 5.7 C 40 %
2869 19-12-2019 22:02:17 5.6 C 40 %
2870 19-12-2019 22:12:17 5.8 C 41 %
2871 19-12-2019 22:22:18 6.2 C 41 %
2872 19-12-2019 22:32:18 5.9 C 40 %
2873 19-12-2019 22:42:18 5.1 C 38 %
2874 19-12-2019 22:52:17 5 C 41 %
2875 19-12-2019 23:02:17 5.4 C 43 %
Sensor: Nr:Datum:Temp:Feuchte:
Aussen-T/F 2876 19-12-2019 23:12:17 5.5 C 42 %
2877 19-12-2019 23:22:17 5.5 C 42 %
2878 19-12-2019 23:32:17 5.4 C 42 %
2879 19-12-2019 23:42:17 5.4 C 42 %
2880 19-12-2019 23:52:17 5.1 C 41 %
2881 20-12-2019 00:02:17 4.8 C 42 %
2882 20-12-2019 00:12:17 4.3 C 41 %
2883 20-12-2019 00:22:17 4 C 41 %
2884 20-12-2019 00:32:17 3.9 C 43 %
2885 20-12-2019 00:42:17 3.7 C 42 %
2886 20-12-2019 00:52:17 3.4 C 43 %
2887 20-12-2019 01:02:17 3.1 C 42 %
2888 20-12-2019 01:12:17 3 C 43 %
2889 20-12-2019 01:22:17 3.3 C 44 %
2890 20-12-2019 01:32:17 3.1 C 43 %
2891 20-12-2019 01:42:17 3.1 C 43 %
2892 20-12-2019 01:52:17 2.8 C 44 %
2893 20-12-2019 02:02:17 2.8 C 44 %
2894 20-12-2019 02:12:17 2.6 C 44 %
2895 20-12-2019 02:22:17 2.5 C 44 %
2896 20-12-2019 02:32:18 3.2 C 44 %
2897 20-12-2019 02:42:18 3.4 C 44 %
2898 20-12-2019 02:52:17 3.8 C 44 %
2899 20-12-2019 03:02:17 4.7 C 42 %
2900 20-12-2019 03:12:17 4.2 C 41 %
Sensor: Nr:Datum:Temp:Feuchte:
Aussen-T/F 2901 20-12-2019 03:22:17 4.6 C 41 %
2902 20-12-2019 03:32:17 4.4 C 40 %
2903 20-12-2019 03:42:17 4.4 C 40 %
2904 20-12-2019 03:52:17 4.6 C 41 %
2905 20-12-2019 04:02:17 4.4 C 40 %
2906 20-12-2019 04:12:17 4.2 C 40 %
2907 20-12-2019 04:22:17 4 C 41 %
2908 20-12-2019 04:32:18 4.8 C 42 %
2909 20-12-2019 04:42:18 4.5 C 41 %
2910 20-12-2019 04:52:17 4.7 C 40 %
2911 20-12-2019 05:02:17 4.7 C 40 %
2912 20-12-2019 05:12:17 5.3 C 38 %
2913 20-12-2019 05:22:17 5.2 C 36 %
2914 20-12-2019 05:32:17 5.3 C 36 %
2915 20-12-2019 05:42:17 5.4 C 35 %
2916 20-12-2019 05:52:18 5.5 C 35 %
2917 20-12-2019 06:02:18 5.2 C 35 %
2918 20-12-2019 06:12:18 5.3 C 35 %
2919 20-12-2019 06:22:17 5.6 C 35 %
2920 20-12-2019 06:32:17 6 C 32 %
2921 20-12-2019 06:42:17 6 C 31 %
2922 20-12-2019 06:52:17 5.7 C 32 %
2923 20-12-2019 07:02:17 5.8 C 31 %
2924 20-12-2019 07:12:17 5.9 C 31 %
2925 20-12-2019 07:22:17 6.1 C 31 %
Sensor: Nr:Datum:Temp:Feuchte:
Aussen-T/F 2926 20-12-2019 07:32:17 5.9 C 33 %
2927 20-12-2019 07:42:17 6.4 C 31 %
2928 20-12-2019 07:52:17 6.8 C 30 %
2929 20-12-2019 08:02:17 7.1 C 27 %
2930 20-12-2019 08:12:17 6.4 C 31 %
2931 20-12-2019 08:22:17 6.4 C 32 %
2932 20-12-2019 08:32:18 6.5 C 32 %
2933 20-12-2019 08:42:18 6.3 C 32 %
2934 20-12-2019 08:52:17 6.3 C 33 %
2935 20-12-2019 09:02:17 6.5 C 33 %
2936 20-12-2019 09:12:17 6.7 C 31 %
2937 20-12-2019 09:22:17 6.5 C 33 %
2938 20-12-2019 09:32:17 6.4 C 35 %
2939 20-12-2019 09:42:17 6.5 C 35 %
2940 20-12-2019 09:52:17 6.5 C 34 %
2941 20-12-2019 10:02:17 6.2 C 31 %
2942 20-12-2019 10:12:17 6 C 33 %
2943 20-12-2019 10:22:17 5.7 C 35 %
2944 20-12-2019 10:32:17 5.8 C 40 %
2945 20-12-2019 10:42:17 5.9 C 42 %
2946 20-12-2019 10:52:17 6 C 42 %
2947 20-12-2019 11:02:17 6.1 C 42 %
2948 20-12-2019 11:12:17 6 C 42 %
2949 20-12-2019 11:22:17 6.3 C 42 %
2950 20-12-2019 11:32:17 6.5 C 42 %
Sensor: Nr:Datum:Temp:Feuchte:
Aussen-T/F 2951 20-12-2019 11:42:17 6.7 C 41 %
2952 20-12-2019 11:52:17 6.8 C 40 %
2953 20-12-2019 12:02:18 7 C 39 %
2954 20-12-2019 12:12:18 7.3 C 39 %
2955 20-12-2019 12:22:18 7.5 C 39 %
2956 20-12-2019 12:32:17 7.7 C 39 %
2957 20-12-2019 12:42:18 8 C 39 %
2958 20-12-2019 12:52:17 8.1 C 38 %
2959 20-12-2019 13:02:18 8.1 C 39 %
2960 20-12-2019 13:12:18 8.2 C 39 %
2961 20-12-2019 13:22:17 8.3 C 37 %
2962 20-12-2019 13:32:17 8.4 C 36 %
2963 20-12-2019 13:42:17 8.6 C 37 %
2964 20-12-2019 13:52:17 8.5 C 36 %
2965 20-12-2019 14:02:17 8.6 C 36 %
2966 20-12-2019 14:12:17 8.6 C 35 %
2967 20-12-2019 14:22:17 8.7 C 36 %
2968 20-12-2019 14:32:17 8.7 C 36 %
2969 20-12-2019 14:42:17 8.5 C 35 %
2970 20-12-2019 14:52:18 8.3 C 36 %
2971 20-12-2019 15:02:17 8.2 C 37 %
2972 20-12-2019 15:12:17 8.3 C 38 %
2973 20-12-2019 15:22:17 8.3 C 39 %
2974 20-12-2019 15:32:17 8.2 C 40 %
2975 20-12-2019 15:42:17 8.3 C 41 %
Sensor: Nr:Datum:Temp:Feuchte:
Aussen-T/F 2976 20-12-2019 15:52:17 8.2 C 40 %
2977 20-12-2019 16:02:17 8.2 C 40 %
2978 20-12-2019 16:12:18 8.3 C 40 %
2979 20-12-2019 16:22:17 8.3 C 41 %
2980 20-12-2019 16:32:17 8.4 C 41 %
2981 20-12-2019 16:42:17 8.4 C 41 %
2982 20-12-2019 16:52:18 8.6 C 41 %
2983 20-12-2019 17:02:17 9 C 41 %
2984 20-12-2019 17:12:18 9 C 40 %
2985 20-12-2019 17:22:17 9.1 C 36 %
2986 20-12-2019 17:32:17 8.7 C 38 %
2987 20-12-2019 17:42:17 8.8 C 37 %
2988 20-12-2019 17:52:18 8.7 C 38 %
2989 20-12-2019 18:02:17 8.9 C 37 %
2990 20-12-2019 18:12:17 8.9 C 36 %
2991 20-12-2019 18:22:17 8.9 C 37 %
2992 20-12-2019 18:32:17 8.9 C 37 %
2993 20-12-2019 18:42:17 9.7 C 33 %
2994 20-12-2019 18:52:18 9.5 C 31 %
2995 20-12-2019 19:02:17 9.8 C 30 %
2996 20-12-2019 19:12:17 10.1 C 28 %
2997 20-12-2019 19:22:17 9.9 C 29 %
2998 20-12-2019 19:32:17 9.8 C 29 %
2999 20-12-2019 19:42:17 10 C 27 %
3000 20-12-2019 19:52:18 9.7 C 29 %
Sensor: Nr:Datum:Temp:Feuchte:
Aussen-T/F 3001 20-12-2019 20:02:18 9.6 C 28 %
3002 20-12-2019 20:12:18 9.5 C 28 %
3003 20-12-2019 20:22:17 9.5 C 27 %
3004 20-12-2019 20:32:18 9 C 28 %
3005 20-12-2019 20:42:18 9 C 27 %
3006 20-12-2019 20:52:17 8.9 C 28 %
3007 20-12-2019 21:02:18 8.5 C 28 %
3008 20-12-2019 21:12:18 8.6 C 28 %
3009 20-12-2019 21:22:17 8.9 C 27 %
3010 20-12-2019 21:32:17 8.7 C 27 %
3011 20-12-2019 21:42:17 8.3 C 28 %
3012 20-12-2019 21:52:17 8.3 C 28 %
3013 20-12-2019 22:02:17 8.3 C 28 %
3014 20-12-2019 22:12:17 8.1 C 28 %
3015 20-12-2019 22:22:17 8.7 C 27 %
3016 20-12-2019 22:32:17 8.9 C 26 %
3017 20-12-2019 22:42:17 8.7 C 27 %
3018 20-12-2019 22:52:17 8.7 C 27 %
3019 20-12-2019 23:02:17 8.5 C 27 %
3020 20-12-2019 23:12:17 8.4 C 27 %
3021 20-12-2019 23:22:17 8.2 C 28 %
3022 20-12-2019 23:32:17 8 C 28 %
3023 20-12-2019 23:42:17 8.3 C 27 %
3024 20-12-2019 23:52:18 8.1 C 27 %
3025 21-12-2019 00:02:17 7.9 C 28 %
Sensor: Nr:Datum:Temp:Feuchte:
Aussen-T/F 3026 21-12-2019 00:12:17 7.7 C 28 %
3027 21-12-2019 00:22:17 7.5 C 30 %
3028 21-12-2019 00:32:17 7.5 C 30 %
3029 21-12-2019 00:42:17 7.2 C 30 %
3030 21-12-2019 00:52:18 7 C 30 %
3031 21-12-2019 01:02:17 6.9 C 32 %
3032 21-12-2019 01:12:17 7.3 C 31 %
3033 21-12-2019 01:22:17 7.4 C 31 %
3034 21-12-2019 01:32:17 7.3 C 32 %
3035 21-12-2019 01:42:17 7.5 C 31 %
3036 21-12-2019 01:52:17 7.5 C 32 %
3037 21-12-2019 02:02:17 7.9 C 30 %
3038 21-12-2019 02:12:17 8 C 29 %
3039 21-12-2019 02:22:17 8.2 C 28 %
3040 21-12-2019 02:32:18 7.8 C 30 %
3041 21-12-2019 02:42:18 7.8 C 30 %
3042 21-12-2019 02:52:17 7.8 C 30 %
3043 21-12-2019 03:02:17 7.5 C 30 %
3044 21-12-2019 03:12:17 7.5 C 31 %
3045 21-12-2019 03:22:17 7.4 C 31 %
3046 21-12-2019 03:32:18 7.3 C 31 %
3047 21-12-2019 03:42:18 7.1 C 31 %
3048 21-12-2019 03:52:17 7.1 C 32 %
3049 21-12-2019 04:02:17 6.9 C 33 %
3050 21-12-2019 04:12:17 6.7 C 36 %
Sensor: Nr:Datum:Temp:Feuchte:
Aussen-T/F 3051 21-12-2019 04:22:17 6.4 C 37 %
3052 21-12-2019 04:32:18 6 C 38 %
3053 21-12-2019 04:42:18 5.9 C 38 %
3054 21-12-2019 04:52:17 5.7 C 40 %
3055 21-12-2019 05:02:17 6 C 40 %
3056 21-12-2019 05:12:17 5.6 C 39 %
3057 21-12-2019 05:22:17 5.4 C 38 %
3058 21-12-2019 05:32:18 5.4 C 38 %
3059 21-12-2019 05:42:18 5.1 C 38 %
3060 21-12-2019 05:52:17 5.3 C 40 %
3061 21-12-2019 06:02:17 4.9 C 41 %
3062 21-12-2019 06:12:17 4.8 C 41 %
3063 21-12-2019 06:22:18 4.3 C 40 %
3064 21-12-2019 06:32:17 4.3 C 42 %
3065 21-12-2019 06:42:17 5 C 40 %
3066 21-12-2019 06:52:18 3.8 C 41 %
3067 21-12-2019 07:02:17 3.8 C 43 %
3068 21-12-2019 07:12:18 3.5 C 42 %
3069 21-12-2019 07:22:17 3.4 C 43 %
3070 21-12-2019 07:32:17 3.3 C 43 %
3071 21-12-2019 07:42:17 3 C 42 %
3072 21-12-2019 07:52:17 3 C 43 %
3073 21-12-2019 08:02:17 3.1 C 44 %
3074 21-12-2019 08:12:17 3.6 C 44 %
3075 21-12-2019 08:22:17 3.7 C 44 %
Sensor: Nr:Datum:Temp:Feuchte:
Aussen-T/F 3076 21-12-2019 08:32:17 3.9 C 43 %
3077 21-12-2019 08:42:17 4.6 C 43 %
3078 21-12-2019 08:52:17 4.9 C 42 %
3079 21-12-2019 09:02:17 5 C 39 %
3080 21-12-2019 09:12:17 4.5 C 38 %
3081 21-12-2019 09:22:17 4.4 C 38 %
3082 21-12-2019 09:32:17 4.4 C 39 %
3083 21-12-2019 09:42:17 4.6 C 40 %
3084 21-12-2019 09:52:17 4.6 C 38 %
3085 21-12-2019 10:02:17 4.8 C 38 %
3086 21-12-2019 10:12:17 4.8 C 37 %
3087 21-12-2019 10:22:17 5.1 C 37 %
3088 21-12-2019 10:32:17 5.2 C 36 %
3089 21-12-2019 10:42:17 5.1 C 37 %
3090 21-12-2019 10:52:17 5.2 C 37 %
3091 21-12-2019 11:02:17 5.3 C 37 %
3092 21-12-2019 11:12:17 5.3 C 37 %
3093 21-12-2019 11:22:17 5.4 C 37 %
3094 21-12-2019 11:32:17 5.8 C 37 %
3095 21-12-2019 11:42:17 5.9 C 37 %
3096 21-12-2019 11:52:17 5.8 C 37 %
3097 21-12-2019 12:02:17 5.8 C 36 %
3098 21-12-2019 12:12:17 6.2 C 36 %
3099 21-12-2019 12:22:17 6.2 C 35 %
3100 21-12-2019 12:32:17 7 C 32 %
Sensor: Nr:Datum:Temp:Feuchte:
Aussen-T/F 3101 21-12-2019 12:42:17 6.8 C 33 %
3102 21-12-2019 12:52:17 8 C 30 %
3103 21-12-2019 13:02:17 7.8 C 30 %
3104 21-12-2019 13:12:17 7.1 C 30 %
3105 21-12-2019 13:22:17 6.9 C 31 %
3106 21-12-2019 13:32:17 7.2 C 30 %
3107 21-12-2019 13:42:17 8 C 28 %
3108 21-12-2019 13:52:18 7.7 C 28 %
3109 21-12-2019 14:02:17 8.3 C 27 %
3110 21-12-2019 14:12:17 8.8 C 26 %
3111 21-12-2019 14:22:17 8.2 C 27 %
3112 21-12-2019 14:32:18 8.2 C 27 %
3113 21-12-2019 14:42:18 8.5 C 27 %
3114 21-12-2019 14:52:17 8.8 C 26 %
3115 21-12-2019 15:02:18 9 C 25 %
3116 21-12-2019 15:12:18 8.7 C 26 %
3117 21-12-2019 15:22:18 8.8 C 25 %
3118 21-12-2019 15:32:17 8.7 C 25 %
3119 21-12-2019 15:42:17 8 C 26 %
3120 21-12-2019 15:52:17 7.5 C 28 %
3121 21-12-2019 16:02:17 7.7 C 27 %
3122 21-12-2019 16:12:17 7.6 C 29 %
3123 21-12-2019 16:22:17 7.4 C 30 %
3124 21-12-2019 16:32:17 7.4 C 30 %
3125 21-12-2019 16:42:17 7.7 C 28 %
Sensor: Nr:Datum:Temp:Feuchte:
Aussen-T/F 3126 21-12-2019 16:52:17 7.9 C 27 %
3127 21-12-2019 17:02:17 7.6 C 29 %
3128 21-12-2019 17:12:17 7.3 C 30 %
3129 21-12-2019 17:22:17 7.2 C 30 %
3130 21-12-2019 17:32:17 7.3 C 30 %
3131 21-12-2019 17:42:17 7.3 C 29 %
3132 21-12-2019 17:52:17 7.2 C 29 %
3133 21-12-2019 18:02:17 7.6 C 27 %
3134 21-12-2019 18:12:17 7.6 C 27 %
3135 21-12-2019 18:22:17 7.6 C 26 %
3136 21-12-2019 18:32:18 7.9 C 25 %
3137 21-12-2019 18:42:18 7.7 C 26 %
3138 21-12-2019 18:52:17 7.5 C 26 %
3139 21-12-2019 19:02:17 7.3 C 27 %
3140 21-12-2019 19:12:17 7 C 27 %
3141 21-12-2019 19:22:17 7 C 27 %
3142 21-12-2019 19:32:17 6.9 C 30 %
3143 21-12-2019 19:42:17 6.8 C 30 %
3144 21-12-2019 19:52:17 7 C 27 %
3145 21-12-2019 20:02:17 7.1 C 26 %
3146 21-12-2019 20:12:17 7.1 C 26 %
3147 21-12-2019 20:22:17 7.1 C 26 %
3148 21-12-2019 20:32:17 6.9 C 28 %
3149 21-12-2019 20:42:17 7 C 27 %
3150 21-12-2019 20:52:17 6.8 C 27 %
Sensor: Nr:Datum:Temp:Feuchte:
Aussen-T/F 3151 21-12-2019 21:02:18 6.4 C 29 %
3152 21-12-2019 21:12:18 6.1 C 30 %
3153 21-12-2019 21:22:17 6.1 C 31 %
3154 21-12-2019 21:32:17 6.3 C 31 %
3155 21-12-2019 21:42:17 5.9 C 31 %
3156 21-12-2019 21:52:18 5.1 C 34 %
3157 21-12-2019 22:02:18 4.9 C 36 %
3158 21-12-2019 22:12:18 5.2 C 34 %
3159 21-12-2019 22:22:17 5.7 C 30 %
3160 21-12-2019 22:32:17 6.1 C 27 %
3161 21-12-2019 22:42:17 6.1 C 27 %
3162 21-12-2019 22:52:17 6 C 27 %
3163 21-12-2019 23:02:17 5.8 C 27 %
3164 21-12-2019 23:12:17 5.8 C 27 %
3165 21-12-2019 23:22:17 6.3 C 26 %
3166 21-12-2019 23:32:18 6.5 C 25 %
3167 21-12-2019 23:42:18 6.7 C 25 %
3168 21-12-2019 23:52:17 6.3 C 26 %
3169 22-12-2019 00:02:17 6.8 C 26 %
3170 22-12-2019 00:12:17 6.9 C 26 %
3171 22-12-2019 00:22:17 6.8 C 26 %
3172 22-12-2019 00:32:17 6.8 C 26 %
3173 22-12-2019 00:42:17 6.7 C 27 %
3174 22-12-2019 00:52:17 6.3 C 30 %
3175 22-12-2019 01:02:17 6.2 C 30 %
Sensor: Nr:Datum:Temp:Feuchte:
Aussen-T/F 3176 22-12-2019 01:12:18 5.8 C 35 %
3177 22-12-2019 01:22:17 5.8 C 36 %
3178 22-12-2019 01:32:17 5.8 C 39 %
3179 22-12-2019 01:42:17 5.7 C 40 %
3180 22-12-2019 01:52:17 5.7 C 40 %
3181 22-12-2019 02:02:17 5.7 C 38 %
3182 22-12-2019 02:12:18 5.7 C 38 %
3183 22-12-2019 02:22:17 5.8 C 38 %
3184 22-12-2019 02:32:17 5.9 C 37 %
3185 22-12-2019 02:42:17 5.9 C 36 %
3186 22-12-2019 02:52:18 6 C 35 %
3187 22-12-2019 03:02:17 6.1 C 35 %
3188 22-12-2019 03:12:17 6.2 C 34 %
3189 22-12-2019 03:22:17 6.2 C 35 %
3190 22-12-2019 03:32:17 6.2 C 34 %
3191 22-12-2019 03:42:17 6.1 C 35 %
3192 22-12-2019 03:52:17 6.2 C 35 %
3193 22-12-2019 04:02:18 6.2 C 35 %
3194 22-12-2019 04:12:18 6 C 35 %
3195 22-12-2019 04:22:17 6.2 C 34 %
3196 22-12-2019 04:32:17 6.2 C 34 %
3197 22-12-2019 04:42:17 6.3 C 33 %
3198 22-12-2019 04:52:17 6.3 C 33 %
3199 22-12-2019 05:02:17 6.2 C 34 %
3200 22-12-2019 05:12:17 5.8 C 34 %
Sensor: Nr:Datum:Temp:Feuchte:
Aussen-T/F 3201 22-12-2019 05:22:17 5.4 C 36 %
3202 22-12-2019 05:32:17 5.7 C 40 %
3203 22-12-2019 05:42:17 6.1 C 38 %
3204 22-12-2019 05:52:17 5.5 C 35 %
3205 22-12-2019 06:02:17 5.1 C 39 %
3206 22-12-2019 06:12:17 5.3 C 41 %
3207 22-12-2019 06:22:17 4.9 C 41 %
3208 22-12-2019 06:32:17 5.4 C 42 %
3209 22-12-2019 06:42:17 5.9 C 41 %
3210 22-12-2019 06:52:17 6.2 C 39 %
3211 22-12-2019 07:02:17 6.2 C 38 %
3212 22-12-2019 07:12:17 6 C 38 %
3213 22-12-2019 07:22:17 5.7 C 38 %
3214 22-12-2019 07:32:17 5.4 C 39 %
3215 22-12-2019 07:42:17 6 C 42 %
3216 22-12-2019 07:52:17 6.1 C 41 %
3217 22-12-2019 08:02:18 6.3 C 41 %
3218 22-12-2019 08:12:18 6.2 C 40 %
3219 22-12-2019 08:22:17 5.9 C 40 %
3220 22-12-2019 08:32:17 5.8 C 41 %
3221 22-12-2019 08:42:17 6.3 C 41 %
3222 22-12-2019 08:52:18 6.2 C 39 %
3223 22-12-2019 09:02:17 6 C 39 %
3224 22-12-2019 09:12:17 6.2 C 40 %
3225 22-12-2019 09:22:17 6.4 C 39 %
Sensor: Nr:Datum:Temp:Feuchte:
Aussen-T/F 3226 22-12-2019 09:32:17 6.3 C 39 %
3227 22-12-2019 09:42:17 6.8 C 39 %
3228 22-12-2019 09:52:17 7 C 37 %
3229 22-12-2019 10:02:17 7.1 C 37 %
3230 22-12-2019 10:12:17 7.9 C 33 %
3231 22-12-2019 10:22:17 8.1 C 33 %
3232 22-12-2019 10:32:17 8.8 C 30 %
3233 22-12-2019 10:42:17 9 C 29 %
3234 22-12-2019 10:52:17 9.3 C 28 %
3235 22-12-2019 11:02:17 9.5 C 28 %
3236 22-12-2019 11:12:17 10 C 26 %
3237 22-12-2019 11:22:17 10 C 26 %
3238 22-12-2019 11:32:18 10.4 C 26 %
3239 22-12-2019 11:42:18 10.2 C 26 %
3240 22-12-2019 11:52:17 10.4 C 26 %
3241 22-12-2019 12:02:17 10.5 C 25 %
3242 22-12-2019 12:12:17 10.5 C 26 %
3243 22-12-2019 12:22:17 10.5 C 25 %
3244 22-12-2019 12:32:17 10.7 C 26 %
3245 22-12-2019 12:42:17 10.8 C 26 %
3246 22-12-2019 12:52:17 11.2 C 25 %
3247 22-12-2019 13:02:17 11.1 C 25 %
3248 22-12-2019 13:12:17 10.8 C 25 %
3249 22-12-2019 13:22:17 10.7 C 25 %
3250 22-12-2019 13:32:17 10.7 C 25 %
Sensor: Nr:Datum:Temp:Feuchte:
Aussen-T/F 3251 22-12-2019 13:42:17 10.7 C 25 %
3252 22-12-2019 13:52:17 10.8 C 25 %
3253 22-12-2019 14:02:17 11.1 C 23 %
3254 22-12-2019 14:12:17 11 C 23 %
3255 22-12-2019 14:22:17 10.8 C 23 %
3256 22-12-2019 14:32:17 10.9 C 23 %
3257 22-12-2019 14:42:17 10.8 C 23 %
3258 22-12-2019 14:52:17 10.7 C 25 %
3259 22-12-2019 15:02:17 10.6 C 25 %
3260 22-12-2019 15:12:17 10.3 C 25 %
3261 22-12-2019 15:22:17 10.1 C 25 %
3262 22-12-2019 15:32:17 9.9 C 26 %
3263 22-12-2019 15:42:17 9.7 C 26 %
3264 22-12-2019 15:52:18 9.6 C 25 %
3265 22-12-2019 16:02:18 9.6 C 25 %
3266 22-12-2019 16:12:18 9.3 C 25 %
3267 22-12-2019 16:22:17 8.9 C 26 %
3268 22-12-2019 16:32:17 8.3 C 26 %
3269 22-12-2019 16:42:17 8.4 C 27 %
3270 22-12-2019 16:52:17 7.9 C 28 %
3271 22-12-2019 17:02:18 7.5 C 30 %
3272 22-12-2019 17:12:18 7.5 C 30 %
3273 22-12-2019 17:22:17 7.4 C 30 %
3274 22-12-2019 17:32:17 7.5 C 29 %
3275 22-12-2019 17:42:17 7.5 C 28 %
Sensor: Nr:Datum:Temp:Feuchte:
Aussen-T/F 3276 22-12-2019 17:52:17 7.2 C 28 %
3277 22-12-2019 18:02:17 7.2 C 30 %
3278 22-12-2019 18:12:17 7.1 C 30 %
3279 22-12-2019 18:22:17 7.3 C 30 %
3280 22-12-2019 18:32:17 7.4 C 29 %
3281 22-12-2019 18:42:17 7.5 C 29 %
3282 22-12-2019 18:52:17 7.2 C 29 %
3283 22-12-2019 19:02:17 7.1 C 30 %
3284 22-12-2019 19:12:17 7 C 31 %
3285 22-12-2019 19:22:17 7 C 32 %
3286 22-12-2019 19:32:17 7.1 C 31 %
3287 22-12-2019 19:42:17 7.5 C 30 %
3288 22-12-2019 19:52:17 8 C 27 %
3289 22-12-2019 20:02:17 7.9 C 27 %
3290 22-12-2019 20:12:17 8.1 C 26 %
3291 22-12-2019 20:22:17 8.3 C 25 %
3292 22-12-2019 20:32:17 8.2 C 25 %
3293 22-12-2019 20:42:17 8 C 25 %
3294 22-12-2019 20:52:17 8 C 25 %
3295 22-12-2019 21:02:17 8.1 C 25 %
3296 22-12-2019 21:12:17 8.1 C 25 %
3297 22-12-2019 21:22:17 7.8 C 25 %
3298 22-12-2019 21:32:17 8.1 C 25 %
3299 22-12-2019 21:42:17 7.8 C 26 %
3300 22-12-2019 21:52:17 7.7 C 26 %
Sensor: Nr:Datum:Temp:Feuchte:
Aussen-T/F 3301 22-12-2019 22:02:17 7.9 C 26 %
3302 22-12-2019 22:12:17 7.6 C 26 %
3303 22-12-2019 22:22:17 7.5 C 26 %
3304 22-12-2019 22:32:17 7.1 C 27 %
3305 22-12-2019 22:42:17 6.9 C 28 %
3306 22-12-2019 22:52:17 6.7 C 29 %
3307 22-12-2019 23:02:17 6.2 C 31 %
3308 22-12-2019 23:12:17 6.4 C 31 %
3309 22-12-2019 23:22:17 6.6 C 31 %
3310 22-12-2019 23:32:17 6.6 C 31 %
3311 22-12-2019 23:42:17 6.7 C 31 %
3312 22-12-2019 23:52:17 6.7 C 31 %
3313 23-12-2019 00:02:17 6.6 C 32 %
3314 23-12-2019 00:12:17 6.5 C 31 %
3315 23-12-2019 00:22:17 6.4 C 32 %
3316 23-12-2019 00:32:17 6.6 C 31 %
3317 23-12-2019 00:42:17 7 C 30 %
3318 23-12-2019 00:52:17 6.9 C 30 %
3319 23-12-2019 01:02:17 6.8 C 30 %
3320 23-12-2019 01:12:17 7.1 C 28 %
3321 23-12-2019 01:22:17 7 C 28 %
3322 23-12-2019 01:32:17 7.1 C 28 %
3323 23-12-2019 01:42:17 7.4 C 27 %
3324 23-12-2019 01:52:17 7.4 C 27 %
3325 23-12-2019 02:02:17 6.8 C 29 %
Sensor: Nr:Datum:Temp:Feuchte:
Aussen-T/F 3326 23-12-2019 02:12:17 6.5 C 30 %
3327 23-12-2019 02:22:17 6.8 C 29 %
3328 23-12-2019 02:32:17 6.9 C 29 %
3329 23-12-2019 02:42:17 7.3 C 28 %
3330 23-12-2019 02:52:17 6.9 C 30 %
3331 23-12-2019 03:02:17 6.8 C 31 %
3332 23-12-2019 03:12:17 6.4 C 31 %
3333 23-12-2019 03:22:17 6.5 C 30 %
3334 23-12-2019 03:32:17 7 C 28 %
3335 23-12-2019 03:42:17 6.6 C 29 %
3336 23-12-2019 03:52:17 7 C 28 %
3337 23-12-2019 04:02:17 6.9 C 30 %
3338 23-12-2019 04:12:17 7.1 C 28 %
3339 23-12-2019 04:22:17 6.8 C 30 %
3340 23-12-2019 04:32:17 6.9 C 31 %
3341 23-12-2019 04:42:17 6.5 C 31 %
3342 23-12-2019 04:52:17 6.1 C 31 %
3343 23-12-2019 05:02:17 6.4 C 32 %
3344 23-12-2019 05:12:17 7 C 30 %
3345 23-12-2019 05:22:17 7.1 C 30 %
3346 23-12-2019 05:32:17 7 C 30 %
3347 23-12-2019 05:42:17 6.8 C 31 %
3348 23-12-2019 05:52:17 6.3 C 32 %
3349 23-12-2019 06:02:18 6.3 C 34 %
3350 23-12-2019 06:12:18 6.6 C 33 %
Sensor: Nr:Datum:Temp:Feuchte:
Aussen-T/F 3351 23-12-2019 06:22:17 6.9 C 31 %
3352 23-12-2019 06:32:18 7.1 C 30 %
3353 23-12-2019 06:42:18 6.9 C 31 %
3354 23-12-2019 06:52:17 6.9 C 31 %
3355 23-12-2019 07:02:17 6.8 C 32 %
3356 23-12-2019 07:12:17 6.8 C 34 %
3357 23-12-2019 07:22:17 6.8 C 32 %
3358 23-12-2019 07:32:17 7.1 C 30 %
3359 23-12-2019 07:42:17 7.4 C 29 %
3360 23-12-2019 07:52:17 7.1 C 30 %
3361 23-12-2019 08:02:17 7.3 C 30 %
3362 23-12-2019 08:12:17 7.4 C 28 %
3363 23-12-2019 08:22:17 7.5 C 28 %
3364 23-12-2019 08:32:18 7.5 C 28 %
3365 23-12-2019 08:42:18 7.6 C 28 %
3366 23-12-2019 08:52:17 7.6 C 27 %
3367 23-12-2019 09:02:17 7.6 C 27 %
3368 23-12-2019 09:12:18 7.7 C 27 %
3369 23-12-2019 09:22:17 7.8 C 27 %
3370 23-12-2019 09:32:18 7.8 C 27 %
3371 23-12-2019 09:42:18 7.8 C 27 %
3372 23-12-2019 09:52:18 7.9 C 26 %
3373 23-12-2019 10:02:17 7.3 C 30 %
3374 23-12-2019 10:12:18 7 C 33 %
3375 23-12-2019 10:22:17 7 C 35 %
Sensor: Nr:Datum:Temp:Feuchte:
Aussen-T/F 3376 23-12-2019 10:32:18 6.8 C 35 %
3377 23-12-2019 10:42:18 6.9 C 34 %
3378 23-12-2019 10:52:17 7.4 C 30 %
3379 23-12-2019 11:02:18 7.8 C 28 %
3380 23-12-2019 11:12:18 8.1 C 28 %
3381 23-12-2019 11:22:17 8.4 C 26 %
3382 23-12-2019 11:32:18 8.3 C 26 %
3383 23-12-2019 11:42:18 8.6 C 26 %
3384 23-12-2019 11:52:17 8.9 C 25 %
3385 23-12-2019 12:02:18 9.1 C 25 %
3386 23-12-2019 12:12:18 9.1 C 25 %
3387 23-12-2019 12:22:17 8.9 C 25 %
3388 23-12-2019 12:32:17 9 C 25 %
3389 23-12-2019 12:42:17 9.3 C 25 %
3390 23-12-2019 12:52:17 8.4 C 26 %
3391 23-12-2019 13:02:17 8.4 C 26 %
3392 23-12-2019 13:12:17 8.3 C 27 %
3393 23-12-2019 13:22:17 8.2 C 27 %
3394 23-12-2019 13:32:18 8.1 C 29 %
3395 23-12-2019 13:42:18 8.2 C 28 %
3396 23-12-2019 13:52:17 8.5 C 28 %
3397 23-12-2019 14:02:17 8.9 C 27 %
3398 23-12-2019 14:12:17 8.9 C 26 %
3399 23-12-2019 14:22:18 9 C 25 %
3400 23-12-2019 14:32:17 9.1 C 25 %
Sensor: Nr:Datum:Temp:Feuchte:
Aussen-T/F 3401 23-12-2019 14:42:17 9.1 C 25 %
3402 23-12-2019 14:52:17 8.9 C 25 %
3403 23-12-2019 15:02:18 8.7 C 26 %
3404 23-12-2019 15:12:18 9.1 C 25 %
3405 23-12-2019 15:22:17 9.1 C 25 %
3406 23-12-2019 15:32:17 9 C 25 %
3407 23-12-2019 15:42:17 9 C 25 %
3408 23-12-2019 15:52:17 8.8 C 25 %
3409 23-12-2019 16:02:17 8.8 C 25 %
3410 23-12-2019 16:12:17 8.6 C 26 %
3411 23-12-2019 16:22:18 8.5 C 25 %
3412 23-12-2019 16:32:17 8.4 C 25 %
3413 23-12-2019 16:42:17 8.5 C 25 %
3414 23-12-2019 16:52:18 8.5 C 25 %
3415 23-12-2019 17:02:17 8.2 C 25 %
3416 23-12-2019 17:12:17 8.4 C 25 %
3417 23-12-2019 17:22:17 8 C 25 %
3418 23-12-2019 17:32:17 7.9 C 25 %
3419 23-12-2019 17:42:18 7.8 C 25 %
3420 23-12-2019 17:52:17 7.8 C 25 %
3421 23-12-2019 18:02:17 7.9 C 25 %
3422 23-12-2019 18:12:17 8 C 23 %
3423 23-12-2019 18:22:17 7.9 C 23 %
3424 23-12-2019 18:32:17 7.9 C 25 %
3425 23-12-2019 18:42:17 7.6 C 25 %
Sensor: Nr:Datum:Temp:Feuchte:
Aussen-T/F 3426 23-12-2019 18:52:17 7.5 C 26 %
3427 23-12-2019 19:02:17 7.3 C 26 %
3428 23-12-2019 19:12:17 6.7 C 29 %
3429 23-12-2019 19:22:17 6.4 C 30 %
3430 23-12-2019 19:32:17 7.4 C 26 %
3431 23-12-2019 19:42:17 7 C 26 %
3432 23-12-2019 19:52:17 7 C 27 %
3433 23-12-2019 20:02:17 7 C 28 %
3434 23-12-2019 20:12:17 6.5 C 30 %
3435 23-12-2019 20:22:17 6.8 C 30 %
3436 23-12-2019 20:32:18 6.8 C 30 %
3437 23-12-2019 20:42:18 6.9 C 30 %
3438 23-12-2019 20:52:17 6.9 C 30 %
3439 23-12-2019 21:02:18 6.7 C 30 %
3440 23-12-2019 21:12:18 7.1 C 28 %
3441 23-12-2019 21:22:17 7 C 28 %
3442 23-12-2019 21:32:17 6.7 C 31 %
3443 23-12-2019 21:42:17 6.5 C 31 %
3444 23-12-2019 21:52:17 6.5 C 32 %
3445 23-12-2019 22:02:18 6.4 C 31 %
3446 23-12-2019 22:12:18 5.8 C 32 %
3447 23-12-2019 22:22:17 5.4 C 37 %
3448 23-12-2019 22:32:17 5.7 C 33 %
3449 23-12-2019 22:42:17 5.3 C 34 %
3450 23-12-2019 22:52:17 5.5 C 34 %
Sensor: Nr:Datum:Temp:Feuchte:
Aussen-T/F 3451 23-12-2019 23:02:17 5.4 C 33 %
3452 23-12-2019 23:12:17 5.5 C 32 %
3453 23-12-2019 23:22:18 5.4 C 30 %
3454 23-12-2019 23:32:17 5.8 C 30 %
3455 23-12-2019 23:42:17 4.8 C 33 %
3456 23-12-2019 23:52:17 4.8 C 36 %
3457 24-12-2019 00:02:17 5.6 C 35 %
3458 24-12-2019 00:12:17 5.8 C 32 %
3459 24-12-2019 00:22:17 5.7 C 32 %
3460 24-12-2019 00:32:18 6 C 32 %
3461 24-12-2019 00:42:18 6.1 C 31 %
3462 24-12-2019 00:52:17 6.3 C 31 %
3463 24-12-2019 01:02:17 5.6 C 32 %
3464 24-12-2019 01:12:17 5.9 C 32 %
3465 24-12-2019 01:22:17 6.1 C 30 %
3466 24-12-2019 01:32:17 6.3 C 30 %
3467 24-12-2019 01:42:17 5.9 C 31 %
3468 24-12-2019 01:52:17 5.7 C 33 %
3469 24-12-2019 02:02:17 5.7 C 35 %
3470 24-12-2019 02:12:17 5.8 C 35 %
3471 24-12-2019 02:22:17 5.6 C 35 %
3472 24-12-2019 02:32:18 5.5 C 36 %
3473 24-12-2019 02:42:18 5.5 C 36 %
3474 24-12-2019 02:52:17 6.6 C 30 %
3475 24-12-2019 03:02:18 6.7 C 29 %
Sensor: Nr:Datum:Temp:Feuchte:
Aussen-T/F 3476 24-12-2019 03:12:18 6.3 C 30 %
3477 24-12-2019 03:22:17 5.7 C 31 %
3478 24-12-2019 03:32:17 5.5 C 31 %
3479 24-12-2019 03:42:17 5.7 C 31 %
3480 24-12-2019 03:52:17 5 C 32 %
3481 24-12-2019 04:02:17 5 C 38 %
3482 24-12-2019 04:12:17 5.2 C 37 %
3483 24-12-2019 04:22:17 5.2 C 36 %
3484 24-12-2019 04:32:17 4.8 C 37 %
3485 24-12-2019 04:42:17 4.8 C 39 %
3486 24-12-2019 04:52:17 5.3 C 38 %
3487 24-12-2019 05:02:18 5.4 C 35 %
3488 24-12-2019 05:12:18 5.2 C 35 %
3489 24-12-2019 05:22:17 4.7 C 37 %
3490 24-12-2019 05:32:18 5 C 37 %
3491 24-12-2019 05:42:18 4.6 C 36 %
3492 24-12-2019 05:52:17 4.9 C 37 %
3493 24-12-2019 06:02:18 4.3 C 36 %
3494 24-12-2019 06:12:18 4.6 C 39 %
3495 24-12-2019 06:22:17 4.6 C 38 %
3496 24-12-2019 06:32:17 4.6 C 39 %
3497 24-12-2019 06:42:17 4.5 C 38 %
3498 24-12-2019 06:52:17 4.5 C 39 %
3499 24-12-2019 07:02:17 4.8 C 37 %
3500 24-12-2019 07:12:17 5 C 36 %
Sensor: Nr:Datum:Temp:Feuchte:
Aussen-T/F 3501 24-12-2019 07:22:17 5.4 C 34 %
3502 24-12-2019 07:32:17 5.6 C 33 %
3503 24-12-2019 07:42:17 5.6 C 32 %
3504 24-12-2019 07:52:17 5.8 C 32 %
3505 24-12-2019 08:02:17 5.8 C 31 %
3506 24-12-2019 08:12:17 6 C 30 %
3507 24-12-2019 08:22:17 6.2 C 29 %
3508 24-12-2019 08:32:17 6.2 C 30 %
3509 24-12-2019 08:42:17 6.3 C 30 %
3510 24-12-2019 08:52:18 6.4 C 30 %
3511 24-12-2019 09:02:17 6.5 C 29 %
3512 24-12-2019 09:12:17 6.8 C 29 %
3513 24-12-2019 09:22:17 6.8 C 28 %
3514 24-12-2019 09:32:17 6.8 C 29 %
3515 24-12-2019 09:42:17 6.8 C 28 %
3516 24-12-2019 09:52:17 6.5 C 30 %
3517 24-12-2019 10:02:17 6.4 C 30 %
3518 24-12-2019 10:12:17 6.2 C 31 %
3519 24-12-2019 10:22:17 6.2 C 33 %
3520 24-12-2019 10:32:17 6.3 C 37 %
3521 24-12-2019 10:42:17 6.8 C 37 %
3522 24-12-2019 10:52:17 6.7 C 33 %
3523 24-12-2019 11:02:17 6.8 C 35 %
3524 24-12-2019 11:12:17 6.9 C 34 %
3525 24-12-2019 11:22:17 7.5 C 32 %
Sensor: Nr:Datum:Temp:Feuchte:
Aussen-T/F 3526 24-12-2019 11:32:17 8 C 30 %
3527 24-12-2019 11:42:17 8.2 C 29 %
3528 24-12-2019 11:52:18 8 C 29 %
3529 24-12-2019 12:02:17 7.8 C 30 %
3530 24-12-2019 12:12:17 7.6 C 30 %
3531 24-12-2019 12:22:17 8 C 28 %
3532 24-12-2019 12:32:17 8.2 C 27 %
3533 24-12-2019 12:42:17 8.4 C 27 %
3534 24-12-2019 12:52:18 8.9 C 27 %
3535 24-12-2019 13:02:17 9.2 C 25 %
3536 24-12-2019 13:12:17 9.3 C 25 %
3537 24-12-2019 13:22:17 9.3 C 25 %
3538 24-12-2019 13:32:17 9.2 C 26 %
3539 24-12-2019 13:42:17 9.3 C 26 %
3540 24-12-2019 13:52:17 9.3 C 26 %
3541 24-12-2019 14:02:18 9.4 C 25 %
3542 24-12-2019 14:12:18 9.5 C 25 %
3543 24-12-2019 14:22:17 9.6 C 25 %
3544 24-12-2019 14:32:18 9.7 C 25 %
3545 24-12-2019 14:42:18 9.3 C 26 %
3546 24-12-2019 14:52:17 9.2 C 27 %
3547 24-12-2019 15:02:18 9.1 C 27 %
3548 24-12-2019 15:12:18 9.5 C 26 %
3549 24-12-2019 15:22:17 9.8 C 25 %
3550 24-12-2019 15:32:17 10 C 22 %
Sensor: Nr:Datum:Temp:Feuchte:
Aussen-T/F 3551 24-12-2019 15:42:17 10.1 C 20 %
3552 24-12-2019 15:52:17 10.5 C 20 %
3553 24-12-2019 16:02:17 10.1 C 20 %
3554 24-12-2019 16:12:17 10 C 20 %
3555 24-12-2019 16:22:17 10.2 C 20 %
3556 24-12-2019 16:32:17 9.8 C 20 %
3557 24-12-2019 16:42:17 9.7 C 21 %
3558 24-12-2019 16:52:17 10.1 C 20 %
3559 24-12-2019 17:02:17 9.8 C 20 %
3560 24-12-2019 17:12:17 9.4 C 20 %
3561 24-12-2019 17:22:18 9.6 C 20 %
3562 24-12-2019 17:32:17 8.8 C 20 %
3563 24-12-2019 17:42:17 9.1 C 20 %
3564 24-12-2019 17:52:17 9.3 C 20 %
3565 24-12-2019 18:02:17 9 C 20 %
3566 24-12-2019 18:12:17 8.5 C 26 %
3567 24-12-2019 18:22:17 8.9 C 25 %
3568 24-12-2019 18:32:17 8.2 C 28 %
3569 24-12-2019 18:42:17 7.8 C 31 %
3570 24-12-2019 18:52:17 7.5 C 35 %
3571 24-12-2019 19:02:17 7.6 C 31 %
3572 24-12-2019 19:12:17 7.3 C 31 %
3573 24-12-2019 19:22:17 6.7 C 35 %
3574 24-12-2019 19:32:17 6.5 C 40 %
3575 24-12-2019 19:42:17 6.5 C 36 %
Sensor: Nr:Datum:Temp:Feuchte:
Aussen-T/F 3576 24-12-2019 19:52:17 6.2 C 36 %
3577 24-12-2019 20:02:17 6.7 C 35 %
3578 24-12-2019 20:12:17 7.3 C 30 %
3579 24-12-2019 20:22:17 7.2 C 32 %
3580 24-12-2019 20:32:18 7.1 C 30 %
3581 24-12-2019 20:42:18 7.3 C 31 %
3582 24-12-2019 20:52:17 7.3 C 30 %
3583 24-12-2019 21:02:17 7.1 C 31 %
3584 24-12-2019 21:12:17 7.7 C 30 %
3585 24-12-2019 21:22:17 7.4 C 30 %
3586 24-12-2019 21:32:17 7.6 C 30 %
3587 24-12-2019 21:42:17 7.9 C 29 %
3588 24-12-2019 21:52:17 8.1 C 28 %
3589 24-12-2019 22:02:17 8.6 C 26 %
3590 24-12-2019 22:12:17 8.5 C 26 %
3591 24-12-2019 22:22:17 8.3 C 26 %
3592 24-12-2019 22:32:17 8.4 C 26 %
3593 24-12-2019 22:42:17 8.2 C 27 %
3594 24-12-2019 22:52:17 8 C 28 %
3595 24-12-2019 23:02:17 8.4 C 27 %
3596 24-12-2019 23:12:17 8.4 C 27 %
3597 24-12-2019 23:22:17 8.4 C 27 %
3598 24-12-2019 23:32:17 8.5 C 27 %
3599 24-12-2019 23:42:17 8.5 C 27 %
3600 24-12-2019 23:52:17 8.4 C 27 %
Sensor: Nr:Datum:Temp:Feuchte:
Aussen-T/F 3601 25-12-2019 00:02:17 8.4 C 27 %
3602 25-12-2019 00:12:17 8.4 C 27 %
3603 25-12-2019 00:22:17 8.4 C 28 %
3604 25-12-2019 00:32:17 8.3 C 28 %
3605 25-12-2019 00:42:18 8.2 C 29 %
3606 25-12-2019 00:52:17 8.2 C 29 %
3607 25-12-2019 01:02:17 7.8 C 32 %
3608 25-12-2019 01:12:17 7.7 C 33 %
3609 25-12-2019 01:22:17 7.5 C 35 %
3610 25-12-2019 01:32:18 7.3 C 35 %
3611 25-12-2019 01:42:18 7.5 C 35 %
3612 25-12-2019 01:52:17 7.6 C 33 %
3613 25-12-2019 02:02:17 7.7 C 32 %
3614 25-12-2019 02:12:17 8 C 31 %
3615 25-12-2019 02:22:17 7.9 C 31 %
3616 25-12-2019 02:32:18 7.9 C 31 %
3617 25-12-2019 02:42:18 7.9 C 31 %
3618 25-12-2019 02:52:17 7.9 C 31 %
3619 25-12-2019 03:02:17 7.8 C 31 %
3620 25-12-2019 03:12:17 7.9 C 32 %
3621 25-12-2019 03:22:17 8.1 C 31 %
3622 25-12-2019 03:32:17 8.3 C 30 %
3623 25-12-2019 03:42:17 8.2 C 30 %
3624 25-12-2019 03:52:18 8.2 C 30 %
3625 25-12-2019 04:02:17 7.9 C 34 %
Sensor: Nr:Datum:Temp:Feuchte:
Aussen-T/F 3626 25-12-2019 04:12:17 8 C 34 %
3627 25-12-2019 04:22:18 7.9 C 35 %
3628 25-12-2019 04:32:17 7.9 C 36 %
3629 25-12-2019 04:42:17 7.9 C 38 %
3630 25-12-2019 04:52:17 7.9 C 36 %
3631 25-12-2019 05:02:17 7.9 C 37 %
3632 25-12-2019 05:12:17 7.8 C 37 %
3633 25-12-2019 05:22:18 7.6 C 38 %
3634 25-12-2019 05:32:17 8 C 36 %
3635 25-12-2019 05:42:17 7.9 C 35 %
3636 25-12-2019 05:52:17 7.5 C 35 %
3637 25-12-2019 06:02:18 7.5 C 35 %
3638 25-12-2019 06:12:18 7.2 C 36 %
3639 25-12-2019 06:22:17 7.2 C 37 %
3640 25-12-2019 06:32:18 7.3 C 37 %
3641 25-12-2019 06:42:18 7.3 C 36 %
3642 25-12-2019 06:52:17 7.1 C 39 %
3643 25-12-2019 07:02:18 7.3 C 33 %
3644 25-12-2019 07:12:18 7.1 C 32 %
3645 25-12-2019 07:22:17 6.9 C 35 %
3646 25-12-2019 07:32:18 6.8 C 38 %
3647 25-12-2019 07:42:18 6.9 C 38 %
3648 25-12-2019 07:52:17 7 C 35 %
3649 25-12-2019 08:02:18 6.8 C 32 %
3650 25-12-2019 08:12:18 6.4 C 32 %
Sensor: Nr:Datum:Temp:Feuchte:
Aussen-T/F 3651 25-12-2019 08:22:17 6.2 C 33 %
3652 25-12-2019 08:32:17 6.2 C 32 %
3653 25-12-2019 08:42:17 6.5 C 32 %
3654 25-12-2019 08:52:17 6.7 C 31 %
3655 25-12-2019 09:02:17 6.9 C 30 %
3656 25-12-2019 09:12:17 6.9 C 30 %
3657 25-12-2019 09:22:18 6.8 C 30 %
3658 25-12-2019 09:32:17 7.3 C 28 %
3659 25-12-2019 09:42:17 7.3 C 27 %
3660 25-12-2019 09:52:17 7.3 C 27 %
3661 25-12-2019 10:02:17 7.1 C 29 %
3662 25-12-2019 10:12:17 7.3 C 27 %
3663 25-12-2019 10:22:18 7.6 C 26 %
3664 25-12-2019 10:32:17 7.7 C 26 %
3665 25-12-2019 10:42:17 7.8 C 25 %
3666 25-12-2019 10:52:17 7.5 C 26 %
3667 25-12-2019 11:02:17 7.5 C 26 %
3668 25-12-2019 11:12:17 7.5 C 26 %
3669 25-12-2019 11:22:17 7.7 C 26 %
3670 25-12-2019 11:32:17 7.4 C 26 %
3671 25-12-2019 11:42:17 7.4 C 27 %
3672 25-12-2019 11:52:18 7.1 C 28 %
3673 25-12-2019 12:02:17 7.1 C 29 %
3674 25-12-2019 12:12:17 7.6 C 27 %
3675 25-12-2019 12:22:17 7.6 C 27 %
Sensor: Nr:Datum:Temp:Feuchte:
Aussen-T/F 3676 25-12-2019 12:32:17 7.7 C 27 %
3677 25-12-2019 12:42:17 7.8 C 27 %
3678 25-12-2019 12:52:18 7.6 C 27 %
3679 25-12-2019 13:02:17 7.1 C 29 %
3680 25-12-2019 13:12:17 7 C 31 %
3681 25-12-2019 13:22:18 6.9 C 31 %
3682 25-12-2019 13:32:17 7.1 C 30 %
3683 25-12-2019 13:42:17 7 C 30 %
3684 25-12-2019 13:52:17 6.9 C 30 %
3685 25-12-2019 14:02:17 7.1 C 30 %
3686 25-12-2019 14:12:17 7.4 C 29 %
3687 25-12-2019 14:22:18 7.6 C 28 %
3688 25-12-2019 14:32:17 7.7 C 29 %
3689 25-12-2019 14:42:17 7.6 C 29 %
3690 25-12-2019 14:52:17 7.1 C 31 %
3691 25-12-2019 15:02:17 7.1 C 32 %
3692 25-12-2019 15:12:17 7.1 C 30 %
3693 25-12-2019 15:22:18 7.1 C 31 %
3694 25-12-2019 15:32:17 7.4 C 30 %
3695 25-12-2019 15:42:17 7.3 C 31 %
3696 25-12-2019 15:52:17 7.2 C 30 %
3697 25-12-2019 16:02:17 7.2 C 30 %
3698 25-12-2019 16:12:17 6.9 C 31 %
3699 25-12-2019 16:22:17 6.8 C 32 %
3700 25-12-2019 16:32:17 6.7 C 35 %
Sensor: Nr:Datum:Temp:Feuchte:
Aussen-T/F 3701 25-12-2019 16:42:17 6.9 C 32 %
3702 25-12-2019 16:52:17 6.9 C 31 %
3703 25-12-2019 17:02:17 6.8 C 30 %
3704 25-12-2019 17:12:17 6.7 C 30 %
3705 25-12-2019 17:22:18 6.6 C 31 %
3706 25-12-2019 17:32:17 6.2 C 31 %
3707 25-12-2019 17:42:17 5.7 C 35 %
3708 25-12-2019 17:52:18 5.9 C 35 %
3709 25-12-2019 18:02:17 6 C 33 %
3710 25-12-2019 18:12:17 6.1 C 32 %
3711 25-12-2019 18:22:17 6.2 C 33 %
3712 25-12-2019 18:32:17 6.2 C 33 %
3713 25-12-2019 18:42:17 6.2 C 32 %
3714 25-12-2019 18:52:17 6.2 C 32 %
3715 25-12-2019 19:02:17 6 C 33 %
3716 25-12-2019 19:12:17 5.9 C 33 %
3717 25-12-2019 19:22:17 6.1 C 32 %
3718 25-12-2019 19:32:18 6.1 C 32 %
3719 25-12-2019 19:42:18 6 C 33 %
3720 25-12-2019 19:52:17 5.9 C 33 %
3721 25-12-2019 20:02:17 5.8 C 35 %
3722 25-12-2019 20:12:17 5.9 C 35 %
3723 25-12-2019 20:22:18 5.9 C 34 %
3724 25-12-2019 20:32:17 5.8 C 34 %
3725 25-12-2019 20:42:17 5.6 C 37 %
Sensor: Nr:Datum:Temp:Feuchte:
Aussen-T/F 3726 25-12-2019 20:52:17 5.5 C 38 %
3727 25-12-2019 21:02:18 5.5 C 38 %
3728 25-12-2019 21:12:18 5.4 C 40 %
3729 25-12-2019 21:22:17 5.3 C 41 %
3730 25-12-2019 21:32:17 5.3 C 43 %
3731 25-12-2019 21:42:17 5.3 C 42 %
3732 25-12-2019 21:52:17 5.2 C 42 %
3733 25-12-2019 22:02:18 5.2 C 42 %
3734 25-12-2019 22:12:18 5.1 C 43 %
3735 25-12-2019 22:22:17 5.2 C 42 %
3736 25-12-2019 22:32:18 5.1 C 41 %
3737 25-12-2019 22:42:18 5.1 C 42 %
3738 25-12-2019 22:52:17 5.2 C 42 %
3739 25-12-2019 23:02:18 5.2 C 42 %
3740 25-12-2019 23:12:18 5.2 C 42 %
3741 25-12-2019 23:22:17 5.2 C 42 %
3742 25-12-2019 23:32:17 5.1 C 42 %
3743 25-12-2019 23:42:17 4.7 C 42 %
3744 25-12-2019 23:52:17 4.5 C 42 %
3745 26-12-2019 00:02:17 4.6 C 43 %
3746 26-12-2019 00:12:18 4 C 42 %
3747 26-12-2019 00:22:17 3.6 C 42 %
3748 26-12-2019 00:32:18 3.9 C 44 %
3749 26-12-2019 00:42:18 3.9 C 44 %
3750 26-12-2019 00:52:17 4.1 C 43 %
Sensor: Nr:Datum:Temp:Feuchte:
Aussen-T/F 3751 26-12-2019 01:02:18 4.4 C 43 %
3752 26-12-2019 01:12:18 4.3 C 43 %
3753 26-12-2019 01:22:17 4.3 C 43 %
3754 26-12-2019 01:32:17 4.4 C 43 %
3755 26-12-2019 01:42:17 4.4 C 43 %
3756 26-12-2019 01:52:17 4.3 C 42 %
3757 26-12-2019 02:02:18 4.3 C 42 %
3758 26-12-2019 02:12:18 4.4 C 42 %
3759 26-12-2019 02:22:17 4.2 C 42 %
3760 26-12-2019 02:32:17 4 C 42 %
3761 26-12-2019 02:42:17 4 C 42 %
3762 26-12-2019 02:52:17 4.2 C 42 %
3763 26-12-2019 03:02:18 4.2 C 42 %
3764 26-12-2019 03:12:18 4.1 C 42 %
3765 26-12-2019 03:22:17 4.1 C 42 %
3766 26-12-2019 03:32:17 4.1 C 42 %
3767 26-12-2019 03:42:17 4.1 C 42 %
3768 26-12-2019 03:52:17 3.9 C 43 %
3769 26-12-2019 04:02:17 3.6 C 42 %
3770 26-12-2019 04:12:17 3.6 C 42 %
3771 26-12-2019 04:22:18 3.4 C 42 %
3772 26-12-2019 04:32:17 3 C 42 %
3773 26-12-2019 04:42:17 3.1 C 42 %
3774 26-12-2019 04:52:17 3.1 C 43 %
3775 26-12-2019 05:02:17 3.3 C 43 %
Sensor: Nr:Datum:Temp:Feuchte:
Aussen-T/F 3776 26-12-2019 05:12:17 3.5 C 43 %
3777 26-12-2019 05:22:17 3.4 C 43 %
3778 26-12-2019 05:32:18 3.5 C 43 %
3779 26-12-2019 05:42:18 3.4 C 43 %
3780 26-12-2019 05:52:17 3.5 C 43 %
3781 26-12-2019 06:02:17 3.6 C 43 %
3782 26-12-2019 06:12:18 3.6 C 43 %
3783 26-12-2019 06:22:17 3.5 C 43 %
3784 26-12-2019 06:32:18 3.6 C 43 %
3785 26-12-2019 06:42:18 3.5 C 43 %
3786 26-12-2019 06:52:17 3.5 C 43 %
3787 26-12-2019 07:02:18 3.5 C 43 %
3788 26-12-2019 07:12:18 3.5 C 43 %
3789 26-12-2019 07:22:17 3.4 C 43 %
3790 26-12-2019 07:32:17 3.4 C 43 %
3791 26-12-2019 07:42:17 3.4 C 43 %
3792 26-12-2019 07:52:17 3.4 C 43 %
3793 26-12-2019 08:02:18 3.4 C 43 %
3794 26-12-2019 08:12:18 3.4 C 43 %
3795 26-12-2019 08:22:17 3.5 C 43 %
3796 26-12-2019 08:32:17 3.4 C 43 %
3797 26-12-2019 08:42:17 3.4 C 43 %
3798 26-12-2019 08:52:17 3.5 C 43 %
3799 26-12-2019 09:02:17 3.5 C 43 %
3800 26-12-2019 09:12:17 3.5 C 43 %
Sensor: Nr:Datum:Temp:Feuchte:
Aussen-T/F 3801 26-12-2019 09:22:17 3.4 C 42 %
3802 26-12-2019 09:32:17 3.5 C 43 %
3803 26-12-2019 09:42:17 3.6 C 42 %
3804 26-12-2019 09:52:18 3.6 C 42 %
3805 26-12-2019 10:02:17 3.6 C 42 %
3806 26-12-2019 10:12:17 3.6 C 42 %
3807 26-12-2019 10:22:18 3.8 C 42 %
3808 26-12-2019 10:32:17 4 C 41 %
3809 26-12-2019 10:42:17 4.3 C 41 %
3810 26-12-2019 10:52:18 4.5 C 41 %
3811 26-12-2019 11:02:17 4.7 C 41 %
3812 26-12-2019 11:12:17 4.8 C 41 %
3813 26-12-2019 11:22:17 5 C 40 %
3814 26-12-2019 11:32:17 5.4 C 40 %
3815 26-12-2019 11:42:17 5.5 C 39 %
3816 26-12-2019 11:52:17 5.6 C 37 %
3817 26-12-2019 12:02:17 5.7 C 36 %
3818 26-12-2019 12:12:17 5.7 C 36 %
3819 26-12-2019 12:22:17 5.7 C 35 %
3820 26-12-2019 12:32:18 5.9 C 35 %
3821 26-12-2019 12:42:18 6 C 35 %
3822 26-12-2019 12:52:17 6 C 36 %
3823 26-12-2019 13:02:18 5.9 C 36 %
3824 26-12-2019 13:12:18 5.9 C 37 %
3825 26-12-2019 13:22:17 5.8 C 36 %
Sensor: Nr:Datum:Temp:Feuchte:
Aussen-T/F 3826 26-12-2019 13:32:18 5.8 C 36 %
3827 26-12-2019 13:42:18 5.7 C 36 %
3828 26-12-2019 13:52:17 5.7 C 36 %
3829 26-12-2019 14:02:18 5.7 C 36 %
3830 26-12-2019 14:12:18 5.8 C 35 %
3831 26-12-2019 14:22:17 6 C 35 %
3832 26-12-2019 14:32:17 6 C 35 %
3833 26-12-2019 14:42:17 5.7 C 35 %
3834 26-12-2019 14:52:17 5.6 C 36 %
3835 26-12-2019 15:02:17 5.5 C 36 %
3836 26-12-2019 15:12:17 5.4 C 36 %
3837 26-12-2019 15:22:17 5.1 C 38 %
3838 26-12-2019 15:32:17 5 C 37 %
3839 26-12-2019 15:42:17 4.8 C 39 %
3840 26-12-2019 15:52:18 4.8 C 39 %
3841 26-12-2019 16:02:17 4.7 C 38 %
3842 26-12-2019 16:12:17 4.6 C 39 %
3843 26-12-2019 16:22:17 4.5 C 40 %
3844 26-12-2019 16:32:17 4.4 C 41 %
3845 26-12-2019 16:42:18 4.4 C 40 %
3846 26-12-2019 16:53:17 4.3 C 41 %
3847 26-12-2019 17:02:17 4.4 C 40 %
3848 26-12-2019 17:12:17 4.3 C 40 %
3849 26-12-2019 17:22:17 4.3 C 40 %
3850 26-12-2019 17:32:17 4.4 C 40 %
Sensor: Nr:Datum:Temp:Feuchte:
Aussen-T/F 3851 26-12-2019 17:42:17 4.1 C 40 %
3852 26-12-2019 17:52:17 4.1 C 40 %
3853 26-12-2019 18:02:17 4 C 40 %
3854 26-12-2019 18:12:17 4 C 41 %
3855 26-12-2019 18:22:17 4.1 C 41 %
3856 26-12-2019 18:32:17 4.1 C 41 %
3857 26-12-2019 18:42:18 4.1 C 40 %
3858 26-12-2019 18:53:17 4.1 C 40 %
3859 26-12-2019 19:02:17 4 C 40 %
3860 26-12-2019 19:12:17 4 C 41 %
3861 26-12-2019 19:23:17 4 C 41 %
3862 26-12-2019 19:32:17 3.8 C 41 %
3863 26-12-2019 19:42:17 4 C 41 %
3864 26-12-2019 19:53:17 3.8 C 41 %
3865 26-12-2019 20:02:17 3.8 C 42 %
3866 26-12-2019 20:12:17 3.9 C 42 %
3867 26-12-2019 20:23:17 4 C 41 %
3868 26-12-2019 20:32:17 4.1 C 40 %
3869 26-12-2019 20:42:17 4.2 C 39 %
3870 26-12-2019 20:53:17 4.1 C 38 %
3871 26-12-2019 21:02:17 4.3 C 37 %
3872 26-12-2019 21:12:17 4.2 C 38 %
3873 26-12-2019 21:23:17 4.1 C 38 %
3874 26-12-2019 21:32:18 4.1 C 38 %
3875 26-12-2019 21:42:18 4.2 C 37 %
Sensor: Nr:Datum:Temp:Feuchte:
Aussen-T/F 3876 26-12-2019 21:52:17 4.3 C 37 %
3877 26-12-2019 22:02:18 4.1 C 39 %
3878 26-12-2019 22:12:18 4.1 C 41 %
3879 26-12-2019 22:22:17 4.1 C 41 %
3880 26-12-2019 22:33:17 4.1 C 41 %
3881 26-12-2019 22:43:17 4.1 C 42 %
3882 26-12-2019 22:52:17 4.1 C 42 %
3883 26-12-2019 23:03:17 4.1 C 43 %
3884 26-12-2019 23:13:17 4.1 C 43 %
3885 26-12-2019 23:23:17 4 C 43 %
3886 26-12-2019 23:32:17 4 C 43 %
3887 26-12-2019 23:42:17 4 C 42 %
3888 26-12-2019 23:53:17 4 C 42 %
3889 27-12-2019 00:02:17 4 C 42 %
3890 27-12-2019 00:12:17 4 C 42 %
3891 27-12-2019 00:23:17 4 C 42 %
3892 27-12-2019 00:32:17 4 C 42 %
3893 27-12-2019 00:42:18 4.1 C 42 %
3894 27-12-2019 00:53:17 4.1 C 42 %
3895 27-12-2019 01:03:18 4.1 C 42 %
3896 27-12-2019 01:13:18 4.1 C 42 %
3897 27-12-2019 01:23:17 4.1 C 42 %
3898 27-12-2019 01:33:17 4.1 C 42 %
3899 27-12-2019 01:43:17 4.1 C 42 %
3900 27-12-2019 01:53:18 4.1 C 42 %
Sensor: Nr:Datum:Temp:Feuchte:
Aussen-T/F 3901 27-12-2019 02:03:17 4.1 C 42 %
3902 27-12-2019 02:13:17 4.1 C 42 %
3903 27-12-2019 02:23:17 4.1 C 42 %
3904 27-12-2019 02:33:18 4.1 C 42 %
3905 27-12-2019 02:43:19 4.1 C 42 %
3906 27-12-2019 02:53:17 4.2 C 42 %
3907 27-12-2019 03:03:17 4.3 C 42 %
3908 27-12-2019 03:13:17 4.2 C 42 %
3909 27-12-2019 03:23:17 4.3 C 42 %
3910 27-12-2019 03:33:17 4.3 C 42 %
3911 27-12-2019 03:43:18 4.3 C 42 %
3912 27-12-2019 03:53:17 4.3 C 42 %
3913 27-12-2019 04:03:17 4.3 C 42 %
3914 27-12-2019 04:13:17 4.3 C 42 %
3915 27-12-2019 04:23:17 4.3 C 42 %
3916 27-12-2019 04:33:17 4.3 C 42 %
3917 27-12-2019 04:43:17 4.3 C 42 %
3918 27-12-2019 04:53:18 4.4 C 42 %
3919 27-12-2019 05:03:17 4.4 C 42 %
3920 27-12-2019 05:13:17 4.4 C 42 %
3921 27-12-2019 05:23:17 4.4 C 42 %
3922 27-12-2019 05:33:17 4.3 C 42 %
3923 27-12-2019 05:43:17 4.4 C 42 %
3924 27-12-2019 05:53:17 4.4 C 42 %
3925 27-12-2019 06:03:17 4.4 C 42 %
Sensor: Nr:Datum:Temp:Feuchte:
Aussen-T/F 3926 27-12-2019 06:13:17 4.4 C 42 %
3927 27-12-2019 06:23:17 4.4 C 42 %
3928 27-12-2019 06:33:17 4.4 C 42 %
3929 27-12-2019 06:43:17 4.4 C 42 %
3930 27-12-2019 06:53:17 4.4 C 42 %
3931 27-12-2019 07:03:17 4.5 C 42 %
3932 27-12-2019 07:13:17 4.4 C 42 %
3933 27-12-2019 07:23:18 4.4 C 42 %
3934 27-12-2019 07:33:17 4.4 C 42 %
3935 27-12-2019 07:43:17 4.4 C 42 %
3936 27-12-2019 07:53:17 4.3 C 42 %
3937 27-12-2019 08:03:17 4.3 C 42 %
3938 27-12-2019 08:13:17 4.3 C 42 %
3939 27-12-2019 08:23:17 4.3 C 42 %
3940 27-12-2019 08:33:17 4.3 C 42 %
3941 27-12-2019 08:43:17 4.3 C 42 %
3942 27-12-2019 08:53:18 4.3 C 42 %
3943 27-12-2019 09:03:17 4.4 C 42 %
3944 27-12-2019 09:13:17 4.4 C 42 %
3945 27-12-2019 09:23:17 4.3 C 42 %
3946 27-12-2019 09:33:17 4.5 C 42 %
3947 27-12-2019 09:43:17 4.6 C 42 %
3948 27-12-2019 09:53:17 4.8 C 41 %
3949 27-12-2019 10:03:17 4.9 C 41 %
3950 27-12-2019 10:13:17 4.8 C 40 %
Sensor: Nr:Datum:Temp:Feuchte:
Aussen-T/F 3951 27-12-2019 10:23:17 4.8 C 40 %
3952 27-12-2019 10:33:18 4.9 C 40 %
3953 27-12-2019 10:43:18 4.9 C 40 %
3954 27-12-2019 10:53:17 5 C 38 %
3955 27-12-2019 11:03:18 5 C 38 %
3956 27-12-2019 11:13:18 5.1 C 37 %
3957 27-12-2019 11:23:17 5.1 C 37 %
3958 27-12-2019 11:33:17 5.2 C 36 %
3959 27-12-2019 11:43:17 5.7 C 33 %
3960 27-12-2019 11:53:17 6 C 31 %
3961 27-12-2019 12:03:17 6.1 C 31 %
3962 27-12-2019 12:13:17 5.9 C 31 %
3963 27-12-2019 12:23:17 5.9 C 31 %
3964 27-12-2019 12:33:17 6 C 31 %
3965 27-12-2019 12:43:17 6 C 31 %
3966 27-12-2019 12:53:17 5.9 C 31 %
3967 27-12-2019 13:03:17 5.7 C 31 %
3968 27-12-2019 13:13:17 5.7 C 31 %
3969 27-12-2019 13:23:17 5.6 C 31 %
3970 27-12-2019 13:33:17 5.7 C 31 %
3971 27-12-2019 13:43:17 5.7 C 30 %
3972 27-12-2019 13:53:17 5.8 C 30 %
3973 27-12-2019 14:03:18 5.9 C 30 %
3974 27-12-2019 14:13:18 6.1 C 29 %
3975 27-12-2019 14:23:18 5.9 C 29 %
Sensor: Nr:Datum:Temp:Feuchte:
Aussen-T/F 3976 27-12-2019 14:33:17 6 C 30 %
3977 27-12-2019 14:43:17 5.9 C 28 %
3978 27-12-2019 14:53:18 5.8 C 26 %
3979 27-12-2019 15:03:17 5.7 C 27 %
3980 27-12-2019 15:13:17 5.7 C 28 %
3981 27-12-2019 15:23:18 5.6 C 29 %
3982 27-12-2019 15:33:17 5.6 C 29 %
3983 27-12-2019 15:43:17 5.4 C 30 %
3984 27-12-2019 15:53:17 5.3 C 31 %
3985 27-12-2019 16:03:17 5.1 C 33 %
3986 27-12-2019 16:13:17 4.9 C 33 %
3987 27-12-2019 16:23:17 4.9 C 33 %
3988 27-12-2019 16:33:17 4.8 C 34 %
3989 27-12-2019 16:43:17 4.7 C 33 %
3990 27-12-2019 16:53:17 4.6 C 34 %
3991 27-12-2019 17:03:17 4.5 C 34 %
3992 27-12-2019 17:13:17 4.5 C 35 %
3993 27-12-2019 17:23:17 4.5 C 33 %
3994 27-12-2019 17:33:18 4.5 C 34 %
3995 27-12-2019 17:43:18 4.5 C 34 %
3996 27-12-2019 17:53:17 4.4 C 34 %
3997 27-12-2019 18:03:18 4.4 C 33 %
3998 27-12-2019 18:13:18 4.4 C 33 %
3999 27-12-2019 18:23:17 4.4 C 32 %
4000 27-12-2019 18:33:18 4.4 C 34 %
Sensor: Nr:Datum:Temp:Feuchte:
Aussen-T/F 4001 27-12-2019 18:43:18 4.3 C 34 %
4002 27-12-2019 18:53:17 4.2 C 33 %
4003 27-12-2019 19:03:17 4.2 C 33 %
4004 27-12-2019 19:13:17 4.2 C 33 %
4005 27-12-2019 19:23:17 4.3 C 32 %
4006 27-12-2019 19:33:17 4.2 C 33 %
4007 27-12-2019 19:43:17 4.1 C 34 %
4008 27-12-2019 19:53:18 3.9 C 35 %
4009 27-12-2019 20:03:17 3.8 C 34 %
4010 27-12-2019 20:13:17 4 C 32 %
4011 27-12-2019 20:23:17 4 C 32 %
4012 27-12-2019 20:33:18 4 C 32 %
4013 27-12-2019 20:43:18 4 C 31 %
4014 27-12-2019 20:53:17 4.1 C 31 %
4015 27-12-2019 21:03:18 4.1 C 31 %
4016 27-12-2019 21:13:18 4 C 31 %
4017 27-12-2019 21:23:17 4 C 31 %
4018 27-12-2019 21:33:18 3.9 C 33 %
4019 27-12-2019 21:43:18 3.9 C 32 %
4020 27-12-2019 21:53:17 3.7 C 32 %
4021 27-12-2019 22:03:17 3.6 C 32 %
4022 27-12-2019 22:13:17 3.3 C 32 %
4023 27-12-2019 22:23:17 3.2 C 32 %
4024 27-12-2019 22:33:17 2.7 C 33 %
4025 27-12-2019 22:43:17 2.2 C 34 %
Sensor: Nr:Datum:Temp:Feuchte:
Aussen-T/F 4026 27-12-2019 22:53:17 2 C 35 %
4027 27-12-2019 23:03:18 1.7 C 38 %
4028 27-12-2019 23:13:18 1.3 C 39 %
4029 27-12-2019 23:23:17 1.2 C 41 %
4030 27-12-2019 23:33:17 0.9 C 42 %
4031 27-12-2019 23:43:17 0.8 C 41 %
4032 27-12-2019 23:53:17 0.7 C 41 %
4033 28-12-2019 00:03:17 0.5 C 40 %
4034 28-12-2019 00:13:17 0.4 C 41 %
4035 28-12-2019 00:23:18 0.4 C 41 %
4036 28-12-2019 00:33:17 0.3 C 41 %
4037 28-12-2019 00:43:17 0.3 C 41 %
4038 28-12-2019 00:53:17 0.2 C 40 %
4039 28-12-2019 01:03:17 0.1 C 40 %
4040 28-12-2019 01:13:17 -0.2 C 43 %
4041 28-12-2019 01:23:17 -0.5 C 43 %
4042 28-12-2019 01:33:17 -0.3 C 44 %
4043 28-12-2019 01:43:17 -0.7 C 42 %
4044 28-12-2019 01:53:17 -1.1 C 43 %
4045 28-12-2019 02:03:17 -1.3 C 45 %
4046 28-12-2019 02:13:17 -1.5 C 44 %
4047 28-12-2019 02:23:17 -1.7 C 44 %
4048 28-12-2019 02:33:18 -1.5 C 45 %
4049 28-12-2019 02:43:18 -1.5 C 45 %
4050 28-12-2019 02:53:17 -1.6 C 45 %
Sensor: Nr:Datum:Temp:Feuchte:
Aussen-T/F 4051 28-12-2019 03:03:17 -1.9 C 45 %
4052 28-12-2019 03:13:18 -1.7 C 45 %
4053 28-12-2019 03:23:17 -2.1 C 45 %
4054 28-12-2019 03:33:17 -2.1 C 45 %
4055 28-12-2019 03:43:17 -2.1 C 45 %
4056 28-12-2019 03:53:18 -2.4 C 45 %
4057 28-12-2019 04:03:17 -2.4 C 45 %
4058 28-12-2019 04:13:17 -2.4 C 45 %
4059 28-12-2019 04:23:17 -2.3 C 45 %
4060 28-12-2019 04:33:17 -2.4 C 45 %
4061 28-12-2019 04:43:18 -2.3 C 45 %
4062 28-12-2019 04:53:17 -2.4 C 45 %
4063 28-12-2019 05:03:18 -2.6 C 44 %
4064 28-12-2019 05:13:18 -2.7 C 44 %
4065 28-12-2019 05:23:17 -2.5 C 45 %
4066 28-12-2019 05:33:18 -2.5 C 45 %
4067 28-12-2019 05:43:18 -2.1 C 45 %
4068 28-12-2019 05:53:17 -2.3 C 45 %
4069 28-12-2019 06:03:17 -1.8 C 45 %
4070 28-12-2019 06:13:18 -2.1 C 44 %
4071 28-12-2019 06:23:17 -2.2 C 43 %
4072 28-12-2019 06:33:17 -2 C 44 %
4073 28-12-2019 06:43:18 -1.9 C 44 %
4074 28-12-2019 06:53:17 -2.1 C 43 %
4075 28-12-2019 07:03:18 -2 C 43 %
Sensor: Nr:Datum:Temp:Feuchte:
Aussen-T/F 4076 28-12-2019 07:13:18 -2.3 C 43 %
4077 28-12-2019 07:23:17 -2.8 C 42 %
4078 28-12-2019 07:33:17 -2.3 C 43 %
4079 28-12-2019 07:43:17 -2.4 C 43 %
4080 28-12-2019 07:53:17 -2.2 C 44 %
4081 28-12-2019 08:03:17 -2.6 C 43 %
4082 28-12-2019 08:13:17 -3 C 42 %
4083 28-12-2019 08:23:18 -3.1 C 42 %
4084 28-12-2019 08:33:17 -3.2 C 42 %
4085 28-12-2019 08:43:17 -3.2 C 42 %
4086 28-12-2019 08:53:17 -2.9 C 43 %
4087 28-12-2019 09:03:18 -2.9 C 43 %
4088 28-12-2019 09:13:18 -2.8 C 43 %
4089 28-12-2019 09:23:17 -2.7 C 43 %
4090 28-12-2019 09:33:17 -2.5 C 43 %
4091 28-12-2019 09:43:17 -1.9 C 45 %
4092 28-12-2019 09:53:17 -1.7 C 45 %
4093 28-12-2019 10:03:17 -1.6 C 45 %
4094 28-12-2019 10:13:17 -1.4 C 45 %
4095 28-12-2019 10:23:17 -1.5 C 45 %
4096 28-12-2019 10:33:18 -1.3 C 45 %
4097 28-12-2019 10:43:18 -1.3 C 45 %
4098 28-12-2019 10:53:17 -1.1 C 45 %
4099 28-12-2019 11:03:18 -1 C 44 %
4100 28-12-2019 11:13:18 -0.9 C 44 %
Sensor: Nr:Datum:Temp:Feuchte:
Aussen-T/F 4101 28-12-2019 11:23:17 -0.6 C 44 %
4102 28-12-2019 11:33:17 -0.5 C 43 %
4103 28-12-2019 11:43:18 -0.3 C 42 %
4104 28-12-2019 11:53:17 -0.2 C 42 %
4105 28-12-2019 12:03:17 -0.2 C 41 %
4106 28-12-2019 12:13:17 0 C 41 %
4107 28-12-2019 12:23:17 0.2 C 41 %
4108 28-12-2019 12:33:17 0.3 C 41 %
4109 28-12-2019 12:43:18 0.4 C 40 %
4110 28-12-2019 12:53:17 0.5 C 40 %
4111 28-12-2019 13:03:18 0.7 C 40 %
4112 28-12-2019 13:13:18 0.8 C 40 %
4113 28-12-2019 13:23:17 0.8 C 40 %
4114 28-12-2019 13:33:17 0.9 C 40 %
4115 28-12-2019 13:43:17 0.8 C 40 %
4116 28-12-2019 13:53:17 0.6 C 40 %
4117 28-12-2019 14:03:17 0.6 C 41 %
4118 28-12-2019 14:13:17 0.7 C 41 %
4119 28-12-2019 14:23:17 0.8 C 40 %
4120 28-12-2019 14:33:17 0.7 C 40 %
4121 28-12-2019 14:43:17 0.6 C 40 %
4122 28-12-2019 14:53:17 0.5 C 40 %
4123 28-12-2019 15:03:17 0.5 C 40 %
4124 28-12-2019 15:13:18 0.5 C 40 %
4125 28-12-2019 15:23:17 0.2 C 40 %
Sensor: Nr:Datum:Temp:Feuchte:
Aussen-T/F 4126 28-12-2019 15:33:17 0.4 C 40 %
4127 28-12-2019 15:43:17 0.3 C 39 %
4128 28-12-2019 15:53:18 0.4 C 39 %
4129 28-12-2019 16:03:17 0.3 C 38 %
4130 28-12-2019 16:13:17 0.2 C 38 %
4131 28-12-2019 16:23:17 0 C 39 %
4132 28-12-2019 16:33:17 0 C 39 %
4133 28-12-2019 16:43:17 -0.1 C 38 %
4134 28-12-2019 16:53:17 -0.3 C 39 %
4135 28-12-2019 17:03:17 -0.4 C 39 %
4136 28-12-2019 17:13:17 -0.4 C 40 %
4137 28-12-2019 17:23:17 -0.5 C 40 %
4138 28-12-2019 17:33:18 -0.6 C 40 %
4139 28-12-2019 17:43:18 -0.7 C 41 %
4140 28-12-2019 17:53:17 -1.3 C 41 %
4141 28-12-2019 18:03:17 -1.2 C 44 %
4142 28-12-2019 18:13:17 -1.1 C 43 %
4143 28-12-2019 18:23:17 -1.1 C 43 %
4144 28-12-2019 18:33:17 -0.9 C 43 %
4145 28-12-2019 18:43:17 -1.2 C 43 %
4146 28-12-2019 18:53:17 -0.9 C 43 %
4147 28-12-2019 19:03:17 -1.2 C 42 %
4148 28-12-2019 19:13:18 -1.7 C 42 %
4149 28-12-2019 19:23:17 -1.9 C 43 %
4150 28-12-2019 19:33:18 -1.9 C 44 %
Sensor: Nr:Datum:Temp:Feuchte:
Aussen-T/F 4151 28-12-2019 19:43:18 -1.9 C 44 %
4152 28-12-2019 19:53:17 -1.8 C 44 %
4153 28-12-2019 20:03:17 -1.9 C 44 %
4154 28-12-2019 20:13:17 -1.7 C 45 %
4155 28-12-2019 20:23:17 -1.2 C 45 %
4156 28-12-2019 20:33:18 -1.2 C 43 %
4157 28-12-2019 20:43:18 -1.4 C 43 %
4158 28-12-2019 20:53:18 -1.2 C 44 %
4159 28-12-2019 21:03:17 -1.6 C 43 %
4160 28-12-2019 21:13:17 -1.3 C 44 %
4161 28-12-2019 21:23:17 -1.4 C 41 %
4162 28-12-2019 21:33:17 -1.8 C 41 %
4163 28-12-2019 21:43:18 -1.6 C 43 %
4164 28-12-2019 21:53:17 -1.7 C 42 %
4165 28-12-2019 22:03:18 -1.7 C 42 %
4166 28-12-2019 22:13:18 -2.2 C 41 %
4167 28-12-2019 22:23:17 -2.3 C 42 %
4168 28-12-2019 22:33:17 -2.3 C 42 %
4169 28-12-2019 22:43:17 -2.5 C 42 %
4170 28-12-2019 22:53:17 -2.2 C 43 %
4171 28-12-2019 23:03:17 -2.5 C 42 %
4172 28-12-2019 23:13:17 -2.3 C 43 %
4173 28-12-2019 23:23:17 -2.3 C 43 %
4174 28-12-2019 23:33:17 -2.7 C 42 %
4175 28-12-2019 23:43:17 -2.6 C 43 %
Sensor: Nr:Datum:Temp:Feuchte:
Aussen-T/F 4176 28-12-2019 23:53:17 -2.9 C 42 %
Sensor: Nr:Datum:Temp:Feuchte:
G-T/H 1 30-11-2019 00:00:17 10.4 C 68 %
2 30-11-2019 00:10:17 10.4 C 67 %
3 30-11-2019 00:20:17 10.4 C 67 %
4 30-11-2019 00:30:17 10.4 C 67 %
5 30-11-2019 00:40:17 10.3 C 67 %
6 30-11-2019 00:50:17 10.3 C 67 %
7 30-11-2019 01:00:17 10.3 C 67 %
8 30-11-2019 01:10:17 10.3 C 67 %
9 30-11-2019 01:20:17 10.3 C 67 %
10 30-11-2019 01:30:17 10.2 C 67 %
11 30-11-2019 01:40:17 10.2 C 67 %
12 30-11-2019 01:50:17 10.2 C 67 %
13 30-11-2019 02:00:17 10.2 C 67 %
14 30-11-2019 02:10:17 10.2 C 67 %
15 30-11-2019 02:20:17 10.2 C 67 %
16 30-11-2019 02:30:17 10.1 C 67 %
17 30-11-2019 02:40:17 10.1 C 67 %
18 30-11-2019 02:50:17 10.1 C 67 %
19 30-11-2019 03:00:17 10.1 C 67 %
20 30-11-2019 03:10:17 10.1 C 67 %
21 30-11-2019 03:20:17 10.1 C 66 %
22 30-11-2019 03:30:17 10.1 C 66 %
23 30-11-2019 03:40:17 10 C 66 %
24 30-11-2019 03:50:17 10 C 66 %
25 30-11-2019 04:00:17 10 C 66 %
Sensor: Nr:Datum:Temp:Feuchte:
G-T/H 26 30-11-2019 04:10:17 10 C 66 %
27 30-11-2019 04:20:17 10 C 67 %
28 30-11-2019 04:30:17 10 C 67 %
29 30-11-2019 04:40:17 10 C 67 %
30 30-11-2019 04:50:17 10 C 67 %
31 30-11-2019 05:00:17 10 C 67 %
32 30-11-2019 05:10:17 10 C 67 %
33 30-11-2019 05:20:17 10 C 68 %
34 30-11-2019 05:30:17 10 C 68 %
35 30-11-2019 05:40:17 9.9 C 69 %
36 30-11-2019 05:50:17 9.9 C 69 %
37 30-11-2019 06:00:17 9.9 C 69 %
38 30-11-2019 06:10:17 9.9 C 69 %
39 30-11-2019 06:20:17 9.9 C 69 %
40 30-11-2019 06:30:17 9.9 C 69 %
41 30-11-2019 06:40:17 9.8 C 69 %
42 30-11-2019 06:50:17 9.8 C 69 %
43 30-11-2019 07:00:17 9.8 C 69 %
44 30-11-2019 07:10:17 9.8 C 69 %
45 30-11-2019 07:20:17 9.8 C 69 %
46 30-11-2019 07:30:17 9.8 C 69 %
47 30-11-2019 07:40:17 9.8 C 69 %
48 30-11-2019 07:50:17 9.7 C 69 %
49 30-11-2019 08:00:17 9.7 C 69 %
50 30-11-2019 08:10:17 9.8 C 69 %
Sensor: Nr:Datum:Temp:Feuchte:
G-T/H 51 30-11-2019 08:20:17 9.7 C 69 %
52 30-11-2019 08:30:17 9.7 C 69 %
53 30-11-2019 08:40:17 9.7 C 69 %
54 30-11-2019 08:50:17 9.7 C 69 %
55 30-11-2019 09:00:17 9.7 C 69 %
56 30-11-2019 09:10:17 9.7 C 69 %
57 30-11-2019 09:20:17 9.7 C 69 %
58 30-11-2019 09:30:17 9.6 C 69 %
59 30-11-2019 09:40:17 9.6 C 69 %
60 30-11-2019 09:50:17 9.6 C 69 %
61 30-11-2019 10:00:17 9.6 C 69 %
62 30-11-2019 10:10:17 9.6 C 69 %
63 30-11-2019 10:20:17 9.6 C 69 %
64 30-11-2019 10:30:17 9.6 C 69 %
65 30-11-2019 10:40:17 9.6 C 69 %
66 30-11-2019 10:50:17 9.6 C 69 %
67 30-11-2019 11:00:18 9.6 C 69 %
68 30-11-2019 11:10:18 9.6 C 69 %
69 30-11-2019 11:20:17 9.5 C 69 %
70 30-11-2019 11:30:17 9.5 C 69 %
71 30-11-2019 11:40:17 9.5 C 69 %
72 30-11-2019 11:50:17 9.6 C 69 %
73 30-11-2019 12:00:17 9.8 C 69 %
74 30-11-2019 12:10:17 9.8 C 69 %
75 30-11-2019 12:20:17 9.7 C 69 %
Sensor: Nr:Datum:Temp:Feuchte:
G-T/H 76 30-11-2019 12:30:17 9.7 C 69 %
77 30-11-2019 12:40:17 9.7 C 69 %
78 30-11-2019 12:50:17 9.6 C 69 %
79 30-11-2019 13:00:17 9.6 C 69 %
80 30-11-2019 13:10:17 9.6 C 69 %
81 30-11-2019 13:20:17 9.6 C 69 %
82 30-11-2019 13:30:17 9.6 C 69 %
83 30-11-2019 13:40:17 9.6 C 69 %
84 30-11-2019 13:50:17 9.6 C 69 %
85 30-11-2019 14:00:17 9.6 C 69 %
86 30-11-2019 14:10:17 9.6 C 69 %
87 30-11-2019 14:20:17 9.5 C 70 %
88 30-11-2019 14:30:17 9.5 C 70 %
89 30-11-2019 14:40:17 9.5 C 70 %
90 30-11-2019 14:50:17 9.5 C 70 %
91 30-11-2019 15:00:17 9.5 C 70 %
92 30-11-2019 15:10:17 9.5 C 70 %
93 30-11-2019 15:20:18 9.5 C 70 %
94 30-11-2019 15:30:17 9.5 C 70 %
95 30-11-2019 15:40:17 9.5 C 70 %
96 30-11-2019 15:50:17 9.5 C 70 %
97 30-11-2019 16:00:17 9.4 C 70 %
98 30-11-2019 16:10:17 9.4 C 70 %
99 30-11-2019 16:20:17 9.4 C 70 %
100 30-11-2019 16:30:17 9.4 C 70 %
Sensor: Nr:Datum:Temp:Feuchte:
G-T/H 101 30-11-2019 16:40:17 9.4 C 70 %
102 30-11-2019 16:50:17 9.4 C 70 %
103 30-11-2019 17:00:17 9.5 C 70 %
104 30-11-2019 17:10:17 9.4 C 70 %
105 30-11-2019 17:20:17 9.4 C 70 %
106 30-11-2019 17:30:17 9.5 C 70 %
107 30-11-2019 17:40:17 9.4 C 70 %
108 30-11-2019 17:50:17 9.4 C 70 %
109 30-11-2019 18:00:17 9.4 C 70 %
110 30-11-2019 18:10:17 9.4 C 70 %
111 30-11-2019 18:20:17 9.4 C 70 %
112 30-11-2019 18:30:17 9.4 C 70 %
113 30-11-2019 18:40:17 9.4 C 70 %
114 30-11-2019 18:50:17 9.4 C 70 %
115 30-11-2019 19:00:17 9.4 C 70 %
116 30-11-2019 19:10:17 9.4 C 70 %
117 30-11-2019 19:20:17 9.4 C 70 %
118 30-11-2019 19:30:17 9.4 C 70 %
119 30-11-2019 19:40:17 9.4 C 70 %
120 30-11-2019 19:50:17 9.4 C 70 %
121 30-11-2019 20:00:17 9.3 C 70 %
122 30-11-2019 20:10:18 9.3 C 70 %
123 30-11-2019 20:20:18 9.3 C 70 %
124 30-11-2019 20:30:17 9.3 C 70 %
125 30-11-2019 20:40:17 9.3 C 70 %
Sensor: Nr:Datum:Temp:Feuchte:
G-T/H 126 30-11-2019 20:50:17 9.3 C 70 %
127 30-11-2019 21:00:17 9.3 C 70 %
128 30-11-2019 21:10:17 9.3 C 70 %
129 30-11-2019 21:20:17 9.3 C 70 %
130 30-11-2019 21:30:17 9.3 C 70 %
131 30-11-2019 21:40:17 9.3 C 70 %
132 30-11-2019 21:50:17 9.3 C 70 %
133 30-11-2019 22:00:17 9.2 C 70 %
134 30-11-2019 22:10:17 9.3 C 70 %
135 30-11-2019 22:20:17 9.3 C 70 %
136 30-11-2019 22:30:17 9.3 C 70 %
137 30-11-2019 22:40:17 9.2 C 70 %
138 30-11-2019 22:50:17 9.3 C 70 %
139 30-11-2019 23:00:17 9.2 C 70 %
140 30-11-2019 23:10:17 9.2 C 70 %
141 30-11-2019 23:20:17 9.2 C 70 %
142 30-11-2019 23:30:17 9.2 C 70 %
143 30-11-2019 23:40:17 9.2 C 70 %
144 30-11-2019 23:50:17 9.2 C 70 %
145 01-12-2019 00:00:17 9.2 C 70 %
146 01-12-2019 00:10:17 9.2 C 70 %
147 01-12-2019 00:20:17 9.2 C 70 %
148 01-12-2019 00:30:17 9.2 C 70 %
149 01-12-2019 00:40:17 9.2 C 70 %
150 01-12-2019 00:50:18 9.2 C 70 %
Sensor: Nr:Datum:Temp:Feuchte:
G-T/H 151 01-12-2019 01:00:17 9.2 C 70 %
152 01-12-2019 01:10:17 9.2 C 70 %
153 01-12-2019 01:20:17 9.1 C 70 %
154 01-12-2019 01:30:17 9.1 C 70 %
155 01-12-2019 01:40:17 9.1 C 70 %
156 01-12-2019 01:50:17 9.1 C 70 %
157 01-12-2019 02:00:17 9.1 C 70 %
158 01-12-2019 02:10:17 9.1 C 70 %
159 01-12-2019 02:20:17 9.1 C 69 %
160 01-12-2019 02:30:17 9.1 C 69 %
161 01-12-2019 02:40:17 9.1 C 69 %
162 01-12-2019 02:50:17 9.1 C 69 %
163 01-12-2019 03:00:17 9.1 C 69 %
164 01-12-2019 03:10:17 9.1 C 69 %
165 01-12-2019 03:20:17 9.1 C 69 %
166 01-12-2019 03:30:17 9.1 C 69 %
167 01-12-2019 03:40:17 9.1 C 69 %
168 01-12-2019 03:50:17 9 C 69 %
169 01-12-2019 04:00:17 9.1 C 69 %
170 01-12-2019 04:10:17 9 C 69 %
171 01-12-2019 04:20:17 9 C 69 %
172 01-12-2019 04:30:17 9 C 69 %
173 01-12-2019 04:40:17 9 C 69 %
174 01-12-2019 04:50:17 9 C 69 %
175 01-12-2019 05:00:17 9 C 69 %
Sensor: Nr:Datum:Temp:Feuchte:
G-T/H 176 01-12-2019 05:10:17 9 C 69 %
177 01-12-2019 05:20:17 8.9 C 70 %
178 01-12-2019 05:30:17 9 C 69 %
179 01-12-2019 05:40:17 9 C 69 %
180 01-12-2019 05:50:17 9 C 69 %
181 01-12-2019 06:00:17 8.9 C 70 %
182 01-12-2019 06:10:17 8.9 C 70 %
183 01-12-2019 06:20:17 8.9 C 70 %
184 01-12-2019 06:30:17 8.9 C 70 %
185 01-12-2019 06:40:17 8.9 C 70 %
186 01-12-2019 06:50:17 8.9 C 70 %
187 01-12-2019 07:00:17 8.9 C 70 %
188 01-12-2019 07:10:17 8.9 C 70 %
189 01-12-2019 07:20:17 8.9 C 70 %
190 01-12-2019 07:30:17 8.9 C 70 %
191 01-12-2019 07:40:17 8.9 C 70 %
192 01-12-2019 07:50:17 8.9 C 70 %
193 01-12-2019 08:00:17 8.9 C 70 %
194 01-12-2019 08:10:17 8.8 C 70 %
195 01-12-2019 08:20:17 8.8 C 70 %
196 01-12-2019 08:30:17 8.8 C 70 %
197 01-12-2019 08:40:17 8.7 C 69 %
198 01-12-2019 08:50:17 8.7 C 69 %
199 01-12-2019 09:00:17 8.7 C 69 %
200 01-12-2019 09:10:17 8.7 C 69 %
Sensor: Nr:Datum:Temp:Feuchte:
G-T/H 201 01-12-2019 09:20:17 8.7 C 69 %
202 01-12-2019 09:30:17 8.8 C 69 %
203 01-12-2019 09:40:17 8.7 C 70 %
204 01-12-2019 09:50:17 8.7 C 70 %
205 01-12-2019 10:00:17 8.7 C 70 %
206 01-12-2019 10:10:17 8.7 C 70 %
207 01-12-2019 10:20:17 8.7 C 70 %
208 01-12-2019 10:30:17 8.7 C 70 %
209 01-12-2019 10:40:17 8.7 C 70 %
210 01-12-2019 10:50:17 8.7 C 70 %
211 01-12-2019 11:00:17 8.7 C 70 %
212 01-12-2019 11:10:17 8.7 C 70 %
213 01-12-2019 11:20:17 8.7 C 70 %
214 01-12-2019 11:30:17 8.7 C 70 %
215 01-12-2019 11:40:17 8.7 C 70 %
216 01-12-2019 11:50:17 8.7 C 70 %
217 01-12-2019 12:00:17 8.7 C 70 %
218 01-12-2019 12:10:17 8.7 C 70 %
219 01-12-2019 12:20:17 8.7 C 70 %
220 01-12-2019 12:30:18 8.7 C 70 %
221 01-12-2019 12:40:18 8.7 C 70 %
222 01-12-2019 12:50:18 8.7 C 70 %
223 01-12-2019 13:00:17 8.7 C 70 %
224 01-12-2019 13:10:17 8.7 C 70 %
225 01-12-2019 13:20:18 8.7 C 70 %
Sensor: Nr:Datum:Temp:Feuchte:
G-T/H 226 01-12-2019 13:30:18 8.7 C 70 %
227 01-12-2019 13:40:18 8.7 C 70 %
228 01-12-2019 13:50:17 8.7 C 70 %
229 01-12-2019 14:00:17 8.7 C 70 %
230 01-12-2019 14:10:18 8.7 C 70 %
231 01-12-2019 14:20:18 8.7 C 70 %
232 01-12-2019 14:30:17 8.7 C 70 %
233 01-12-2019 14:40:17 8.7 C 70 %
234 01-12-2019 14:50:17 8.7 C 70 %
235 01-12-2019 15:00:17 8.7 C 70 %
236 01-12-2019 15:10:17 8.7 C 71 %
237 01-12-2019 15:20:17 8.7 C 71 %
238 01-12-2019 15:30:17 8.7 C 71 %
239 01-12-2019 15:40:17 8.7 C 71 %
240 01-12-2019 15:50:17 8.7 C 71 %
241 01-12-2019 16:00:17 8.7 C 71 %
242 01-12-2019 16:10:17 8.7 C 71 %
243 01-12-2019 16:20:17 8.7 C 71 %
244 01-12-2019 16:30:18 8.7 C 71 %
245 01-12-2019 16:40:18 8.7 C 71 %
246 01-12-2019 16:50:18 8.7 C 71 %
247 01-12-2019 17:00:18 8.7 C 71 %
248 01-12-2019 17:10:18 8.7 C 71 %
249 01-12-2019 17:20:17 8.7 C 71 %
250 01-12-2019 17:30:17 8.7 C 71 %
Sensor: Nr:Datum:Temp:Feuchte:
G-T/H 251 01-12-2019 17:40:17 8.7 C 71 %
252 01-12-2019 17:50:17 8.7 C 71 %
253 01-12-2019 18:00:17 8.7 C 71 %
254 01-12-2019 18:10:17 8.7 C 71 %
255 01-12-2019 18:20:17 8.7 C 71 %
256 01-12-2019 18:30:17 8.7 C 71 %
257 01-12-2019 18:40:17 8.7 C 71 %
258 01-12-2019 18:50:17 8.7 C 71 %
259 01-12-2019 19:00:17 8.7 C 71 %
260 01-12-2019 19:10:18 8.7 C 71 %
261 01-12-2019 19:20:17 8.7 C 71 %
262 01-12-2019 19:30:17 8.7 C 71 %
263 01-12-2019 19:40:17 8.7 C 71 %
264 01-12-2019 19:50:17 8.7 C 71 %
265 01-12-2019 20:00:17 8.7 C 71 %
266 01-12-2019 20:10:17 8.7 C 71 %
267 01-12-2019 20:20:17 8.7 C 71 %
268 01-12-2019 20:30:18 8.7 C 71 %
269 01-12-2019 20:40:18 8.7 C 71 %
270 01-12-2019 20:50:17 8.7 C 71 %
271 01-12-2019 21:00:17 8.7 C 71 %
272 01-12-2019 21:10:17 8.8 C 71 %
273 01-12-2019 21:20:17 8.7 C 71 %
274 01-12-2019 21:30:18 8.7 C 71 %
275 01-12-2019 21:40:18 8.7 C 71 %
Sensor: Nr:Datum:Temp:Feuchte:
G-T/H 276 01-12-2019 21:50:17 8.7 C 71 %
277 01-12-2019 22:00:17 8.7 C 71 %
278 01-12-2019 22:10:17 8.7 C 71 %
279 01-12-2019 22:20:17 8.7 C 71 %
280 01-12-2019 22:30:18 8.7 C 71 %
281 01-12-2019 22:40:18 8.7 C 71 %
282 01-12-2019 22:50:17 8.7 C 71 %
283 01-12-2019 23:00:17 8.7 C 71 %
284 01-12-2019 23:10:17 8.7 C 71 %
285 01-12-2019 23:20:18 8.7 C 71 %
286 01-12-2019 23:30:17 8.7 C 71 %
287 01-12-2019 23:40:17 8.7 C 71 %
288 01-12-2019 23:50:17 8.7 C 71 %
289 02-12-2019 00:00:17 8.7 C 71 %
290 02-12-2019 00:10:17 8.7 C 71 %
291 02-12-2019 00:20:17 8.7 C 71 %
292 02-12-2019 00:30:17 8.7 C 71 %
293 02-12-2019 00:40:17 8.7 C 71 %
294 02-12-2019 00:50:18 8.7 C 71 %
295 02-12-2019 01:00:17 8.7 C 71 %
296 02-12-2019 01:10:17 8.7 C 71 %
297 02-12-2019 01:20:17 8.7 C 71 %
298 02-12-2019 01:30:17 8.6 C 71 %
299 02-12-2019 01:40:17 8.7 C 71 %
300 02-12-2019 01:50:17 8.6 C 70 %
Sensor: Nr:Datum:Temp:Feuchte:
G-T/H 301 02-12-2019 02:00:18 8.6 C 70 %
302 02-12-2019 02:10:18 8.6 C 70 %
303 02-12-2019 02:20:17 8.6 C 70 %
304 02-12-2019 02:30:17 8.6 C 70 %
305 02-12-2019 02:40:17 8.6 C 70 %
306 02-12-2019 02:50:17 8.6 C 70 %
307 02-12-2019 03:00:17 8.6 C 70 %
308 02-12-2019 03:10:17 8.5 C 70 %
309 02-12-2019 03:20:17 8.5 C 70 %
310 02-12-2019 03:30:18 8.5 C 70 %
311 02-12-2019 03:40:18 8.5 C 70 %
312 02-12-2019 03:50:17 8.5 C 70 %
313 02-12-2019 04:00:18 8.5 C 70 %
314 02-12-2019 04:10:18 8.5 C 70 %
315 02-12-2019 04:20:17 8.5 C 70 %
316 02-12-2019 04:30:17 8.5 C 70 %
317 02-12-2019 04:40:17 8.5 C 70 %
318 02-12-2019 04:50:17 8.5 C 70 %
319 02-12-2019 05:00:17 8.5 C 70 %
320 02-12-2019 05:10:17 8.4 C 70 %
321 02-12-2019 05:20:17 8.4 C 70 %
322 02-12-2019 05:30:17 8.4 C 70 %
323 02-12-2019 05:40:17 8.4 C 70 %
324 02-12-2019 05:50:17 8.4 C 70 %
325 02-12-2019 06:00:17 8.4 C 70 %
Sensor: Nr:Datum:Temp:Feuchte:
G-T/H 326 02-12-2019 06:10:17 8.4 C 70 %
327 02-12-2019 06:20:17 8.4 C 70 %
328 02-12-2019 06:30:17 8.4 C 70 %
329 02-12-2019 06:40:17 8.4 C 69 %
330 02-12-2019 06:50:17 8.3 C 69 %
331 02-12-2019 07:00:17 8.3 C 69 %
332 02-12-2019 07:10:17 8.3 C 69 %
333 02-12-2019 07:20:17 8.3 C 69 %
334 02-12-2019 07:30:17 8.3 C 69 %
335 02-12-2019 07:40:17 8.3 C 69 %
336 02-12-2019 07:50:17 8.3 C 69 %
337 02-12-2019 08:00:17 8.3 C 69 %
338 02-12-2019 08:10:18 8.2 C 69 %
339 02-12-2019 08:20:17 8.2 C 69 %
340 02-12-2019 08:30:17 8.2 C 69 %
341 02-12-2019 08:40:17 8.2 C 69 %
342 02-12-2019 08:50:17 8.2 C 69 %
343 02-12-2019 09:00:17 8.2 C 69 %
344 02-12-2019 09:10:17 8.2 C 69 %
345 02-12-2019 09:20:17 8.2 C 69 %
346 02-12-2019 09:30:17 8.2 C 69 %
347 02-12-2019 09:40:17 8.2 C 69 %
348 02-12-2019 09:50:17 8.2 C 69 %
349 02-12-2019 10:00:17 8.2 C 69 %
350 02-12-2019 10:10:17 8.2 C 69 %
Sensor: Nr:Datum:Temp:Feuchte:
G-T/H 351 02-12-2019 10:20:17 8.2 C 69 %
352 02-12-2019 10:30:17 8.2 C 69 %
353 02-12-2019 10:40:17 8.2 C 69 %
354 02-12-2019 10:50:17 8.2 C 69 %
355 02-12-2019 11:00:17 8.2 C 69 %
356 02-12-2019 11:10:17 8.2 C 70 %
357 02-12-2019 11:20:17 8.2 C 70 %
358 02-12-2019 11:30:17 8.2 C 70 %
359 02-12-2019 11:40:18 8.2 C 70 %
360 02-12-2019 11:50:17 8.2 C 70 %
361 02-12-2019 12:00:18 8.2 C 70 %
362 02-12-2019 12:10:18 8.1 C 70 %
363 02-12-2019 12:20:17 8.1 C 70 %
364 02-12-2019 12:30:17 8.2 C 70 %
365 02-12-2019 12:40:17 8.2 C 70 %
366 02-12-2019 12:50:18 8.2 C 70 %
367 02-12-2019 13:00:17 8.2 C 70 %
368 02-12-2019 13:10:17 8.2 C 70 %
369 02-12-2019 13:20:17 8.2 C 70 %
370 02-12-2019 13:30:17 8.2 C 70 %
371 02-12-2019 13:40:17 8.2 C 70 %
372 02-12-2019 13:50:17 8.2 C 70 %
373 02-12-2019 14:00:17 8.2 C 70 %
374 02-12-2019 14:10:17 8.2 C 70 %
375 02-12-2019 14:20:17 8.2 C 70 %
Sensor: Nr:Datum:Temp:Feuchte:
G-T/H 376 02-12-2019 14:30:17 8.2 C 70 %
377 02-12-2019 14:40:17 8.2 C 71 %
378 02-12-2019 14:50:17 8.2 C 71 %
379 02-12-2019 15:00:18 8.2 C 71 %
380 02-12-2019 15:10:18 8.2 C 71 %
381 02-12-2019 15:20:17 8.2 C 71 %
382 02-12-2019 15:30:17 8.2 C 71 %
383 02-12-2019 15:40:17 8.3 C 71 %
384 02-12-2019 15:50:17 8.2 C 71 %
385 02-12-2019 16:00:18 8.3 C 71 %
386 02-12-2019 16:10:18 8.2 C 71 %
387 02-12-2019 16:20:17 8.2 C 71 %
388 02-12-2019 16:30:17 8.2 C 71 %
389 02-12-2019 16:40:17 8.2 C 71 %
390 02-12-2019 16:50:17 8.3 C 71 %
391 02-12-2019 17:00:17 8.2 C 71 %
392 02-12-2019 17:10:17 8.3 C 71 %
393 02-12-2019 17:20:17 8.3 C 71 %
394 02-12-2019 17:30:18 8.3 C 71 %
395 02-12-2019 17:40:18 8.3 C 72 %
396 02-12-2019 17:50:17 8.3 C 72 %
397 02-12-2019 18:01:17 8.3 C 72 %
398 02-12-2019 18:11:17 8.3 C 72 %
399 02-12-2019 18:21:17 8.3 C 72 %
400 02-12-2019 18:30:17 8.3 C 72 %
Sensor: Nr:Datum:Temp:Feuchte:
G-T/H 401 02-12-2019 18:40:17 8.3 C 72 %
402 02-12-2019 18:50:17 8.3 C 72 %
403 02-12-2019 19:00:17 8.3 C 72 %
404 02-12-2019 19:10:17 8.3 C 72 %
405 02-12-2019 19:21:17 8.4 C 72 %
406 02-12-2019 19:30:17 8.4 C 72 %
407 02-12-2019 19:40:17 8.4 C 72 %
408 02-12-2019 19:51:17 8.4 C 72 %
409 02-12-2019 20:01:17 8.4 C 72 %
410 02-12-2019 20:11:17 8.4 C 72 %
411 02-12-2019 20:21:17 8.4 C 72 %
412 02-12-2019 20:31:17 8.4 C 72 %
413 02-12-2019 20:40:17 8.4 C 72 %
414 02-12-2019 20:51:17 8.4 C 72 %
415 02-12-2019 21:00:17 8.4 C 72 %
416 02-12-2019 21:10:17 8.4 C 72 %
417 02-12-2019 21:21:17 8.4 C 72 %
418 02-12-2019 21:30:18 8.4 C 72 %
419 02-12-2019 21:40:18 8.4 C 72 %
420 02-12-2019 21:51:17 8.4 C 72 %
421 02-12-2019 22:01:17 8.4 C 72 %
422 02-12-2019 22:11:17 8.4 C 72 %
423 02-12-2019 22:21:17 8.4 C 72 %
424 02-12-2019 22:30:18 8.4 C 72 %
425 02-12-2019 22:40:18 8.4 C 72 %
Sensor: Nr:Datum:Temp:Feuchte:
G-T/H 426 02-12-2019 22:51:17 8.4 C 72 %
427 02-12-2019 23:01:17 8.4 C 72 %
428 02-12-2019 23:11:17 8.4 C 72 %
429 02-12-2019 23:21:17 8.4 C 72 %
430 02-12-2019 23:31:17 8.4 C 72 %
431 02-12-2019 23:41:17 8.4 C 72 %
432 02-12-2019 23:50:18 8.4 C 72 %
433 03-12-2019 00:01:17 8.4 C 72 %
434 03-12-2019 00:11:17 8.4 C 72 %
435 03-12-2019 00:21:17 8.4 C 72 %
436 03-12-2019 00:30:18 8.4 C 72 %
437 03-12-2019 00:40:18 8.4 C 72 %
438 03-12-2019 00:51:17 8.4 C 72 %
439 03-12-2019 01:01:18 8.4 C 72 %
440 03-12-2019 01:11:18 8.5 C 72 %
441 03-12-2019 01:21:17 8.5 C 72 %
442 03-12-2019 01:31:17 8.5 C 72 %
443 03-12-2019 01:41:17 8.5 C 72 %
444 03-12-2019 01:51:17 8.5 C 72 %
445 03-12-2019 02:01:17 8.5 C 72 %
446 03-12-2019 02:11:17 8.5 C 72 %
447 03-12-2019 02:21:17 8.5 C 72 %
448 03-12-2019 02:31:17 8.5 C 72 %
449 03-12-2019 02:41:17 8.5 C 72 %
450 03-12-2019 02:51:17 8.5 C 72 %
Sensor: Nr:Datum:Temp:Feuchte:
G-T/H 451 03-12-2019 03:01:17 8.5 C 73 %
452 03-12-2019 03:11:17 8.5 C 73 %
453 03-12-2019 03:21:17 8.5 C 73 %
454 03-12-2019 03:31:17 8.5 C 73 %
455 03-12-2019 03:41:17 8.5 C 73 %
456 03-12-2019 03:51:17 8.5 C 73 %
457 03-12-2019 04:01:17 8.5 C 73 %
458 03-12-2019 04:11:17 8.5 C 73 %
459 03-12-2019 04:21:17 8.5 C 73 %
460 03-12-2019 04:31:17 8.5 C 73 %
461 03-12-2019 04:41:17 8.5 C 73 %
462 03-12-2019 04:51:17 8.5 C 73 %
463 03-12-2019 05:01:17 8.5 C 73 %
464 03-12-2019 05:11:17 8.5 C 73 %
465 03-12-2019 05:21:17 8.5 C 73 %
466 03-12-2019 05:31:17 8.5 C 73 %
467 03-12-2019 05:41:17 8.5 C 73 %
468 03-12-2019 05:51:17 8.5 C 73 %
469 03-12-2019 06:01:18 8.5 C 73 %
470 03-12-2019 06:11:18 8.5 C 73 %
471 03-12-2019 06:21:17 8.5 C 73 %
472 03-12-2019 06:31:17 8.5 C 73 %
473 03-12-2019 06:41:17 8.5 C 73 %
474 03-12-2019 06:51:18 8.5 C 73 %
475 03-12-2019 07:01:17 8.5 C 73 %
Sensor: Nr:Datum:Temp:Feuchte:
G-T/H 476 03-12-2019 07:11:17 8.5 C 73 %
477 03-12-2019 07:21:17 8.5 C 73 %
478 03-12-2019 07:31:17 8.6 C 73 %
479 03-12-2019 07:41:17 8.5 C 73 %
480 03-12-2019 07:51:17 8.6 C 73 %
481 03-12-2019 08:01:17 8.6 C 73 %
482 03-12-2019 08:11:17 8.6 C 73 %
483 03-12-2019 08:21:17 8.6 C 73 %
484 03-12-2019 08:31:17 8.6 C 73 %
485 03-12-2019 08:41:17 8.6 C 73 %
486 03-12-2019 08:51:17 8.6 C 73 %
487 03-12-2019 09:01:17 8.6 C 73 %
488 03-12-2019 09:11:17 8.6 C 73 %
489 03-12-2019 09:21:17 8.6 C 73 %
490 03-12-2019 09:31:17 8.6 C 73 %
491 03-12-2019 09:41:17 8.6 C 73 %
492 03-12-2019 09:51:17 8.6 C 73 %
493 03-12-2019 10:01:17 8.6 C 73 %
494 03-12-2019 10:11:17 8.6 C 73 %
495 03-12-2019 10:21:17 8.6 C 73 %
496 03-12-2019 10:31:17 8.6 C 73 %
497 03-12-2019 10:41:17 8.6 C 73 %
498 03-12-2019 10:51:17 8.7 C 73 %
499 03-12-2019 11:01:18 8.6 C 73 %
500 03-12-2019 11:11:18 8.7 C 73 %
Sensor: Nr:Datum:Temp:Feuchte:
G-T/H 501 03-12-2019 11:21:17 8.7 C 73 %
502 03-12-2019 11:31:17 8.7 C 73 %
503 03-12-2019 11:41:17 8.7 C 73 %
504 03-12-2019 11:51:17 8.7 C 74 %
505 03-12-2019 12:01:17 8.7 C 74 %
506 03-12-2019 12:11:17 8.7 C 74 %
507 03-12-2019 12:21:17 8.7 C 74 %
508 03-12-2019 12:31